[[{"header":{"parameterUnit":"m.s-1","parameterCategory":1,"la1":31.0,"la2":29.5877,"lo1":-88.7671,"lo2":-86.6584,"dy":0.0162,"dx":0.0185,"nx":115,"ny":88,"refTime":"2023-04-11T12:00:00:Z","depth":0,"parameterNumber":2,"parameterNumberName":"U-component_of_WINDS"},"data":[0.0,0.0,0.0,0.0,0.0,0.0,0.0,0.0,0.0,0.0,0.0,0.0,0.0,0.0,0.0,0.0,0.0,0.0,0.0,0.0,0.0,0.0,0.0,0.0,0.0,0.0,0.0,0.0,0.0,0.0,0.0,0.0,0.0,0.0,0.0,0.0,0.0,0.0,0.0,0.0,0.0,0.0,0.0,0.0,0.0,0.0,0.0,0.0,0.0,0.0,0.0,0.0,0.0,0.0,0.0,0.0,0.0,0.0,0.0,0.0,0.0,0.0,0.0,0.0,0.0,0.0,0.0,0.0,0.0,0.0,0.0,0.0,0.0,0.0,0.0,0.0,0.0,0.0,0.0,0.0,0.0,0.0,0.0,0.0,0.0,0.0,0.0,0.0,0.0,0.0,0.0,0.0,0.0,0.0,0.0,0.0,0.0,0.0,0.0,0.0,0.0,0.0,0.0,0.0,0.0,0.0,0.0,0.0,0.0,0.0,0.0,0.0,0.0,0.0,0.0,0.0,0.0,0.0,0.0,0.0,0.0,0.0,0.0,0.0,0.0,0.0,0.0,0.0,0.0,0.0,0.0,0.0,0.0,0.0,0.0,0.0,0.0,0.0,0.0,0.0,0.0,0.0,0.0,0.0,0.0,0.0,0.0,0.0,0.0,0.0,0.0,0.0,0.0,0.0,0.0,0.0,0.0,0.0,0.0,0.0,0.0,0.0,0.0,0.0,0.0,0.0,0.0,0.0,0.0,0.0,0.0,0.0,0.0,0.0,0.0,0.0,0.0,0.0,0.0,0.0,0.0,0.0,0.0,0.0,0.0,0.0,0.0,0.0,0.0,0.0,0.0,0.0,0.0,0.0,0.0,0.0,0.0,0.0,0.0,0.0,0.0,0.0,0.0,0.0,0.0,0.0,0.0,0.0,0.0,0.0,0.0,0.0,0.0,0.0,0.0,0.0,0.0,0.0,0.0,0.0,0.0,0.0,0.0,0.0,0.0,0.0,0.0,0.0,0.0,0.0,0.0,0.0,0.0,0.0,0.0,0.0,0.0,0.0,0.0,0.0,0.0,0.0,0.0,0.0,0.0,0.0,0.0,0.0,0.0,0.0,0.0,0.0,0.0,0.0,0.0,0.0,0.0,0.0,0.0,0.0,0.0,0.0,0.0,0.0,0.0,0.0,0.0,0.0,0.0,0.0,0.0,0.0,0.0,0.0,0.0,0.0,0.0,0.0,0.0,0.0,0.0,0.0,0.0,0.0,0.0,0.0,0.0,0.0,0.0,0.0,0.0,0.0,0.0,0.0,0.0,0.0,0.0,0.0,0.0,0.0,0.0,0.0,0.0,0.0,0.0,0.0,0.0,0.0,0.0,0.0,0.0,0.0,0.0,0.0,0.0,0.0,0.0,0.0,0.0,0.0,0.0,0.0,0.0,0.0,0.0,0.0,0.0,0.0,0.0,0.0,0.0,0.0,0.0,0.0,0.0,0.0,0.0,0.0,0.0,0.0,0.0,0.0,0.0,0.0,0.0,0.0,0.0,0.0,0.0,0.0,0.0,0.0,0.0,0.0,0.0,0.0,0.0,0.0,0.0,0.0,0.0,0.0,0.0,0.0,0.0,0.0,0.0,0.0,0.0,0.0,0.0,0.0,0.0,0.0,0.0,0.0,0.0,0.0,0.0,0.0,0.0,0.0,0.0,0.0,0.0,0.0,0.0,0.0,0.0,0.0,0.0,0.0,0.0,0.0,0.0,0.0,0.0,0.0,0.0,0.0,0.0,0.0,0.0,0.0,0.0,0.0,0.0,0.0,0.0,0.0,0.0,0.0,0.0,0.0,0.0,0.0,0.0,0.0,0.0,0.0,0.0,0.0,0.0,0.0,0.0,0.0,0.0,0.0,0.0,0.0,0.0,0.0,0.0,0.0,0.0,0.0,0.0,0.0,0.0,0.0,0.0,0.0,0.0,0.0,0.0,0.0,0.0,0.0,0.0,0.0,0.0,0.0,0.0,0.0,0.0,0.0,0.0,0.0,0.0,0.0,0.0,0.0,0.0,0.0,0.0,0.0,0.0,0.0,0.0,0.0,0.0,0.0,0.0,0.0,0.0,0.0,0.0,0.0,0.0,0.0,0.0,0.0,0.0,0.0,0.0,0.0,0.0,0.0,0.0,0.0,0.0,0.0,0.0,0.0,0.0,0.0,0.0,0.0,0.0,0.0,0.0,0.0,0.0,0.0,0.0,0.0,0.0,0.0,0.0,0.0,0.0,0.0,0.0,0.0,0.0,0.0,0.0,0.0,0.0,0.0,0.0,0.0,0.0,0.0,0.0,0.0,0.0,0.0,0.0,0.0,0.0,0.0,0.0,0.0,0.0,0.0,0.0,0.0,0.0,0.0,0.0,0.0,0.0,0.0,0.0,0.0,0.0,0.0,0.0,0.0,0.0,0.0,0.0,0.0,0.0,0.0,0.0,0.0,0.0,0.0,0.0,0.0,0.0,0.0,0.0,0.0,0.0,0.0,0.0,0.0,0.0,0.0,0.0,0.0,0.0,0.0,0.0,0.0,0.0,0.0,0.0,0.0,0.0,0.0,0.0,0.0,0.0,0.0,0.0,0.0,0.0,0.0,0.0,0.0,0.0,0.0,0.0,0.0,0.0,0.0,0.0,0.0,0.0,0.0,0.0,0.0,0.0,0.0,0.0,0.0,0.0,0.0,0.0,0.0,0.0,0.0,0.0,0.0,0.0,0.0,0.0,0.0,0.0,0.0,0.0,0.0,0.0,0.0,0.0,0.0,0.0,0.0,0.0,0.0,0.0,0.0,0.0,0.0,0.0,0.0,0.0,0.0,0.0,0.0,0.0,0.0,0.0,0.0,0.0,0.0,0.0,0.0,0.0,0.0,0.0,0.0,0.0,0.0,0.0,0.0,0.0,0.0,0.0,0.0,0.0,0.0,0.0,0.0,0.0,0.0,0.0,0.0,0.0,0.0,0.0,0.0,0.0,0.0,0.0,0.0,0.0,0.0,0.0,0.0,0.0,0.0,0.0,0.0,0.0,0.0,0.0,0.0,0.0,0.0,0.0,0.0,0.0,0.0,0.0,0.0,0.0,0.0,0.0,0.0,0.0,0.0,0.0,0.0,0.0,0.0,0.0,0.0,0.0,0.0,0.0,0.0,0.0,0.0,0.0,0.0,0.0,0.0,0.0,0.0,0.0,0.0,0.0,0.0,0.0,0.0,0.0,0.0,0.0,0.0,0.0,0.0,0.0,0.0,0.0,0.0,0.0,0.0,0.0,0.0,0.0,0.0,0.0,0.0,0.0,0.0,0.0,0.0,0.0,0.0,0.0,0.0,0.0,0.0,0.0,0.0,0.0,0.0,0.0,0.0,0.0,0.0,0.0,0.0,0.0,0.0,0.0,0.0,0.0,0.0,0.0,0.0,0.0,0.0,0.0,0.0,0.0,0.0,0.0,0.0,0.0,0.0,0.0,0.0,0.0,0.0,0.0,0.0,0.0,0.0,0.0,0.0,0.0,0.0,0.0,0.0,0.0,0.0,0.0,0.0,0.0,0.0,0.0,0.0,0.0,0.0,0.0,0.0,0.0,0.0,0.0,0.0,0.0,0.0,0.0,0.0,0.0,0.0,0.0,0.0,0.0,0.0,0.0,0.0,0.0,0.0,0.0,0.0,0.0,0.0,0.0,0.0,0.0,0.0,0.0,0.0,0.0,0.0,0.0,0.0,0.0,0.0,0.0,0.0,0.0,0.0,0.0,0.0,0.0,0.0,0.0,0.0,0.0,0.0,0.0,0.0,0.0,0.0,0.0,0.0,0.0,0.0,0.0,0.0,0.0,0.0,0.0,0.0,0.0,0.0,0.0,0.0,0.0,0.0,0.0,0.0,0.0,0.0,0.0,0.0,0.0,0.0,0.0,0.0,0.0,0.0,0.0,0.0,0.0,0.0,0.0,0.0,0.0,0.0,0.0,0.0,0.0,0.0,0.0,0.0,0.0,0.0,0.0,0.0,0.0,0.0,0.0,0.0,0.0,0.0,0.0,0.0,0.0,0.0,0.0,0.0,0.0,0.0,0.0,0.0,0.0,0.0,0.0,0.0,0.0,0.0,0.0,0.0,0.0,0.0,0.0,0.0,0.0,0.0,0.0,0.0,0.0,0.0,0.0,0.0,0.0,0.0,0.0,0.0,0.0,0.0,0.0,0.0,0.0,0.0,0.0,0.0,0.0,0.0,0.0,0.0,0.0,0.0,0.0,0.0,0.0,0.0,1.3437,0.0,0.0,0.0,0.0,0.0,0.0,0.0,0.0,0.0,0.0,0.0,0.0,0.0,0.0,0.0,0.0,0.0,0.0,0.0,0.0,0.0,0.0,0.0,0.0,0.0,0.0,0.0,0.0,0.0,0.0,0.0,0.0,0.0,0.0,0.0,0.0,0.0,0.0,0.0,0.0,0.0,0.0,0.0,0.0,0.0,0.0,0.0,0.0,0.0,0.0,0.0,0.0,0.0,0.0,0.0,0.0,0.0,0.0,0.0,0.0,0.0,0.0,0.0,0.0,0.0,0.0,0.0,0.0,0.0,0.0,0.0,0.0,0.0,0.0,0.0,0.0,0.0,0.0,0.0,0.0,0.0,0.0,0.0,0.0,0.0,0.0,0.0,0.0,0.0,0.0,0.0,0.0,0.0,0.0,0.0,0.0,0.0,0.0,0.0,0.0,0.0,0.0,0.0,0.0,0.0,0.0,0.0,0.0,0.0,0.0,1.3423,1.3694,1.3617,1.3583,1.3637,0.0,0.0,0.0,0.0,0.0,0.0,0.0,0.0,0.0,0.0,0.0,0.0,0.0,0.0,0.0,0.0,0.0,0.0,0.0,0.0,0.0,0.0,0.0,0.0,0.0,0.0,0.0,0.0,0.0,0.0,0.0,0.0,0.0,0.0,0.0,0.0,0.0,0.0,0.0,0.0,0.0,0.0,0.0,0.0,0.0,0.0,0.0,0.0,0.0,0.0,0.0,0.0,0.0,0.0,0.0,0.0,0.0,0.0,0.0,0.0,0.0,0.0,0.0,0.0,0.0,0.0,0.0,0.0,0.0,0.0,0.0,0.0,0.0,0.0,0.0,0.0,0.0,0.0,0.0,0.0,0.0,0.0,0.0,0.0,0.0,0.0,0.0,0.0,0.0,0.0,0.0,0.0,0.0,0.0,0.0,0.0,0.0,0.0,0.0,0.0,0.0,0.0,0.0,0.0,0.0,0.0,0.0,0.0,0.0,0.0,0.0,0.0,1.3775,1.3751,1.3604,0.0,0.0,0.0,0.0,0.0,0.0,0.0,0.0,0.0,0.0,0.0,0.0,0.0,0.0,0.0,0.0,0.0,0.0,0.0,0.0,0.0,0.0,0.0,0.0,0.0,0.0,0.0,0.0,0.0,0.0,0.0,0.0,0.0,0.0,0.0,0.0,0.0,0.0,0.0,0.0,0.0,0.0,0.0,0.0,0.0,0.0,0.0,0.0,0.0,0.0,0.0,0.0,0.0,0.0,0.0,0.0,0.0,0.0,0.0,0.0,0.0,0.0,0.0,0.0,0.0,0.0,0.0,0.0,0.0,0.0,0.0,0.0,0.0,0.0,0.0,0.0,0.0,0.0,0.0,0.0,0.0,0.0,0.0,0.0,0.0,0.0,0.0,0.0,0.0,0.0,0.0,0.0,0.0,0.0,0.0,0.0,0.0,0.0,0.0,0.0,0.0,0.0,0.0,0.0,0.0,0.0,0.0,0.0,0.0,0.0,1.3667,1.3694,1.3975,0.0,1.3103,0.0,0.0,0.0,0.0,0.0,0.0,0.0,0.0,0.0,0.0,0.0,0.0,0.0,0.0,0.0,0.0,0.0,0.0,0.0,0.0,0.0,0.0,0.0,0.0,0.0,0.0,0.0,0.0,0.0,0.0,0.0,0.0,0.0,0.0,0.0,0.0,0.0,0.0,0.0,0.0,0.0,0.0,0.0,0.0,0.0,0.0,0.0,0.0,0.0,0.0,0.0,0.0,0.0,0.0,0.0,0.0,0.0,0.0,0.0,0.0,0.0,0.0,0.0,0.0,0.0,0.0,0.0,0.0,0.0,0.0,0.0,0.0,0.0,0.0,0.0,0.0,0.0,0.0,0.0,0.0,0.0,0.0,0.0,0.0,0.0,0.0,0.0,0.0,0.0,0.0,0.0,0.0,0.0,0.0,0.0,0.0,0.0,0.0,0.0,0.0,0.0,0.0,0.0,0.0,0.0,0.0,0.0,0.0,0.0,0.0,1.345,1.345,1.3586,1.3375,0.0,0.0,0.0,0.0,0.0,0.0,0.0,0.0,0.0,0.0,0.0,0.0,0.0,0.0,0.0,0.0,0.0,0.0,0.0,0.0,0.0,0.0,0.0,0.0,0.0,0.0,0.0,0.0,0.0,0.0,0.0,0.0,0.0,0.0,0.0,0.0,0.0,0.0,0.0,0.0,0.0,0.0,0.0,0.0,0.0,0.0,0.0,0.0,0.0,0.0,0.0,0.0,0.0,0.0,0.0,0.0,0.0,0.0,0.0,0.0,0.0,0.0,0.0,0.0,0.0,0.0,0.0,0.0,0.0,0.0,0.0,0.0,0.0,0.0,0.0,0.0,0.0,0.0,0.0,0.0,0.0,0.0,0.0,0.0,0.0,0.0,0.0,0.0,0.0,0.0,0.0,0.0,0.0,0.0,0.0,0.0,0.0,0.0,0.0,0.0,0.0,0.0,0.0,0.0,0.0,0.0,0.0,0.0,0.0,0.0,1.3098,1.3234,1.3288,1.3044,1.2837,1.2604,0.0,0.0,0.0,0.0,0.0,0.0,0.0,0.0,0.0,0.0,0.0,0.0,0.0,0.0,0.0,0.0,0.0,0.0,0.0,0.0,0.0,0.0,0.0,0.0,0.0,0.0,0.0,0.0,0.0,0.0,0.0,0.0,0.0,0.0,0.0,0.0,0.0,0.0,0.0,0.0,0.0,0.0,0.0,0.0,0.0,0.0,0.0,0.0,0.0,0.0,0.0,0.0,0.0,0.0,0.0,0.0,0.0,0.0,0.0,0.0,0.0,0.0,0.0,0.0,0.0,0.0,0.0,0.0,0.0,0.0,0.0,0.0,0.0,0.0,0.0,0.0,0.0,0.0,0.0,0.0,0.0,0.0,0.0,0.0,0.0,0.0,0.0,0.0,0.0,0.0,0.0,0.0,0.0,0.0,0.0,0.0,0.0,0.0,0.0,0.0,0.0,0.0,0.0,0.0,0.0,0.0,0.0,0.0,1.2854,1.2908,1.3044,1.3261,1.25,1.2234,0.0,0.0,0.0,0.0,0.0,0.0,0.0,0.0,0.0,0.0,0.0,0.0,0.0,0.0,0.0,0.0,0.0,0.0,0.0,0.0,0.0,0.0,0.0,0.0,0.0,0.0,0.0,0.0,0.0,0.0,0.0,0.0,0.0,0.0,0.0,0.0,0.0,0.0,0.0,0.0,0.0,0.0,0.0,0.0,0.0,0.0,0.0,0.0,0.0,0.0,0.0,0.0,0.0,0.0,0.0,0.0,0.0,0.0,0.0,0.0,0.0,0.0,0.0,0.0,0.0,0.0,0.0,0.0,0.0,0.0,0.0,0.0,0.0,0.0,0.0,0.0,0.0,0.0,0.0,0.0,0.0,0.0,0.0,0.0,0.0,0.0,0.0,0.0,0.0,0.0,0.0,0.0,0.0,0.0,0.0,0.0,0.0,0.0,0.0,0.0,0.0,0.0,0.0,0.0,0.0,0.0,0.0,0.0,0.0,1.2545,1.2582,1.2636,1.2681,1.2286,1.2129,0.0,0.0,0.0,0.0,0.0,0.0,0.0,0.0,0.0,0.0,0.0,0.0,0.0,0.0,0.0,0.0,0.0,0.0,0.0,0.0,0.0,0.0,0.0,0.0,0.0,0.0,0.0,0.0,0.0,0.0,0.0,0.0,0.0,0.0,0.0,0.0,0.0,0.0,0.0,0.0,0.0,0.0,0.0,0.0,0.0,0.0,0.0,0.0,0.0,0.0,0.0,0.0,0.0,0.0,0.0,0.0,0.0,0.0,0.0,0.0,0.0,0.0,0.0,0.0,0.0,0.0,0.0,0.0,0.0,0.0,0.0,0.0,0.0,0.0,0.0,0.0,0.0,0.0,0.0,0.0,0.0,0.0,0.0,0.0,0.0,0.0,0.0,0.0,0.0,0.0,0.0,0.0,0.0,0.0,0.0,0.0,0.0,0.0,0.0,0.0,0.0,0.0,0.0,0.0,0.0,0.0,0.0,0.0,0.0,1.2518,0.0,1.2545,1.2545,1.2304,1.2145,0.0,0.0,0.0,0.0,0.0,0.0,0.0,0.0,0.0,0.0,0.0,0.0,0.0,0.0,0.0,0.0,0.0,0.0,0.0,0.0,0.0,0.0,0.0,0.0,0.0,0.0,0.0,0.0,0.0,0.0,0.0,0.0,0.0,0.0,0.0,0.0,0.0,0.0,0.0,0.0,0.0,0.0,0.0,0.0,0.0,0.0,0.0,0.0,0.0,0.0,0.0,0.0,0.0,0.0,0.0,0.0,0.0,0.0,0.0,0.0,0.0,0.0,0.0,0.0,0.0,0.0,0.0,0.0,0.0,0.0,0.0,0.0,0.0,0.0,0.0,0.0,0.0,0.0,0.0,0.0,0.0,0.0,0.0,0.0,0.0,0.0,0.0,0.0,0.0,0.0,0.0,0.0,0.0,0.0,0.0,0.0,0.0,0.0,0.0,0.0,0.0,0.0,0.0,0.0,0.0,0.0,0.0,0.0,1.231,1.2881,1.2881,1.2881,1.2881,1.259,1.2211,0.0,0.0,0.0,0.0,0.0,0.0,0.0,0.0,0.0,0.0,0.0,0.0,0.0,0.0,0.0,0.0,0.0,0.0,0.0,0.0,0.0,0.0,0.0,0.0,0.0,0.0,0.0,0.0,0.0,0.0,0.0,0.0,0.0,0.0,0.0,0.0,0.0,0.0,0.0,0.0,0.0,0.0,0.0,0.0,0.0,0.0,0.0,0.0,0.0,0.0,0.0,0.0,0.0,0.0,0.0,0.0,0.0,0.0,0.0,0.0,0.0,0.0,0.0,0.0,0.0,0.0,0.0,0.0,0.0,0.0,0.0,0.0,0.0,0.0,0.0,0.0,0.0,0.0,0.0,0.0,0.0,0.0,0.0,0.0,0.0,0.0,0.0,0.0,0.0,0.0,0.0,0.0,0.0,0.0,0.0,0.0,0.0,0.0,0.0,0.0,0.0,0.0,0.0,0.0,0.0,0.0,0.0,0.0,0.0,1.2918,1.3071,1.3152,1.3179,1.2761,1.2474,0.0,0.0,0.0,0.0,0.0,0.0,0.0,0.0,0.0,0.0,0.0,0.0,0.0,0.0,0.0,0.0,0.0,0.0,0.0,0.0,0.0,0.0,0.0,0.0,0.0,0.0,0.0,0.0,0.0,0.0,0.0,0.0,0.0,0.0,0.0,0.0,0.0,0.0,0.0,0.0,0.0,0.0,0.0,0.0,0.0,0.0,0.0,0.0,0.0,0.0,0.0,0.0,0.0,0.0,0.0,0.0,0.0,0.0,0.0,0.0,0.0,0.0,0.0,0.0,0.0,0.0,0.0,0.0,0.0,0.0,0.0,0.0,0.0,0.0,0.0,0.0,0.0,0.0,0.0,0.0,0.0,0.0,0.0,0.0,0.0,0.0,0.0,0.0,0.0,0.0,0.0,0.0,0.0,0.0,0.0,0.0,0.0,0.0,0.0,0.0,0.0,0.0,0.0,0.0,0.0,0.0,0.0,0.0,0.0,1.364,1.3614,1.36,1.36,1.3116,1.2753,1.2594,0.0,0.0,0.0,0.0,0.0,0.0,0.0,0.0,0.0,0.0,0.0,0.0,0.0,0.0,0.0,0.0,0.0,0.0,0.0,0.0,0.0,0.0,0.0,0.0,0.0,0.0,0.0,0.0,0.0,0.0,0.0,0.0,0.0,0.0,0.0,0.0,0.0,0.0,0.0,0.0,0.0,0.0,0.0,0.0,0.0,0.0,0.0,0.0,0.0,0.0,0.0,0.0,0.0,0.0,0.0,0.0,0.0,0.0,0.0,0.0,0.0,0.0,0.0,0.0,0.0,0.0,0.0,0.0,0.0,0.0,0.0,0.0,0.0,0.0,0.0,0.0,0.0,0.0,0.0,0.0,0.0,0.0,0.0,0.0,0.0,0.0,0.0,0.0,0.0,0.0,0.0,0.0,0.0,0.0,0.0,0.0,0.0,0.0,0.0,0.0,0.0,0.0,0.0,0.0,0.0,0.0,0.0,0.0,1.493,1.4435,1.4179,1.4159,1.3611,1.3109,0.0,0.0,0.0,0.0,0.0,0.0,0.0,0.0,0.0,0.0,0.0,0.0,0.0,0.0,0.0,0.0,0.0,0.0,0.0,0.0,0.0,0.0,0.0,0.0,0.0,0.0,0.0,0.0,0.0,0.0,0.0,0.0,0.0,0.0,0.0,0.0,0.0,0.0,0.0,0.0,0.0,0.0,0.0,0.0,0.0,0.0,0.0,0.0,0.0,0.0,0.0,0.0,0.0,0.0,0.0,0.0,0.0,0.0,0.0,0.0,0.0,0.0,0.0,0.0,0.0,0.0,0.0,0.0,0.0,0.0,0.0,0.0,0.0,0.0,0.0,0.0,0.0,0.0,0.0,0.0,0.0,0.0,0.0,0.0,0.0,0.0,0.0,0.0,0.0,0.0,0.0,0.0,0.0,0.0,0.0,0.0,0.0,0.0,0.0,0.0,0.0,0.0,0.0,0.0,0.0,0.0,0.0,0.0,0.0,1.5167,1.5257,1.5194,1.5058,1.4124,1.3537,0.0,0.0,0.0,0.0,0.0,0.0,0.0,0.0,0.0,0.0,0.0,0.0,0.0,0.0,0.0,0.0,0.0,0.0,0.0,0.0,0.0,0.0,0.0,0.0,0.0,0.0,0.0,0.0,0.0,0.0,0.0,0.0,0.0,0.0,0.0,0.0,0.0,0.0,0.0,0.0,0.0,0.0,0.0,0.0,0.0,0.0,0.0,0.0,0.0,0.0,0.0,0.0,0.0,0.0,0.0,0.0,0.0,0.0,0.0,0.0,0.0,0.0,0.0,0.0,0.0,0.0,0.0,0.0,0.0,0.0,0.0,0.0,0.0,0.0,0.0,0.0,0.0,0.0,0.0,0.0,0.0,0.0,0.0,0.0,0.0,0.0,0.0,0.0,0.0,0.0,0.0,0.0,0.0,0.0,0.0,0.0,0.0,0.0,0.0,0.0,0.0,0.0,0.0,0.0,0.0,0.0,0.0,0.0,1.542,1.5762,1.5921,1.5884,1.5606,1.4458,1.3712,0.0,0.0,0.0,0.0,0.0,0.0,0.0,0.0,0.0,0.0,0.0,0.0,0.0,0.0,0.0,0.0,0.0,0.0,0.0,0.0,0.0,0.0,0.0,0.0,0.0,0.0,0.0,0.0,0.0,0.0,0.0,0.0,0.0,0.0,0.0,0.0,0.0,0.0,0.0,0.0,0.0,0.0,0.0,0.0,0.0,0.0,0.0,0.0,0.0,0.0,0.0,0.0,0.0,0.0,0.0,0.0,0.0,0.0,0.0,0.0,0.0,0.0,0.0,0.0,0.0,0.0,0.0,0.0,0.0,0.0,0.0,0.0,0.0,0.0,0.0,0.0,0.0,0.0,0.0,0.0,0.0,0.0,0.0,0.0,0.0,0.0,0.0,0.0,0.0,0.0,0.0,0.0,0.0,0.0,0.0,0.0,0.0,0.0,0.0,0.0,0.0,0.0,0.0,0.0,0.0,0.0,0.0,0.0,1.5722,1.6389,1.6464,1.6323,1.5926,1.4738,1.3828,0.0,0.0,0.0,0.0,0.0,0.0,0.0,0.0,0.0,0.0,0.0,0.0,0.0,0.0,0.0,0.0,0.0,0.0,0.0,0.0,0.0,0.0,0.0,0.0,0.0,0.0,0.0,0.0,0.0,0.0,0.0,0.0,0.0,0.0,0.0,0.0,0.0,0.0,0.0,0.0,0.0,0.0,0.0,0.0,0.0,0.0,0.0,0.0,0.0,0.0,0.0,0.0,0.0,0.0,0.0,0.0,0.0,0.0,0.0,0.0,0.0,0.0,0.0,0.0,0.0,0.0,0.0,0.0,0.0,0.0,0.0,0.0,0.0,0.0,0.0,0.0,0.0,0.0,0.0,0.0,0.0,0.0,0.0,0.0,0.0,0.0,0.0,0.0,0.0,0.0,0.0,0.0,0.0,0.0,0.0,0.0,0.0,0.0,0.0,0.0,0.0,0.0,0.0,0.0,0.0,0.0,0.0,0.0,1.65,1.64,1.6875,1.6823,1.6226,1.5151,1.4299,0.0,0.0,0.0,0.0,0.0,0.0,0.0,0.0,0.0,0.0,0.0,0.0,0.0,0.0,0.0,0.0,0.0,0.0,0.0,0.0,0.0,0.0,0.0,0.0,0.0,0.0,0.0,0.0,0.0,0.0,0.0,0.0,0.0,0.0,0.0,0.0,0.0,0.0,0.0,0.0,0.0,0.0,0.0,0.0,0.0,0.0,0.0,0.0,1.1526,0.0,0.0,0.0,0.0,0.0,0.0,0.0,0.0,0.0,0.0,0.0,0.0,0.0,0.0,0.0,0.0,0.0,0.0,0.0,0.0,0.0,0.0,0.0,0.0,0.0,0.0,0.0,0.0,0.0,0.0,0.0,0.0,0.0,0.0,0.0,0.0,0.0,0.0,0.0,0.0,0.0,0.0,0.0,0.0,0.0,0.0,0.0,0.0,0.0,0.0,0.0,0.0,0.0,0.0,0.0,0.0,0.0,0.0,0.0,1.6521,1.6558,1.6814,1.6662,1.6034,1.5196,1.4439,0.0,0.0,0.0,0.0,0.0,0.0,0.0,0.0,0.0,0.0,0.0,0.0,0.0,0.0,0.0,0.0,0.0,0.0,0.0,0.0,0.0,0.0,0.0,0.0,0.0,0.0,0.0,0.0,0.0,0.0,0.0,0.0,0.0,0.0,0.0,0.0,0.0,0.0,0.0,0.0,0.0,0.0,0.0,0.0,0.0,0.0,0.0,0.0,0.0,0.0,0.0,0.0,0.0,0.0,0.0,0.0,0.0,0.0,0.0,0.0,0.0,0.0,0.0,0.0,0.0,0.0,0.0,0.0,0.0,0.0,0.0,0.0,0.0,0.0,0.0,0.0,0.0,0.0,0.0,0.0,0.0,0.0,0.0,0.0,0.0,0.0,0.0,0.0,0.0,0.0,0.0,0.0,0.0,0.0,0.0,0.0,0.0,0.0,0.0,0.0,0.0,0.0,0.0,0.0,0.0,0.0,0.0,1.5739,1.6442,1.6721,1.6754,1.6455,1.5816,1.5223,1.4595,1.3888,0.0,0.0,0.0,0.0,0.0,0.0,0.0,0.0,0.0,0.0,0.0,0.0,0.0,0.0,0.0,0.0,0.0,0.0,0.0,0.0,0.0,0.0,0.0,0.0,0.0,0.0,0.0,0.0,0.0,0.0,0.0,0.0,0.0,0.0,0.0,0.0,0.0,0.0,0.7357,0.7801,0.0,0.0,0.0,0.0,0.0,0.0,0.0,0.0,1.1607,0.0,0.0,0.0,0.0,0.0,0.0,0.0,0.0,0.0,0.0,0.0,0.0,0.0,0.0,0.0,0.0,0.0,0.0,0.0,0.0,0.0,0.0,0.0,0.0,0.0,0.0,0.0,0.0,0.0,0.0,0.0,0.0,0.0,0.0,0.0,0.0,0.0,0.0,0.0,0.0,0.0,0.0,0.0,0.0,0.0,0.0,0.0,0.0,0.0,0.0,0.0,0.0,0.0,0.0,0.0,0.0,1.4719,1.6234,1.6983,1.6947,1.7335,1.7121,1.6239,1.5668,1.5128,1.4626,0.0,0.0,0.0,0.0,0.0,0.0,0.0,0.0,0.0,0.0,0.0,0.0,0.0,0.0,0.0,0.0,0.0,0.0,0.0,0.0,0.0,0.0,0.0,0.0,0.0,0.0,0.0,0.0,0.0,0.0,0.0,0.0,0.0,0.0,0.0,0.0,0.0,0.0,0.0,0.7575,0.7797,0.0,0.0,0.0,0.0,0.0,0.0,0.0,0.0,1.1076,0.0,0.0,0.0,0.0,0.0,0.0,0.0,0.0,0.0,0.0,0.0,0.0,0.0,0.0,0.0,0.0,0.0,0.0,0.0,0.0,0.0,0.0,0.0,0.0,0.0,0.0,0.0,0.0,0.0,0.0,0.0,0.0,0.0,0.0,0.0,0.0,0.0,0.0,0.0,0.0,0.0,0.0,0.0,0.0,0.0,0.0,0.0,0.0,0.0,0.0,0.0,0.0,0.0,0.0,0.0,1.5309,1.6475,1.7141,1.7195,1.7339,1.7179,1.6616,1.6063,1.5547,0.0,0.0,0.0,0.0,0.0,0.0,0.0,0.0,0.0,0.0,0.0,0.0,0.0,0.0,0.0,0.0,0.0,0.0,0.0,0.0,0.0,0.0,0.0,0.0,0.0,0.0,0.0,0.0,0.0,0.0,0.0,0.0,0.0,0.0,0.0,0.0,0.0,0.0,0.0,0.0,0.712,0.7134,0.7395,0.0,0.0,0.0,0.0,0.0,0.0,1.0204,1.0416,0.0,0.0,0.0,0.0,0.0,0.0,0.0,0.0,0.0,0.0,0.0,0.0,0.0,0.0,0.0,0.0,0.0,0.0,0.0,0.0,0.0,0.0,0.0,0.0,0.0,0.0,0.0,0.0,0.0,0.0,0.0,0.0,0.0,0.0,0.0,0.0,0.0,0.0,0.0,0.0,0.0,0.0,0.0,0.0,0.0,0.0,0.0,0.0,0.0,0.0,0.0,0.0,0.0,0.0,0.0,1.5951,1.6701,1.7227,1.7518,1.7417,1.7248,1.7051,1.6458,1.5873,0.0,0.0,0.0,0.0,0.0,0.0,0.0,0.0,0.0,0.0,0.0,0.0,0.0,0.0,0.0,0.0,0.0,0.0,0.0,0.0,0.0,0.0,0.0,0.0,0.0,0.0,0.0,0.0,0.0,0.0,0.0,0.0,0.0,0.0,0.0,0.0,0.0,0.0,0.0,0.0,0.0,0.6513,0.6704,0.7107,0.0,0.0,0.0,0.0,0.8922,0.9399,0.0,0.0,0.0,0.0,0.0,0.0,0.0,0.0,0.0,0.0,0.0,0.0,0.0,0.0,0.0,0.0,0.0,0.0,0.0,0.0,0.0,0.0,0.0,0.0,0.0,0.0,0.0,0.0,0.0,0.0,0.0,0.0,0.0,0.0,0.0,0.0,0.0,0.0,0.0,0.0,0.0,0.0,0.0,0.0,0.0,0.0,0.0,0.0,0.0,0.0,0.0,0.0,0.0,0.0,0.0,0.0,1.64,1.7031,1.7584,1.7992,1.7882,1.7718,1.7523,1.6885,1.6267,0.0,0.0,0.0,0.0,0.0,0.0,0.0,0.0,0.0,0.0,0.0,0.0,0.0,0.0,0.0,0.0,0.0,0.0,0.0,0.0,0.0,0.0,0.0,0.0,0.0,0.0,0.0,0.0,0.0,0.0,0.0,0.0,0.0,0.0,0.0,0.0,0.0,0.0,0.0,0.0,0.0,0.6305,0.6208,0.6423,0.6598,0.0,0.0,0.784,0.7931,0.8328,0.0,0.0,0.0,0.0,0.0,0.0,0.0,0.0,0.0,0.0,0.0,0.0,0.0,0.0,0.0,0.0,0.0,0.0,0.0,0.0,0.0,0.0,0.0,0.0,0.0,0.0,0.0,0.0,0.0,0.0,0.0,0.0,0.0,0.0,0.0,0.0,0.0,0.0,0.0,0.0,0.0,0.0,0.0,0.0,0.0,0.0,0.0,0.0,0.0,0.0,0.0,0.0,0.0,0.0,0.0,1.6034,1.6785,1.7546,1.8078,1.8282,1.8368,1.8308,1.805,1.7507,1.6888,0.0,0.0,0.0,0.0,0.0,0.0,0.0,0.0,0.0,0.0,0.0,0.0,0.0,0.0,0.0,0.0,0.0,0.0,0.0,0.0,0.0,0.0,0.0,0.0,0.0,0.0,0.0,0.0,0.0,0.0,0.0,0.0,0.0,0.0,0.0,0.0,0.0,0.0,0.0,0.0,0.0,0.0,0.5325,0.5557,0.0,0.0,0.0,0.7051,0.7297,0.0,0.0,0.0,0.0,0.0,0.0,0.0,0.0,0.0,0.0,0.0,0.0,0.0,0.0,0.0,0.0,0.0,0.0,0.0,0.0,0.0,0.0,0.0,0.0,0.0,0.0,0.0,0.0,0.0,0.0,0.0,0.0,0.0,0.0,0.0,0.0,0.0,0.0,0.0,0.0,0.0,0.0,0.0,0.0,0.0,0.0,0.0,0.0,0.0,0.0,0.0,0.0,0.0,0.0,0.0,0.0,0.0,1.715,1.8069,1.8533,1.8581,1.8849,1.8874,1.8484,1.8007,0.0,0.0,0.0,0.0,0.0,0.0,0.0,0.0,0.0,0.0,0.0,0.0,0.0,0.0,0.0,0.0,0.0,0.0,0.0,0.0,0.0,0.0,0.0,0.0,0.0,0.0,0.0,0.9154,0.0,0.0,0.0,0.0,0.0,0.0,0.0,0.0,0.0,0.0,0.0,0.0,0.0,0.0,0.4644,0.4698,0.4855,0.5119,0.0,0.0,0.6374,0.6725,0.6955,0.6935,0.0,0.0,0.0,0.0,0.0,0.0,0.0,0.0,0.0,0.0,0.0,0.0,0.0,0.0,0.0,0.0,0.0,0.0,0.0,0.0,0.0,0.0,0.0,0.0,0.0,0.0,0.0,0.0,0.0,0.0,0.0,0.0,0.0,0.0,0.0,0.0,0.0,0.0,0.0,0.0,0.0,0.0,0.0,0.0,0.0,0.0,0.0,0.0,0.0,0.0,0.0,0.0,0.0,0.0,1.6532,1.7546,1.8491,1.9003,1.9043,1.9438,1.9365,1.8803,1.8192,1.7427,0.0,0.0,0.0,0.0,0.0,0.0,0.0,0.0,0.0,0.0,0.0,0.0,0.0,0.0,0.0,0.0,0.0,0.0,0.0,0.0,0.0,0.0,0.0,0.0,0.0,0.0,0.0,0.0,0.0,0.0,0.0,0.0,0.0,0.0,0.0,0.0,0.0,0.0,0.0,0.0,0.0,0.4702,0.4705,0.4708,0.4855,0.0,0.5471,0.5764,0.612,0.632,0.6251,0.568,0.0,0.0,0.0,0.0,0.0,0.0,0.0,0.0,0.0,0.0,0.0,0.0,0.0,0.0,0.0,0.0,0.0,0.0,0.0,0.0,0.0,0.0,0.0,0.0,0.0,0.0,0.0,0.0,0.0,0.0,0.0,0.0,0.0,0.0,0.0,0.0,0.0,0.0,0.0,0.0,0.0,0.0,0.0,0.0,0.0,0.0,0.0,0.0,0.0,0.0,0.0,0.0,0.0,1.708,1.8154,1.9,1.9531,1.9705,1.9874,1.961,1.8864,1.8239,1.7325,0.0,0.0,0.0,0.0,0.0,0.0,0.0,0.0,0.0,0.0,0.0,0.0,0.0,0.0,0.0,0.0,0.0,0.0,0.0,0.0,0.0,0.0,0.0,0.0,0.0,0.0,0.0,0.0,0.7921,0.7429,0.6758,0.0,0.0,0.0,0.0,0.0,0.0,0.0,0.0,0.0,0.0,0.4199,0.4207,0.4213,0.0,0.0,0.4814,0.4996,0.5301,0.5409,0.5322,0.5086,0.5017,0.0,0.0,0.0,0.0,0.0,0.0,0.0,0.0,0.0,0.0,0.0,0.0,0.0,0.0,0.0,0.0,0.0,0.0,0.0,0.0,0.0,0.0,0.0,0.0,0.0,0.0,1.2304,1.2304,0.0,0.0,0.0,0.0,0.0,0.0,0.0,0.0,0.0,0.0,0.0,0.0,0.0,0.0,0.0,0.0,0.0,0.0,0.0,0.0,0.0,0.0,0.0,0.0,1.7525,1.8435,1.9551,2.0169,2.0303,2.0452,2.0008,1.9036,1.8249,1.7252,0.0,0.0,0.0,0.0,0.0,0.0,0.0,0.0,0.0,0.0,0.0,0.0,0.0,0.0,0.0,0.0,0.0,0.0,0.0,0.0,0.0,0.0,0.0,0.0,0.0,0.0,0.0,0.0,0.7521,0.6979,0.6254,0.0,0.0,0.0,0.0,0.0,0.0,0.0,0.0,0.0,0.0,0.3954,0.3966,0.3972,0.4096,0.4406,0.445,0.4561,0.4874,0.4852,0.4731,0.455,0.0,0.0,0.0,0.0,0.0,0.0,0.0,0.0,0.0,0.0,0.0,0.0,0.0,0.0,0.0,0.0,0.0,0.0,0.0,0.0,0.0,0.0,0.0,0.0,0.0,0.0,1.2539,1.2312,0.0,0.0,1.2376,0.0,0.0,0.0,0.0,0.0,0.0,0.0,0.0,0.0,0.0,0.0,0.0,0.0,0.0,0.0,0.0,0.0,0.0,0.0,0.0,0.0,0.0,1.7683,1.8349,2.0132,2.0974,2.0829,2.1234,2.0729,1.9249,1.8213,1.7206,1.6188,0.0,0.0,0.0,0.0,0.0,0.0,0.0,0.0,0.0,0.0,0.0,0.0,0.0,0.0,0.0,0.0,0.0,0.0,0.0,0.0,0.0,0.0,0.0,0.0,0.0,0.0,0.7726,0.7102,0.6581,0.0,0.0,0.0,0.0,0.0,0.0,0.0,0.0,0.0,0.4061,0.405,0.4088,0.4088,0.4088,0.4214,0.4538,0.455,0.4602,0.4913,0.4858,0.461,0.0,0.0,0.0,0.0,0.0,0.0,0.0,0.0,0.0,0.0,0.0,0.0,0.0,0.0,0.0,0.0,0.0,0.0,0.0,0.0,0.0,0.0,0.0,0.0,0.0,0.0,0.0,1.3181,1.3019,0.0,0.0,0.0,0.0,0.0,0.0,0.0,0.0,0.0,0.0,0.0,1.7609,1.7824,0.0,0.0,0.0,0.0,0.0,0.0,0.0,0.0,0.0,0.0,0.0,0.0,1.8134,1.9715,2.0635,2.1227,2.1472,2.1599,2.0935,1.93,1.8409,1.6916,1.4741,0.0,0.0,0.0,0.0,0.0,0.0,0.0,0.0,0.0,0.0,0.0,0.0,0.0,0.0,0.0,0.0,0.0,0.0,0.0,0.0,0.0,0.0,0.0,0.0,0.0,0.766,0.0,0.0,0.0,0.0,0.0,0.0,0.0,0.0,0.0,0.0,0.4753,0.4609,0.4479,0.4467,0.4383,0.4125,0.4093,0.4125,0.0,0.0,0.0,0.0,0.0,0.0,0.0,0.0,0.0,0.0,0.0,0.0,0.0,0.058,0.0573,0.1009,0.0668,0.0243,0.0,0.0,0.0,0.0,0.0,0.0,0.0,0.0,0.0,0.0,0.0,0.0,0.0,0.0,0.0,1.3912,1.3742,1.3712,1.3687,0.0,0.0,0.0,0.0,0.0,0.0,0.0,1.7397,1.8138,1.8587,1.8782,1.8732,1.8504,1.7919,1.7297,0.0,0.0,0.0,0.0,0.0,0.0,0.0,0.0,1.8859,2.0585,2.1295,2.1699,2.1928,2.1744,2.0838,1.9243,1.7788,1.6073,1.4014,1.2925,1.2244,0.0,0.0,0.0,0.0,0.0,0.0,0.0,0.0,0.0,0.0,0.0,0.0,0.0,0.0,0.0,0.0,0.0,0.0,0.0,0.0,0.0,0.0,0.0,0.7398,0.0,0.0,0.0,0.0,0.0,0.0,0.0,0.0,0.0,0.4884,0.4851,0.4747,0.4619,0.4604,0.4549,0.4284,0.0,0.0,0.0,0.0,0.0,0.0,0.0,0.3338,0.2981,0.2621,0.2164,0.1582,0.0798,0.0234,0.0101,0.0,0.0,-0.016,-0.0414,-0.0796,-0.1018,-0.1114,-0.1241,-0.1496,-0.1508,-0.1456,0.0,0.0,0.0,0.0,1.3719,0.0,0.0,0.0,1.4757,1.4606,0.0,1.4302,0.0,0.0,0.0,0.0,1.5624,1.5918,0.0,0.0,1.8495,1.9352,2.0627,2.0118,2.0015,2.0365,1.9303,1.8642,1.8377,1.7021,1.6245,0.0,0.0,0.0,0.0,0.0,1.9859,2.0934,2.2021,2.2465,2.218,2.1622,2.0563,1.8994,1.6411,1.4766,1.4111,1.319,1.2594,1.2389,1.1593,0.0,0.0,0.0,0.0,0.0,0.0,0.0,0.0,0.0,0.0,0.0,0.0,0.0,0.0,0.0,0.0,0.0,0.0,0.0,0.0,0.7497,0.0,0.0,0.0,0.0,0.0,0.0,0.0,0.0,0.0,0.5288,0.4431,0.4735,0.4878,0.4467,0.0,0.0,0.0,0.0,0.448,0.4477,0.4087,0.3815,0.3783,0.3399,0.2967,0.2635,0.0,0.0,0.0687,0.0241,-0.0104,-0.0456,-0.0809,-0.1011,-0.0748,-0.1215,-0.1686,-0.1755,-0.1957,-0.2161,-0.2195,-0.206,-0.1967,1.3316,0.0,0.0,0.0,0.0,1.4754,1.5082,1.5626,1.5618,1.5448,1.5204,1.5155,0.0,0.0,0.0,0.0,0.0,0.0,1.86,1.9323,2.0345,2.1116,2.163,2.1779,2.1716,2.1494,2.072,2.0081,1.9524,1.8641,1.7804,1.7086,0.0,0.0,0.0,0.0,2.0387,2.155,2.2423,2.259,2.1993,2.1811,2.0621,1.8335,1.634,1.489,1.405,1.3092,1.2373,1.1975,1.1377,0.0,0.0,0.0,0.0,0.0,0.0,0.0,0.0,0.0,0.0,0.0,0.0,0.0,0.0,0.0,0.0,0.0,0.0,0.0,0.758,0.7518,0.7339,0.0,0.0,0.0,0.0,0.0,0.0,0.0,0.0,0.0,0.5574,0.5434,0.5295,0.0,0.0,0.4762,0.4552,0.4482,0.4482,0.4482,0.4155,0.0,0.3531,0.3135,0.2749,0.2456,0.2103,0.1607,0.0717,0.0253,-0.0109,-0.0475,-0.0884,-0.1146,-0.1101,-0.1648,-0.2156,-0.2454,-0.2211,-0.1924,-0.214,-0.1819,-0.1392,1.4602,1.4335,1.4213,1.4724,1.5564,1.5608,1.5966,1.6639,1.6631,1.6517,1.6349,1.6169,1.6228,1.6477,1.6642,0.0,0.0,0.0,2.0289,2.11,2.1936,2.2534,2.2848,2.3113,2.3124,2.2804,2.2226,2.1551,2.0782,2.0215,1.9403,1.8428,0.0,1.8455,1.9502,2.0103,2.105,2.2303,2.2671,2.2565,2.2063,2.1085,1.9648,1.7749,1.6261,1.5139,1.4321,1.3362,1.2594,1.2108,1.1388,1.0889,0.0,0.0,0.0,0.0,0.0,0.0,0.0,0.0,0.0,0.0,0.0,0.8233,0.7842,0.0,0.0,0.0,0.7373,0.7493,0.766,0.7588,0.0,0.0,0.0,0.0,0.0,0.0,0.0,0.6567,0.6796,0.6789,0.6411,0.6218,0.5885,0.5282,0.5024,0.4843,0.4663,0.0,0.4627,0.4627,0.4302,0.3916,0.3545,0.3147,0.2752,0.2181,0.1961,0.1591,0.1,0.0671,0.0449,0.0187,-0.0188,-0.0455,-0.0495,-0.0973,-0.1586,-0.2108,-0.185,-0.1591,-0.1776,-0.1444,-0.1148,1.5701,1.6062,1.5195,1.5434,1.6308,1.6308,1.6849,1.77,1.77,1.7692,1.7651,1.7425,1.7579,1.8092,1.8567,0.0,2.0454,2.1025,2.1938,2.3255,2.3429,2.3811,2.418,2.4204,2.4194,2.4204,2.3676,2.3023,2.216,2.1601,2.0903,2.005,1.9292,1.9393,2.0299,2.0859,2.1703,2.2853,2.274,2.2503,2.2118,1.984,1.82,1.729,1.6277,1.5473,1.486,1.3975,1.3176,1.2592,1.1682,1.0981,1.0588,0.0,0.0,0.0,0.0,0.0,0.0,0.0,0.0,0.0,0.0,0.0,0.0,0.0,0.0,0.7088,0.726,0.0,0.7928,0.7738,0.0,0.0,0.0,0.7649,0.7688,0.7609,0.7605,0.7597,0.0,0.0,0.704,0.6962,0.6594,0.5762,0.5205,0.4861,0.4821,0.4818,0.4821,0.4815,0.4515,0.4176,0.3799,0.3427,0.2937,0.2176,0.1943,0.183,0.145,0.1335,0.1334,0.1222,0.0952,0.0688,0.0657,0.0271,-0.0116,-0.084,-0.1027,-0.1025,-0.1025,-0.0911,-0.0835,1.6691,1.652,1.631,1.6672,1.7322,1.737,1.7828,1.8663,1.8663,1.859,1.846,1.8795,1.9146,1.9604,2.0281,2.0917,2.1554,2.2823,2.3716,2.4371,2.4827,2.504,2.5173,2.5001,2.4926,2.4904,2.4261,2.3749,2.3339,2.245,2.1803,2.1403,2.0893,2.059,2.0584,2.148,2.1971,2.1921,2.271,2.2397,2.0954,1.9519,1.8383,1.767,1.6639,1.5895,1.5466,1.4477,1.3717,1.3208,1.2234,1.1579,1.1292,1.0462,0.0,0.0,0.0,0.0,0.0,0.0,0.0,0.0,0.0,0.8747,0.8069,0.0,0.802,0.0,0.7519,0.7706,0.7856,0.8146,0.0,0.0,0.8757,0.9008,0.9008,0.8724,0.8447,0.8332,0.8039,0.773,0.7581,0.7332,0.7072,0.6792,0.6059,0.5369,0.5017,0.4939,0.4939,0.4939,0.4631,0.4374,0.4254,0.3978,0.3516,0.304,0.2918,0.272,0.196,0.1841,0.1721,0.1401,0.124,0.1162,0.1163,0.1045,0.0963,0.072,0.0434,0.0156,0.0195,0.0428,0.0701,1.7256,1.6993,1.6993,1.7374,1.799,1.7914,1.8486,1.9337,1.9345,1.9289,1.924,1.9902,2.043,2.0879,2.1801,2.25,2.3071,2.4179,2.4949,2.5437,2.5693,2.5792,2.5781,2.5701,2.5647,2.5647,2.5216,2.4783,2.4323,2.3455,2.2772,2.2319,2.1527,2.0974,2.0798,2.166,2.2121,2.2187,2.2287,2.1527,1.9834,1.8978,1.8305,1.7632,1.7048,1.6483,1.593,1.5001,1.4264,1.3729,1.2799,1.2102,1.1836,1.1233,1.0813,0.0,0.0,0.0,0.0,0.0,0.0,0.0,0.0,0.0,0.0,0.0,0.8841,0.8358,0.8468,0.8574,0.859,0.8933,0.9118,0.9118,0.9422,0.963,0.9625,0.9418,0.914,0.8833,0.853,0.8303,0.8044,0.7827,0.7618,0.7452,0.6963,0.6323,0.5562,0.5422,0.5342,0.5101,0.4905,0.4676,0.4587,0.4169,0.3823,0.3618,0.3578,0.3415,0.2929,0.2848,0.2766,0.2522,0.2319,0.2197,0.2156,0.1993,0.1871,0.1827,0.1691,0.1397,0.0998,0.1117,0.1317,1.7588,1.7507,1.7487,1.7784,1.8313,1.8329,1.8899,1.982,1.9922,2.0024,2.022,2.0958,2.1527,2.206,2.3104,2.3948,2.4536,2.5281,2.5877,2.6361,2.6422,2.6361,2.6361,2.634,2.6308,2.6275,2.6293,2.5904,2.5215,2.4476,2.3756,2.3081,2.1778,2.1156,2.1195,2.1622,2.2088,2.2616,2.1599,2.0351,1.8904,1.8496,1.801,1.7449,1.7331,1.7005,1.6329,1.5581,1.4853,1.4273,1.3433,1.28,1.2483,1.2259,1.2044,0.0,1.1634,0.0,0.0,0.0,0.0,0.0,0.0,0.0,0.0,0.9738,0.9748,0.9595,0.9606,0.9659,0.9659,0.9841,0.9947,0.9947,1.0005,1.0058,1.0058,1.001,0.9783,0.9282,0.9191,0.897,0.8585,0.8507,0.8334,0.7968,0.787,0.7422,0.6377,0.612,0.5915,0.5494,0.5365,0.5245,0.4918,0.4461,0.4132,0.4048,0.4009,0.3962,0.3884,0.3843,0.3882,0.3843,0.3565,0.3362,0.3398,0.3075,0.2834,0.2798,0.2756,0.2418,0.1709,0.1543,0.1465,1.8104,1.7955,1.7888,1.8039,1.8498,1.8798,1.9326,2.0017,2.0494,2.1183,2.2064,2.2091,2.261,2.355,2.4035,2.464,2.5366,2.5985,2.6669,2.7433,2.7433,2.7433,2.7422,2.7187,2.7004,2.6759,2.6616,2.6351,2.5965,2.4966,2.4427,2.4237,2.2744,2.1977,2.1977,0.0,0.0,0.0,2.0681,1.9846,1.8781,1.8398,1.797,1.742,1.6974,0.0,1.6888,1.6341,1.5721,1.5164,1.4672,0.0,0.0,0.0,0.0,0.0,0.0,0.0,0.0,0.0,0.0,0.0,1.1752,1.0945,0.9948,0.9812,0.9855,0.998,0.9975,1.0028,1.0033,1.0486,1.0775,1.078,1.1167,1.1411,1.1411,1.1083,1.0745,1.048,1.015,0.9819,0.9542,0.9496,0.9332,0.8831,0.8766,0.8352,0.752,0.7028,0.6775,0.6646,0.6245,0.6011,0.5885,0.5463,0.4973,0.4681,0.4556,0.4428,0.4136,0.4011,0.4011,0.4011,0.3956,0.3935,0.3937,0.3924,0.381,0.3903,0.3605,0.3144,0.2501,0.2359,0.2357,1.8409,1.8199,1.8124,1.821,0.0,1.9276,1.979,2.0105,2.0721,2.1682,2.2829,2.2644,2.3196,2.4311,2.4619,2.5104,2.5843,2.6368,2.7007,2.7702,2.7702,2.7702,2.7702,2.7573,2.7413,2.7284,2.7165,2.6892,2.6467,2.5533,2.491,2.4494,2.2812,2.1899,2.1759,2.0748,2.0217,2.0179,1.989,1.9174,1.8108,1.8057,1.7884,1.7561,1.7457,0.0,0.0,0.0,0.0,0.0,0.0,0.0,0.0,1.4744,0.0,1.4672,1.4486,1.423,1.3923,1.3538,1.3242,1.3186,1.2849,1.2081,1.0853,1.0786,1.0833,1.0941,1.0956,1.0956,1.0961,1.124,1.1362,1.1413,1.1644,1.1819,1.1773,1.1589,1.1308,1.0977,1.0725,1.05,1.0129,1.011,0.9976,0.9754,0.9623,0.9414,0.8919,0.8026,0.7295,0.7035,0.6789,0.659,0.6587,0.6393,0.6026,0.5642,0.5472,0.5298,0.4871,0.4786,0.4786,0.4786,0.4636,0.4482,0.4484,0.4372,0.4214,0.4216,0.3999,0.3761,0.3418,0.3027,0.2687,1.8694,1.847,1.8423,1.8453,1.8623,1.963,2.026,2.0573,2.104,0.0,0.0,2.2966,2.3548,2.4623,2.499,2.5501,2.6099,2.6632,2.7217,2.7791,2.7897,2.7951,2.7951,2.7951,2.7854,2.7663,2.7663,2.7303,2.6649,2.5876,2.5172,2.4371,2.27,2.1672,2.1259,1.9946,1.9331,1.9452,1.9193,1.8522,1.7595,1.7749,1.7878,1.7834,1.8025,1.805,1.7965,1.7187,1.6731,1.6624,1.6017,1.564,1.5618,1.5762,1.5861,1.5899,1.5962,1.5846,1.5475,1.5073,1.4599,1.4114,1.386,1.3248,1.2095,1.2127,1.22,1.2216,1.2222,1.2222,1.2222,1.2222,1.2222,1.2222,1.2205,1.2194,1.2194,1.212,1.2017,1.1616,1.1559,1.1365,1.1013,1.0911,1.0753,1.0647,1.0472,1.0307,1.0092,0.9038,0.8054,0.7654,0.7465,0.727,0.7139,0.6992,0.6862,0.6462,0.6379,0.6255,0.5952,0.5778,0.5735,0.568,0.535,0.5099,0.5012,0.4762,0.4457,0.4457,0.4413,0.4326,0.4282,0.3671,0.309,1.9115,1.9061,1.8803,1.9041,1.954,1.9952,2.0906,2.2129,2.1872,2.2167,2.2863,2.3379,2.3975,2.4651,2.5179,2.5779,2.6387,2.695,2.7546,2.8152,2.8657,2.8932,2.8877,2.8932,2.8444,2.7574,2.7543,2.7023,2.6046,2.5457,2.4836,2.4173,2.3034,2.1939,2.1012,2.0556,2.0079,1.948,1.8699,1.8227,1.8095,1.7854,1.7936,1.8332,1.7984,1.7899,1.8144,1.7878,1.7574,1.7275,1.7166,1.7025,1.688,1.7041,1.7202,1.7293,1.7106,1.7041,1.7142,1.6732,1.6101,1.5276,1.4872,1.4364,1.3637,1.359,1.365,1.3759,1.3704,1.3777,1.3777,1.371,1.3692,1.3698,1.3668,1.3602,1.3536,1.3452,1.3309,1.3115,1.3172,1.3084,1.2776,1.2472,1.2059,1.1722,1.1395,1.0911,1.0506,0.9995,0.9513,0.9042,0.8589,0.8149,0.7882,0.7291,0.7099,0.6905,0.6919,0.6889,0.6725,0.6463,0.6245,0.6181,0.5841,0.5602,0.5558,0.5548,0.5397,0.5357,0.5134,0.4912,0.4867,0.4421,0.4083,1.9456,1.9723,1.9643,1.9873,2.0511,2.1004,2.179,2.274,2.2586,2.2859,2.3411,2.3844,2.4373,2.4913,2.532,2.584,2.6407,2.6686,2.7297,2.8175,2.8462,2.8628,2.8628,2.8628,2.8181,2.7378,2.7313,2.6937,2.6211,2.5919,2.5263,2.4217,2.2937,2.1813,2.0963,2.0455,2.0109,1.9758,1.9122,1.8604,1.8208,1.8311,1.8529,1.878,1.8619,1.8649,1.8809,1.8403,1.8135,1.8019,1.8142,1.8242,1.8159,1.828,1.8404,1.8449,1.8155,1.7962,1.7757,1.7421,1.7006,1.669,1.6595,1.6496,1.6256,1.4834,1.4012,1.4073,1.4079,1.4079,1.4079,1.4079,1.4079,1.4079,1.4024,1.4036,1.3981,1.3945,1.3925,1.381,1.3737,1.3717,1.3609,1.3355,1.3127,1.2888,1.2563,1.2161,1.1681,1.1448,1.1012,1.0102,0.9617,0.9384,0.9098,0.8626,0.8196,0.7965,0.7707,0.7458,0.7266,0.7008,0.6828,0.6566,0.6365,0.6154,0.5886,0.5818,0.5791,0.5794,0.5657,0.5521,0.5427,0.527,0.494,2.0183,2.0601,2.0469,2.0775,2.1389,2.2047,2.2627,2.3114,2.3114,2.3376,2.3893,2.4281,2.4726,2.5142,2.5581,2.6071,2.6475,2.6635,2.7177,2.7968,2.8181,2.8216,2.8175,2.8164,2.7809,2.7155,2.7089,2.6781,2.624,2.6063,2.5319,2.3923,2.265,2.1649,2.1089,2.0563,2.0308,2.0245,1.9888,1.9314,1.8637,1.895,1.9167,1.9265,1.934,1.9411,1.9346,1.9061,1.8911,1.887,1.9212,1.942,1.942,1.9548,1.9547,1.9454,1.9204,1.8875,1.8428,1.8048,1.789,1.7968,1.7996,1.8066,1.7995,1.6302,1.4999,1.5041,1.5084,1.5058,1.5064,1.4977,1.4902,1.4902,1.487,1.4948,1.4851,1.4832,1.4757,1.4648,1.4517,1.4447,1.4291,1.4073,1.3903,1.3712,1.3609,1.3341,1.2927,1.2858,1.2305,1.1448,1.0764,1.0316,1.0266,0.9843,0.9374,0.8986,0.8622,0.8274,0.7907,0.7707,0.7483,0.7144,0.6829,0.6549,0.6146,0.5965,0.5913,0.5864,0.5861,0.5867,0.5815,0.5789,0.5593,2.171,2.1719,2.1451,2.16,2.2086,2.267,2.3144,2.3403,2.3479,2.3577,2.3893,2.4554,2.4841,2.5067,2.6115,2.6709,2.6776,2.7338,2.7512,2.7555,2.8025,2.821,2.8017,2.8007,2.7556,2.6833,2.6767,2.6417,2.5703,2.5106,2.4164,2.297,2.2264,2.1813,2.1642,2.1362,2.1153,2.1,2.0835,2.0375,1.9672,1.9516,1.9628,1.9993,1.9849,1.9662,1.9566,1.9942,2.0131,1.9987,2.0435,2.072,2.072,2.0738,2.062,2.0281,2.0265,2.0058,1.9662,1.9189,1.8843,1.8866,1.849,1.8259,1.8281,1.8003,1.7806,1.7726,1.7616,1.7364,1.7521,1.7304,1.7175,1.7047,1.6995,1.7103,1.6942,1.6979,1.6746,1.6256,1.6063,1.5994,1.5463,1.5002,1.4559,1.411,1.3957,1.3823,1.3651,1.358,1.3533,1.3075,1.2135,1.1034,1.0601,1.0367,1.0068,0.9628,0.9454,0.9149,0.8751,0.8389,0.8051,0.7835,0.7286,0.6783,0.6551,0.6291,0.5937,0.5913,0.5951,0.5929,0.5878,0.5875,0.5748,2.2289,2.2581,2.2451,2.2717,2.327,2.3565,2.3707,2.3837,2.3845,2.3885,2.4049,2.4696,2.4957,2.5102,2.6282,2.6812,2.6812,2.7046,2.7358,2.7561,2.7852,2.786,2.7839,2.7829,2.7433,2.6836,2.6779,2.6616,2.6147,2.5266,2.4239,2.3183,2.253,2.2107,2.1839,2.1749,2.1621,2.1548,2.1425,2.1183,2.0773,2.0463,2.0393,2.0568,2.0619,2.0591,2.0543,2.0807,2.0946,2.0927,2.1368,2.1668,2.1668,2.1668,2.1454,2.1031,2.0376,2.0005,1.9981,1.983,1.9831,1.9943,1.9743,1.9639,1.9631,1.9493,1.943,1.9347,1.8617,1.8052,1.8103,1.8043,1.7968,1.7821,1.7747,1.7665,1.7568,1.7565,1.7373,1.7218,1.7081,1.6787,1.6237,1.5689,1.5228,1.4921,1.4863,1.468,1.4489,1.433,1.4137,1.3821,1.3116,1.2469,1.184,1.1156,1.0793,1.0509,1.0064,0.9609,0.9488,0.9079,0.8673,0.8432,0.7771,0.7223,0.6953,0.6511,0.6128,0.6093,0.6041,0.6025,0.6027,0.6,0.5967,2.3021,2.3386,2.34,2.3632,2.4064,2.4121,2.417,2.4218,2.4321,2.4283,2.44,2.5105,2.544,2.5552,2.6414,2.6887,2.7027,2.7067,2.7246,2.7512,2.7552,2.7513,2.7464,2.7464,2.7231,2.687,2.6802,2.6627,2.6235,2.5414,2.4335,2.334,2.2842,2.2432,2.2123,2.2074,2.2034,2.1864,2.1798,2.1668,2.1514,2.1442,2.1321,2.1177,2.1291,2.1411,2.1559,2.1819,2.1927,2.1978,2.2491,2.2798,2.2789,2.2789,2.2482,2.1773,2.0848,2.0288,2.0315,2.0393,2.0523,2.0653,2.0669,2.0669,2.0645,2.0539,2.0474,2.0389,1.9456,1.8865,1.8691,1.8696,1.8561,1.8439,1.8424,1.8363,1.826,1.8179,1.8156,1.7962,1.7792,1.7437,1.6784,1.6237,1.58,1.5648,1.5614,1.5497,1.5193,1.5005,1.4802,1.4412,1.4187,1.3636,1.2917,1.2218,1.1677,1.1215,1.0705,1.0389,1.011,0.9594,0.9216,0.8964,0.838,0.7814,0.7382,0.693,0.6414,0.6267,0.6214,0.6168,0.6115,0.6076,0.6044,2.4199,2.4245,2.4137,2.4113,2.415,2.4267,2.443,2.4584,2.4746,2.4828,2.5041,2.5975,2.6413,2.6309,2.6853,2.7221,2.76,2.7623,2.7494,2.724,2.7212,2.702,2.6821,2.6812,2.684,2.6925,2.6935,2.6319,2.5182,2.497,2.4229,2.3094,2.2968,2.2789,2.2497,2.2448,2.2277,2.1961,2.1961,2.192,2.1952,2.2424,2.2388,2.183,2.1695,2.1998,2.2513,2.3035,2.3273,2.3282,2.3775,2.4164,2.4183,2.4111,2.3573,2.2628,2.1946,2.1369,2.0898,2.0861,2.0885,2.0901,2.0901,2.0901,2.0893,2.0853,2.0828,2.0861,2.0515,2.0244,1.997,1.9699,1.9629,1.9581,1.9624,1.9543,1.9374,1.9258,1.912,1.8611,1.8392,1.7924,1.7041,1.6672,1.63,1.5972,1.5737,1.5621,1.5586,1.5552,1.5483,1.538,1.5009,1.4408,1.3228,1.2737,1.2429,1.1931,1.1488,1.125,1.0648,1.0078,0.9781,0.9395,0.8867,0.8333,0.7844,0.7358,0.6923,0.6649,0.6512,0.6432,0.6427,0.6229,0.616,2.4788,2.478,2.4779,2.4754,2.4763,2.4828,2.4829,2.4949,2.5014,2.5304,2.5737,2.6181,2.675,2.7496,2.7686,2.7831,2.7925,2.7887,2.7812,2.767,2.767,2.7632,2.7566,2.7556,2.7556,2.7547,2.7556,2.6893,2.5727,2.55,2.4709,2.3505,2.3219,2.3041,2.2846,2.2805,2.2683,2.2506,2.2678,2.279,2.2722,2.316,2.3456,2.3532,2.3321,2.3188,2.3287,2.3748,2.3993,2.3993,2.4205,2.4311,2.4258,2.394,2.3408,2.2663,2.2023,2.1486,2.1118,2.1027,2.1075,2.1227,2.1083,2.1035,2.101,2.0983,2.0901,2.0893,2.0861,2.0739,2.0564,2.0304,2.0085,1.9987,1.9963,1.9898,1.9743,1.9687,1.9521,1.9151,1.8783,1.821,1.7566,1.7069,1.6595,1.6143,1.5954,1.592,1.59,1.5845,1.5778,1.5757,1.5502,1.4973,1.3879,1.3343,1.2944,1.2423,1.1916,1.1489,1.0924,1.0357,1.0011,0.953,0.9099,0.8777,0.8289,0.788,0.7431,0.7064,0.6923,0.6936,0.6878,0.6688,0.6492,2.508,2.508,2.508,2.508,2.5088,2.5145,2.5161,2.5234,2.5477,2.5891,2.6401,2.6729,2.7477,2.8232,2.8434,2.8448,2.8354,2.8275,2.8133,2.801,2.8001,2.8001,2.8001,2.8001,2.8001,2.7991,2.8001,2.7326,2.615,2.5904,2.5102,2.3759,2.352,2.3349,2.3187,2.3114,2.3051,2.3173,2.3456,2.3553,2.3705,2.4213,2.4535,2.4729,2.4697,2.4541,2.4292,2.4578,2.4665,2.4719,2.4719,2.4719,2.4665,2.4341,2.3737,2.3034,2.2618,2.2063,2.1469,2.1384,2.1441,2.1538,2.14,2.1303,2.1287,2.1186,2.1097,2.1072,2.0962,2.0999,2.0942,2.0669,2.0426,2.0315,2.019,2.0076,1.9914,1.9873,1.9792,1.9571,1.9151,1.8558,1.7881,1.7446,1.6871,1.6182,1.6133,1.6133,1.6062,1.6001,1.5976,1.592,1.5663,1.5126,1.4311,1.3736,1.3205,1.2618,1.2149,1.1697,1.1196,1.0656,1.0142,0.9662,0.9354,0.9078,0.8732,0.8367,0.8004,0.7642,0.7543,0.7541,0.738,0.7168,0.6957,2.5096,2.5112,2.5088,2.5136,2.5242,2.5453,2.5486,2.5665,2.6387,2.6782,2.7094,2.7983,2.8449,2.8635,2.9041,2.9193,2.9052,2.8813,2.8454,2.8123,2.8086,2.8067,2.8057,2.8095,2.8123,2.8133,2.8057,2.7372,2.6239,2.6151,2.55,2.434,2.3992,2.3812,2.3528,2.3494,2.3603,2.3935,2.4112,2.438,2.4918,2.5423,2.5591,2.5365,2.5749,2.5799,2.5478,2.5412,2.5392,2.5421,2.543,2.5487,2.5402,2.5346,2.4892,2.3834,2.3599,2.3065,2.2064,2.1823,2.1847,2.1855,2.1749,2.1636,2.1603,2.149,2.1384,2.1398,2.1238,2.114,2.1108,2.0945,2.0804,2.0604,2.0418,2.0255,2.0117,2.0112,2.0047,1.9808,1.9529,1.9015,1.8224,1.7764,1.7298,1.6443,1.6137,1.6144,1.6151,1.606,1.6033,1.5947,1.5572,1.4943,1.4514,1.4027,1.341,1.282,1.2306,1.1868,1.1311,1.0812,1.0232,0.9832,0.9667,0.9388,0.8987,0.8669,0.8496,0.822,0.8211,0.8169,0.795,0.7735,0.7307,2.551,2.5526,2.564,2.5688,2.5771,2.6406,2.6747,2.6813,2.7546,2.8105,2.8544,2.8964,2.9326,2.9657,2.9835,2.973,2.9475,2.9314,2.9049,2.87,2.858,2.8558,2.8473,2.8577,2.8719,2.8769,2.8851,2.8335,2.7433,2.7181,2.6432,2.5167,2.4751,2.4696,2.4559,2.4445,2.4562,2.4982,2.5318,2.549,2.559,2.6167,2.6395,2.635,2.6506,2.6488,2.6356,2.5818,2.5525,2.5525,2.5506,2.5506,2.5515,2.5506,2.4938,2.3876,2.3708,2.3156,2.2105,2.1944,2.1896,2.1928,2.1823,2.1855,2.1847,2.179,2.1693,2.1659,2.1522,2.1457,2.1311,2.1148,2.0929,2.0629,2.0547,2.0442,2.0271,2.0141,2.0104,2.003,1.9817,1.9256,1.843,1.8058,1.7524,1.6563,1.6361,1.6368,1.631,1.5977,1.5738,1.5753,1.5202,1.4748,1.4312,1.3818,1.3273,1.2704,1.2251,1.1808,1.1299,1.0808,1.0269,0.9986,0.9871,0.9636,0.9231,0.907,0.8942,0.8923,0.8984,0.8842,0.86,0.8225,0.7705,2.5875,2.595,2.6247,2.643,2.6505,2.7358,2.7677,2.7811,2.8481,2.9008,2.9342,2.9676,3.002,3.024,3.0287,3.0108,2.9815,2.9796,2.9569,2.921,2.9014,2.891,2.8879,2.892,2.9052,2.9156,2.9184,2.8799,2.8032,2.7895,2.7226,2.6089,2.5783,2.5654,2.5577,2.5405,2.5538,2.6013,2.6277,2.6501,2.6648,2.7038,2.7141,2.7018,2.6989,2.6904,2.6802,2.6224,2.5969,2.5969,2.5969,2.5969,2.5969,2.5988,2.542,2.4334,2.3976,2.3513,2.2318,2.2156,2.2131,2.2131,2.2074,2.2034,2.2017,2.1985,2.1871,2.179,2.1684,2.1667,2.149,2.1327,2.11,2.0832,2.0734,2.0621,2.0442,2.0271,2.0174,2.0074,1.979,1.919,1.8553,1.7924,1.7552,1.6728,1.6517,1.637,1.6204,1.5832,1.5667,1.5322,1.4806,1.4398,1.4036,1.3586,1.3119,1.26,1.2084,1.1621,1.1153,1.0615,1.0074,0.9971,0.9846,0.9846,0.9494,0.9609,0.9593,0.968,0.9558,0.9326,0.8986,0.8469,0.795,2.6335,2.641,2.7082,2.7417,2.7493,2.8199,2.8561,2.8601,2.9205,2.9558,2.974,3.0246,3.0476,3.0514,3.0505,3.0372,3.0212,3.0165,3.0032,2.9635,2.9437,2.925,2.9248,2.9193,2.9231,2.9333,2.9269,2.8901,2.8425,2.8397,2.7803,2.7016,2.6785,2.6617,2.6441,2.6239,2.6502,2.7001,2.7035,2.7304,2.7854,2.7934,2.7783,2.7424,2.7405,2.7323,2.7039,2.6897,2.6821,2.6802,2.6707,2.6688,2.6774,2.6812,2.6059,2.4676,2.4595,2.3853,2.2876,2.2456,2.2456,2.244,2.2302,2.2204,2.2196,2.2107,2.1953,2.1953,2.1823,2.1765,2.166,2.1514,2.1319,2.1148,2.0937,2.0767,2.0629,2.0458,2.0333,2.0164,1.9672,1.8993,1.8425,1.7792,1.7221,1.6739,1.654,1.6252,1.593,1.5616,1.5327,1.4865,1.4323,1.3876,1.3507,1.301,1.2543,1.2112,1.1738,1.1395,1.0951,1.045,1.0087,0.9983,0.9923,0.9923,0.9884,0.996,0.9948,0.9863,0.9752,0.9593,0.9161,0.8565,0.7995,2.782,2.7829,2.816,2.8356,2.8441,2.9241,2.9575,2.9652,3.033,3.0573,3.0669,3.0813,3.0845,3.0722,3.0713,3.0599,3.0448,3.041,3.0278,3.0042,2.9966,2.9739,2.9531,2.9494,2.9569,2.9673,2.9683,2.9571,2.9235,2.9162,2.8719,2.7885,2.7822,2.7695,2.7506,2.7298,2.7446,2.7857,2.783,2.7784,2.7968,2.8029,2.7953,2.7868,2.783,2.7774,2.7651,2.7528,2.7207,2.6849,2.6812,2.6812,2.684,2.684,2.6235,2.5175,2.4806,2.4261,2.3189,2.2724,2.2659,2.2643,2.2497,2.2457,2.2399,2.2359,2.2261,2.2164,2.2066,2.1993,2.1863,2.1693,2.1514,2.1319,2.1146,2.0934,2.0853,2.0804,2.0563,2.0012,1.973,1.9076,1.8305,1.7777,1.7377,1.6908,1.6484,1.6106,1.5722,1.5185,1.4734,1.4331,1.378,1.3309,1.2907,1.2403,1.1945,1.1533,1.1281,1.1179,1.0822,1.0423,1.023,1.013,1.0053,1.0045,1.0074,1.0106,1.0114,1.0001,0.9684,0.9363,0.8943,0.839,0.7831,2.8593,2.867,2.9047,2.9227,2.938,3.0101,3.0487,3.0565,3.0905,3.111,3.111,3.111,3.1043,3.0939,3.093,3.0817,3.0637,3.0618,3.0505,3.0335,3.0297,3.0108,2.9909,2.99,2.9976,2.9985,2.9994,2.9881,2.973,2.9692,2.9385,2.8903,2.8801,2.869,2.8423,2.8385,2.8381,2.8593,2.8577,2.8492,2.8407,2.8397,2.8275,2.819,2.8133,2.8104,2.8001,2.7878,2.7604,2.7295,2.7134,2.7077,2.7077,2.7077,2.6567,2.5498,2.5185,2.456,2.3649,2.3071,2.2846,2.2805,2.2675,2.2594,2.2553,2.2521,2.2399,2.2326,2.2245,2.2147,2.2042,2.1879,2.1741,2.1628,2.1425,2.1213,2.101,2.0682,2.0388,1.9928,1.941,1.8962,1.8063,1.7791,1.7367,1.6882,1.6452,1.5957,1.5456,1.4727,1.415,1.3727,1.3333,1.2852,1.2402,1.1954,1.1672,1.1197,1.0921,1.0869,1.0642,1.0376,1.0256,1.0208,1.0216,1.0224,1.0236,1.0183,0.9976,0.9778,0.9454,0.9022,0.8511,0.818,0.7604,2.9132,2.9192,2.9806,3.0147,3.0206,3.0837,3.1042,3.1042,3.1042,3.111,3.111,3.111,3.11,3.111,3.1072,3.0996,3.0826,3.0826,3.0694,3.0571,3.0505,3.041,3.0278,3.0325,3.0316,3.0221,3.0212,3.0117,2.9994,2.9938,2.9815,2.9618,2.9561,2.9484,2.9186,2.9203,2.9203,2.9118,2.9052,2.9021,2.8917,2.8826,2.8694,2.8477,2.8426,2.835,2.8199,2.8076,2.7925,2.7764,2.7556,2.7462,2.7443,2.7443,2.7049,2.6364,2.5731,2.5056,2.4172,2.3479,2.3084,2.3059,2.2854,2.2732,2.2692,2.2586,2.2497,2.244,2.231,2.2229,2.2156,2.2042,2.1944,2.1823,2.1815,2.1557,2.11,2.0511,2.0069,1.9808,1.8894,1.8402,1.8065,1.7688,1.7082,1.6702,1.6241,1.5575,1.5016,1.4372,1.3742,1.3205,1.2795,1.2423,1.1932,1.1492,1.1263,1.1023,1.0745,1.0599,1.052,1.0314,1.0306,1.0273,1.0314,1.0318,1.0298,1.0171,0.9884,0.9519,0.916,0.8612,0.8063,0.7796,0.7317,3.0633,3.0633,3.0769,3.0837,3.0905,3.1051,3.111,3.111,3.111,3.111,3.111,3.111,3.111,3.111,3.111,3.1081,3.1025,3.1015,3.093,3.075,3.0732,3.0713,3.0628,3.059,3.0476,3.042,3.042,3.0391,3.0325,3.0174,3.0089,3.0032,2.9881,2.9711,2.9541,2.9522,2.9409,2.9222,2.9193,2.9248,2.9137,2.9118,2.9061,2.892,2.8797,2.8722,2.8618,2.8364,2.8237,2.8152,2.801,2.7887,2.783,2.783,2.7432,2.68,2.6452,2.5768,2.4692,2.4129,2.3739,2.3306,2.31,2.2878,2.2732,2.27,2.2602,2.2513,2.2489,2.235,2.2229,2.2172,2.2034,2.184,2.151,2.1173,2.096,2.0748,2.0042,1.9158,1.8643,1.826,1.7669,1.7183,1.669,1.6388,1.5836,1.517,1.4548,1.3933,1.3304,1.2677,1.2258,1.1842,1.1514,1.118,1.106,1.0926,1.0707,1.0539,1.0461,1.042,1.0416,1.042,1.0436,1.0366,1.0268,0.9964,0.9633,0.9269,0.8844,0.8286,0.7737,0.7424,0.7205,3.111,3.111,3.111,3.111,3.111,3.111,3.111,3.111,3.111,3.111,3.111,3.111,3.111,3.111,3.111,3.111,3.111,3.111,3.1062,3.0958,3.0949,3.0949,3.0939,3.0836,3.075,3.0656,3.0637,3.0599,3.0476,3.0391,3.0316,3.0316,3.0212,3.007,2.9881,2.9843,2.9749,2.9598,2.9531,2.9503,2.9418,2.9399,2.9259,2.9193,2.9071,2.9024,2.8976,2.8889,2.8656,2.8605,2.8501,2.8284,2.8048,2.8001,2.7751,2.738,2.6907,2.6512,2.5666,2.4897,2.4314,2.3862,2.3398,2.3157,2.2968,2.2911,2.2822,2.2724,2.2635,2.2513,2.235,2.2318,2.2204,2.1764,2.1439,2.1002,2.0456,2.0143,1.9834,1.8927,1.8516,1.8005,1.7422,1.685,1.6264,1.5973,1.5554,1.4877,1.3961,1.3385,1.2807,1.2241,1.1713,1.1306,1.1031,1.0858,1.0845,1.081,1.0763,1.0708,1.0675,1.0596,1.0583,1.0555,1.0514,1.0209,1.0015,0.972,0.9295,0.8675,0.8182,0.7758,0.7489,0.7259,0.7087,3.111,3.111,3.111,3.111,3.111,3.111,3.111,3.111,3.111,3.111,3.111,3.111,3.111,3.111,3.111,3.111,3.111,3.111,3.1091,3.1081,3.1072,3.1081,3.1072,3.1043,3.0987,3.0854,3.0845,3.075,3.0656,3.0552,3.0533,3.0533,3.0486,3.0344,3.0231,3.0212,3.0127,2.9985,2.9957,2.9872,2.972,2.9683,2.9588,2.9427,2.9324,2.9295,2.9276,2.9137,2.9071,2.8939,2.8929,2.8681,2.8312,2.8095,2.8067,2.8005,2.7557,2.7078,2.6487,2.5729,2.5026,2.4656,2.3947,2.3464,2.3271,2.3106,2.3016,2.2935,2.2838,2.2658,2.2454,2.2338,2.2048,2.1553,2.1372,2.0702,1.9821,1.927,1.8944,1.8768,1.8201,1.7672,1.7199,1.6652,1.6064,1.5521,1.5095,1.4531,1.3617,1.2897,1.2346,1.1974,1.1521,1.1202,1.0966,1.0914,1.0784,1.0767,1.0775,1.0815,1.0807,1.0762,1.0661,1.0604,1.0504,1.0218,0.9894,0.9591,0.8979,0.8123,0.7694,0.7503,0.7275,0.703,0.7036,3.111,3.111,3.111,3.111,3.1119,3.1119,3.1128,3.111,3.1147,3.1119,3.1119,3.1119,3.1128,3.1128,3.1119,3.1119,3.1166,3.1185,3.1166,3.1166,3.1166,3.1166,3.1185,3.1195,3.1128,3.1081,3.1072,3.1053,3.0939,3.0845,3.075,3.0713,3.0609,3.0486,3.0467,3.0439,3.041,3.0316,3.0306,3.0221,3.0089,3.0004,2.9928,2.973,2.9598,2.9522,2.9475,2.9352,2.9156,2.9137,2.9127,2.8976,2.8722,2.8586,2.8426,2.8241,2.808,2.7739,2.7053,2.6636,2.5816,2.5052,2.4431,2.3955,2.3548,2.3295,2.3163,2.3049,2.2933,2.2692,2.2146,2.2032,2.1777,2.1224,2.0658,2.016,1.9636,1.8885,1.8081,1.7842,1.7573,1.7312,1.6777,1.6288,1.5733,1.5084,1.4539,1.4063,1.3384,1.2677,1.2085,1.1716,1.141,1.1187,1.0971,1.0951,1.0951,1.0918,1.0902,1.0861,1.0841,1.0835,1.073,1.0603,1.0472,1.0293,0.9909,0.9413,0.876,0.7977,0.7646,0.7312,0.7259,0.7147,0.7147,3.111,3.111,3.111,3.1176,3.1261,3.127,3.1336,3.1431,3.144,3.1306,3.1299,3.127,3.127,3.127,3.127,3.1327,3.1412,3.144,3.144,3.144,3.1431,3.144,3.1421,3.1431,3.144,3.144,3.1431,3.1299,3.1128,3.1015,3.0968,3.0939,3.0845,3.0769,3.0675,3.0647,3.059,3.0533,3.0495,3.0458,3.0325,3.025,3.0108,3.0004,2.9843,2.9739,2.9711,2.9645,2.9513,2.9437,2.9409,2.9295,2.9116,2.8854,2.87,2.8467,2.8411,2.8254,2.7705,2.7311,2.6694,2.6,2.5225,2.4551,2.4079,2.3756,2.3325,2.3127,2.2714,2.2497,2.2047,2.1715,2.1227,2.0672,2.02,1.9692,1.9081,1.8372,1.7708,1.7021,1.6962,1.676,1.6299,1.5807,1.531,1.473,1.4109,1.3543,1.3044,1.2424,1.1807,1.1512,1.1282,1.1172,1.1008,1.1008,1.1012,1.1049,1.1012,1.0975,1.0886,1.0837,1.0611,1.0389,1.0305,1.0015,0.9573,0.8956,0.8422,0.7935,0.7596,0.731,0.7321,0.7324,0.7256,3.111,3.1119,3.1157,3.127,3.1403,3.1469,3.1573,3.1714,3.1724,3.156,3.1497,3.1478,3.1478,3.1478,3.1497,3.1573,3.1733,3.1714,3.1705,3.1626,3.1626,3.1724,3.1733,3.1733,3.1695,3.1658,3.1677,3.1494,3.1355,3.127,3.1223,3.1176,3.1176,3.1072,3.0902,3.0864,3.0741,3.0675,3.0618,3.0609,3.0514,3.0363,3.0231,3.0212,3.0042,2.9928,2.9994,2.9843,2.9758,2.9664,2.9607,2.9541,2.9324,2.9099,2.8974,2.8775,2.8681,2.853,2.8301,2.7931,2.7387,2.689,2.5782,2.5145,2.465,2.4099,2.3528,2.3338,2.2778,2.226,2.1928,2.1339,2.0743,2.0193,1.9821,1.9415,1.8635,1.7889,1.7251,1.6744,1.653,1.6215,1.5831,1.5509,1.5066,1.4428,1.3857,1.3155,1.264,1.2108,1.1593,1.1287,1.1168,1.1168,1.1118,1.1131,1.1139,1.1139,1.1102,1.1057,1.0983,1.0849,1.0559,1.014,0.9572,0.9239,0.886,0.8593,0.8151,0.7827,0.7515,0.7404,0.7382,0.7319,0.7259,3.111,3.1128,3.1308,3.1393,3.145,3.1629,3.1714,3.1752,3.1771,3.1724,3.1626,3.1695,3.1626,3.1636,3.1714,3.1664,3.1692,3.179,3.1809,3.1818,3.1809,3.1809,3.1762,3.1733,3.1809,3.1828,3.1799,3.1654,3.1648,3.1639,3.1535,3.1412,3.1365,3.1289,3.1138,3.1128,3.1062,3.1043,3.1025,3.0939,3.076,3.0561,3.0467,3.0401,3.0269,3.0117,3.0145,2.9985,2.9862,2.9899,2.988,2.9795,2.9569,2.9522,2.938,2.9135,2.8807,2.8605,2.8514,2.8295,2.7872,2.7337,2.6362,2.5658,2.4888,2.4237,2.3755,2.3686,2.3003,2.2228,2.1646,2.1042,2.0391,1.9777,1.9213,1.8873,1.8246,1.75,1.6804,1.6398,1.6129,1.577,1.5431,1.5145,1.4824,1.4179,1.3591,1.2945,1.2308,1.1841,1.1549,1.1378,1.1261,1.1261,1.1241,1.1245,1.1229,1.1237,1.1188,1.1147,1.0904,1.0653,1.0265,0.9833,0.9165,0.8647,0.8387,0.8169,0.7931,0.7716,0.7458,0.7387,0.7354,0.7302,0.7209,3.1185,3.1299,3.1384,3.1554,3.1771,3.1875,3.1979,3.2073,3.2092,3.2017,3.1852,3.1913,3.1903,3.1922,3.2026,3.2092,3.2092,3.2073,3.2083,3.2073,3.2073,3.2073,3.2102,3.2092,3.2092,3.2064,3.2092,3.2121,3.2036,3.1847,3.1598,3.162,3.1592,3.1504,3.15,3.1459,3.1393,3.1289,3.1176,3.1072,3.0949,3.0788,3.0665,3.0647,3.0458,3.0316,3.0183,3.0108,2.9976,2.9975,2.9937,2.9909,2.973,2.9645,2.9513,2.9437,2.9153,2.8873,2.875,2.8719,2.8239,2.7529,2.6619,2.5726,2.4821,2.4192,2.3766,2.3389,2.2781,2.2015,2.1261,2.0574,1.9901,1.9238,1.8773,1.8127,1.7666,1.7157,1.6522,1.6119,1.5778,1.5581,1.5396,1.5314,1.4867,1.3951,1.3424,1.2896,1.2318,1.1742,1.1564,1.1504,1.1504,1.1504,1.1416,1.14,1.1351,1.1339,1.1278,1.1128,1.0704,1.0386,1.0022,0.9492,0.8853,0.8385,0.7978,0.7781,0.7648,0.7552,0.7461,0.7444,0.7431,0.7336,0.7122,3.1856,3.197,3.1635,3.1705,3.1966,3.2092,3.2206,3.2418,3.2418,3.2262,3.2159,3.2121,3.2121,3.2149,3.2262,3.239,3.2418,3.2437,3.2437,3.2437,3.2437,3.2409,3.231,3.2338,3.2338,3.2437,3.2371,3.231,3.2234,3.2083,3.1913,3.1818,3.2087,3.2039,3.2011,3.1973,3.1887,3.1497,3.1308,3.1214,3.1147,3.0987,3.0892,3.0817,3.0675,3.0495,3.0344,3.0249,3.007,2.9994,2.9956,2.9927,2.989,2.9739,2.9673,2.9616,2.9465,2.9324,2.9163,2.8967,2.8528,2.7703,2.6636,2.5534,2.4554,2.4108,2.3757,2.3262,2.2317,2.1625,2.0943,2.0237,1.9526,1.8981,1.8438,1.7666,1.7024,1.6633,1.6338,1.6038,1.5767,1.5751,1.563,1.5587,1.4921,1.3846,1.3242,1.2827,1.2288,1.1696,1.1615,1.1539,1.1591,1.1591,1.1519,1.1498,1.147,1.1441,1.138,1.1065,1.0652,1.0183,0.9711,0.9117,0.8514,0.8172,0.7814,0.7643,0.7421,0.7491,0.7502,0.7518,0.7465,0.7366,0.6951,3.357,3.3574,3.2269,3.1847,3.2064,3.2262,3.2418,3.2437,3.2437,3.2418,3.231,3.2399,3.238,3.2399,3.2338,3.2437,3.2437,3.2437,3.2437,3.2437,3.2437,3.2437,3.2437,3.2437,3.2437,3.2437,3.2437,3.2437,3.2428,3.2371,3.2149,3.2115,3.2656,3.2879,3.2871,3.2713,3.2406,3.1865,3.1547,3.1365,3.1308,3.1185,3.1072,3.1025,3.0892,3.076,3.0722,3.042,3.0249,3.0127,2.9994,2.9881,2.9862,2.9824,2.9861,2.9842,2.9758,2.9626,2.9494,2.9241,2.8679,2.7786,2.6524,2.5387,2.4645,2.3755,2.3387,2.3114,2.2109,2.1267,2.0658,2.0016,1.9313,1.8572,1.7965,1.7385,1.6738,1.6345,1.6048,1.5904,1.5821,1.5832,1.58,1.569,1.4997,1.3903,1.2974,1.2556,1.2172,1.1685,1.1604,1.1592,1.164,1.1636,1.1632,1.1559,1.1555,1.1539,1.1498,1.108,1.0554,1.0079,0.9573,0.8801,0.8191,0.7918,0.7684,0.7613,0.7502,0.7484,0.7545,0.7575,0.7288,0.7053,0.6573,3.3818,3.4072,3.3526,3.3156,3.2948,3.3035,3.2791,3.2437,3.2437,3.2437,3.2437,3.2437,3.2437,3.2437,3.2437,3.2437,3.2437,3.2437,3.2437,3.2437,3.2437,3.2437,3.2437,3.2437,3.2437,3.2437,3.2437,3.2437,3.2437,3.2437,3.2762,3.2958,3.3342,3.3613,3.3654,3.3376,3.2909,3.2454,3.1818,3.1421,3.1374,3.1223,3.111,3.11,3.1072,3.0911,3.0788,3.0656,3.0429,3.0231,3.0108,2.9994,2.99,2.9881,2.9937,2.9937,2.9937,2.989,2.9739,2.9486,2.8838,2.742,2.6151,2.5017,2.4691,2.3969,2.3314,2.2765,2.1972,2.1132,1.9928,1.9476,1.8949,1.8143,1.7426,1.6971,1.6569,1.6167,1.6005,1.5929,1.5934,1.5951,1.5902,1.5853,1.4893,1.3954,1.3078,1.2331,1.1949,1.1698,1.1686,1.1682,1.1678,1.169,1.169,1.1674,1.1649,1.1629,1.1608,1.1066,1.046,0.9999,0.9441,0.8616,0.8026,0.7845,0.7711,0.7676,0.7646,0.7624,0.7632,0.7654,0.7293,0.6861,0.6315,3.4671,3.497,3.5053,3.4616,3.3841,3.3559,3.3206,3.272,3.2508,3.2437,3.2437,3.2437,3.2437,3.2437,3.2437,3.2437,3.2437,3.2437,3.2437,3.2437,3.2437,3.2437,3.2437,3.2437,3.2437,3.2437,3.2437,3.2437,3.2437,3.2579,3.3125,3.369,3.4053,3.4526,3.4556,3.4124,3.3534,3.3096,3.2236,3.1554,3.1516,3.1327,3.1157,3.1138,3.11,3.1043,3.0911,3.0788,3.0637,3.042,3.025,3.0108,2.9994,2.9909,2.9946,2.9937,2.9937,2.9937,2.9824,2.9154,2.8534,2.734,2.589,2.5094,2.4525,2.3896,2.3032,2.2382,2.1647,2.0752,1.9443,1.9115,1.8597,1.7734,1.7161,1.6702,1.6447,1.6157,1.6119,1.607,1.6076,1.6054,1.5908,1.5719,1.4934,1.398,1.3194,1.2452,1.1967,1.1784,1.1792,1.1792,1.1796,1.1808,1.1825,1.1784,1.1747,1.1735,1.1532,1.0897,1.0397,0.9945,0.9219,0.834,0.7917,0.7771,0.7769,0.7771,0.7744,0.7709,0.7711,0.7706,0.7452,0.7077,0.6487,3.642,3.6463,3.6689,3.5943,3.4617,3.3841,3.3488,3.3276,3.272,3.2437,3.2437,3.2437,3.2437,3.2437,3.2466,3.2485,3.2494,3.2494,3.2513,3.2532,3.2489,3.2494,3.2466,3.2475,3.2475,3.2437,3.2437,3.2437,3.2437,3.2994,3.37,3.4546,3.504,3.5532,3.5602,3.4969,3.4255,3.352,3.2584,3.2024,3.1677,3.1478,3.1299,3.1147,3.111,3.1081,3.1034,3.0921,3.0788,3.0656,3.0401,3.0259,3.0174,2.9994,2.9928,2.9909,2.9881,2.9872,2.9787,2.8429,2.7764,2.733,2.601,2.4951,2.4193,2.3377,2.2687,2.2103,2.1257,2.0339,1.9528,1.8943,1.823,1.7495,1.6847,1.6571,1.6378,1.6282,1.625,1.6233,1.6168,1.6051,1.5858,1.5571,1.4841,1.401,1.3263,1.2635,1.205,1.1886,1.1902,1.1906,1.1915,1.1911,1.1915,1.1874,1.1841,1.1772,1.1587,1.1027,1.0463,1.002,0.9167,0.819,0.7858,0.7831,0.7858,0.7886,0.7848,0.7807,0.7755,0.7678,0.7544,0.7308,0.6784,3.7026,3.6759,3.6845,3.6597,3.6035,3.5251,3.4406,3.3488,3.2791,3.2437,3.2437,3.2437,3.2437,3.2466,3.2518,3.2565,3.2584,3.2754,3.2782,3.2763,3.2744,3.2678,3.2612,3.2537,3.2489,3.2466,3.2437,3.2437,3.2437,3.3206,3.3912,3.4687,3.5813,3.6456,3.6305,3.5743,3.4969,3.4224,3.3333,3.249,3.1812,3.1535,3.1327,3.1138,3.1119,3.111,3.1178,3.1073,3.093,3.0836,3.058,3.0495,3.0372,3.0193,3.008,3.0032,2.9985,2.9676,2.9143,2.8286,2.7754,2.7218,2.6268,2.499,2.4251,2.3472,2.2758,2.1947,2.1238,2.0262,1.9182,1.8901,1.8223,1.7111,1.6573,1.6509,1.6413,1.6413,1.6396,1.6391,1.6353,1.6277,1.6118,1.5829,1.5165,1.4312,1.357,1.2796,1.2125,1.2017,1.2033,1.2033,1.2033,1.2021,1.2004,1.1968,1.1959,1.1964,1.1739,1.1385,1.0805,1.0079,0.9197,0.8258,0.8045,0.7894,0.7918,0.7938,0.7938,0.7905,0.7861,0.7834,0.7778,0.7656,0.7355,3.7564,3.7287,3.7017,3.6877,3.6737,3.6024,3.4828,3.3559,3.272,3.2437,3.2447,3.2504,3.2541,3.2608,3.2669,3.2773,3.2792,3.2905,3.2981,3.299,3.2981,3.2886,3.2792,3.2697,3.2665,3.2541,3.2466,3.2437,3.2508,3.3427,3.4476,3.5532,3.6386,3.6737,3.6597,3.6024,3.5462,3.4727,3.3894,3.2985,3.2353,3.1856,3.1578,3.1466,3.1371,3.1178,3.1314,3.1227,3.1053,3.0921,3.0826,3.0741,3.0571,3.042,3.0297,3.0231,3.0108,2.9676,2.9,2.8244,2.7759,2.7282,2.614,2.5109,2.4218,2.3501,2.266,2.1908,2.1295,2.0434,1.9444,1.9101,1.8348,1.723,1.6736,1.6736,1.6585,1.6585,1.6467,1.6478,1.6462,1.6402,1.6364,1.6072,1.5692,1.473,1.3831,1.3043,1.2312,1.2186,1.2123,1.2119,1.2111,1.2086,1.2074,1.2062,1.2066,1.209,1.1855,1.1619,1.0765,1.0023,0.9145,0.8389,0.8182,0.7978,0.7976,0.7984,0.7997,0.8,0.7978,0.7962,0.7959,0.7881,0.7682,3.8046,3.7917,3.7217,3.6947,3.6737,3.5954,3.4828,3.3498,3.2711,3.2447,3.2395,3.2655,3.265,3.2716,3.2896,3.299,3.3018,3.3037,3.3075,3.3066,3.3122,3.3047,3.2943,3.2811,3.2697,3.2665,3.2551,3.2508,3.2579,3.3982,3.5391,3.6386,3.6737,3.6877,3.6667,3.6305,3.5813,3.523,3.4566,3.3714,3.3167,3.2425,3.2332,3.2207,3.1828,3.1683,3.1654,3.1508,3.1168,3.1025,3.093,3.0845,3.0741,3.0609,3.0543,3.0429,3.0269,2.9683,2.8975,2.8132,2.7386,2.6793,2.6166,2.4955,2.416,2.3528,2.2813,2.1984,2.1294,2.0684,2.0025,1.9433,1.877,1.7913,1.7202,1.6986,1.6824,1.6651,1.6521,1.6494,1.6478,1.6451,1.644,1.628,1.5855,1.4907,1.3992,1.3325,1.2652,1.2243,1.218,1.2176,1.216,1.2139,1.2135,1.216,1.2172,1.22,1.2109,1.1797,1.0875,0.9979,0.9276,0.8706,0.8263,0.806,0.8036,0.8044,0.8074,0.8071,0.8071,0.8049,0.8033,0.8006,0.7862,3.8965,3.7976,3.7766,3.7357,3.6737,3.5462,3.4617,3.4123,3.3003,3.2504,3.2584,3.264,3.2754,3.2905,3.3104,3.3179,3.3255,3.334,3.3415,3.3415,3.3359,3.3302,3.317,3.2981,3.2829,3.265,3.257,3.265,3.3418,3.4617,3.5813,3.6737,3.6877,3.6877,3.6807,3.6667,3.6245,3.5743,3.518,3.4636,3.4014,3.3377,3.3297,3.302,3.2315,3.2159,3.1993,3.1518,3.1178,3.1081,3.1053,3.1015,3.1006,3.0826,3.0675,3.0438,2.9954,2.926,2.8584,2.7873,2.7113,2.6406,2.5992,2.5373,2.4516,2.3787,2.3076,2.2242,2.149,2.0903,2.0449,1.9899,1.935,1.8766,1.8054,1.7558,1.7323,1.6997,1.6866,1.6581,1.6565,1.6505,1.65,1.6334,1.585,1.4917,1.4081,1.3405,1.2868,1.2453,1.2245,1.2241,1.2245,1.2233,1.2266,1.2294,1.2298,1.2298,1.2202,1.1868,1.0917,1.0076,0.9418,0.8831,0.8316,0.8104,0.8071,0.8096,0.8139,0.8158,0.8158,0.8194,0.8167,0.8074,0.8052,3.9802,3.8465,3.8116,3.7567,3.6737,3.5251,3.4617,3.4335,3.3003,3.2551,3.2731,3.2754,3.2905,3.3113,3.3311,3.3415,3.3425,3.35,3.3567,3.3567,3.3604,3.3519,3.3359,3.3122,3.2933,3.2735,3.2679,3.2791,3.3771,3.4969,3.6094,3.6807,3.6877,3.6877,3.6877,3.6807,3.6667,3.6235,3.5792,3.5369,3.4913,3.433,3.4017,3.3844,3.2987,3.244,3.2401,3.1654,3.1178,3.111,3.111,3.111,3.11,3.0968,3.0631,3.0347,2.9851,2.9017,2.8184,2.7627,2.6872,2.6271,2.6038,2.5674,2.5015,2.4193,2.3362,2.2466,2.1812,2.1202,2.0818,2.0376,1.9995,1.9616,1.891,1.8272,1.7881,1.7422,1.7123,1.6766,1.6646,1.6576,1.6468,1.6243,1.5764,1.4799,1.3967,1.3312,1.2856,1.2463,1.2323,1.2323,1.2335,1.2343,1.2376,1.2384,1.2372,1.2356,1.2339,1.1819,1.0884,1.0224,0.9612,0.8951,0.8241,0.8222,0.8274,0.8233,0.8266,0.8285,0.8235,0.8207,0.8238,0.8203,0.812,4.0486,3.9035,3.8267,3.7497,3.6737,3.5251,3.4617,3.4406,3.3103,3.2508,3.2716,3.2915,3.3122,3.3321,3.3491,3.3557,3.3557,3.3595,3.3604,3.3604,3.3604,3.3557,3.3406,3.3189,3.2952,3.2811,3.2907,3.3215,3.3982,3.518,3.6386,3.6877,3.6877,3.6877,3.6877,3.6877,3.6807,3.6667,3.6235,3.5842,3.5537,3.487,3.4226,3.4479,3.3517,3.243,3.2614,3.2061,3.111,3.111,3.111,3.111,3.11,3.1023,3.0664,3.0151,2.9742,2.8884,2.8019,2.7402,2.6905,2.6451,2.6224,2.6052,2.5455,2.4625,2.3783,2.2906,2.223,2.1634,2.1189,2.0917,2.0554,2.0191,1.9757,1.9067,1.8438,1.7891,1.7152,1.6853,1.6722,1.6598,1.6259,1.6044,1.5447,1.4551,1.3898,1.3258,1.2803,1.2485,1.2396,1.2392,1.2376,1.2384,1.2413,1.2421,1.2417,1.2405,1.2405,1.201,1.1249,1.0526,0.9862,0.9323,0.8853,0.8558,0.85,0.8449,0.8332,0.8354,0.8292,0.8278,0.8248,0.8224,0.8194,4.0972,3.8965,3.7707,3.7017,3.6737,3.5251,3.4617,3.4496,3.3238,3.2716,3.2924,3.3122,3.3321,3.351,3.3567,3.3604,3.3604,3.3604,3.3604,3.3604,3.3604,3.3519,3.3368,3.3122,3.2996,3.2921,3.3148,3.3912,3.4899,3.5954,3.6667,3.6877,3.6877,3.6877,3.6877,3.6877,3.6877,3.6877,3.6597,3.6316,3.6182,3.5632,3.5103,3.4571,3.353,3.248,3.2344,3.1731,3.1187,3.111,3.111,3.111,3.111,3.111,3.0701,3.0069,2.9411,2.8567,2.7859,2.7187,2.6781,2.6563,2.6379,2.6281,2.5883,2.5039,2.4241,2.3421,2.27,2.2038,2.1508,2.1309,2.1043,2.0758,2.048,1.9798,1.905,1.8155,1.7257,1.7,1.6809,1.6457,1.612,1.5579,1.4988,1.4462,1.4011,1.3424,1.2886,1.2547,1.247,1.2449,1.2392,1.2396,1.2441,1.2478,1.2486,1.2498,1.2503,1.2033,1.1564,1.0963,1.0299,0.994,0.9537,0.9317,0.8959,0.8576,0.8525,0.8544,0.849,0.8542,0.8425,0.8346,0.8297,4.1279,3.9023,3.7497,3.6877,3.6597,3.5251,3.4668,3.4506,3.336,3.2924,3.3113,3.3245,3.3406,3.3585,3.3604,3.3678,3.3678,3.3604,3.3604,3.3604,3.3732,3.3463,3.3283,3.322,3.3236,3.3302,3.4101,3.504,3.5813,3.6456,3.6877,3.6877,3.6877,3.6877,3.6877,3.6877,3.6877,3.6877,3.6597,3.6386,3.6365,3.5733,3.5079,3.4456,3.3454,3.2549,3.2149,3.1585,3.1187,3.111,3.111,3.111,3.0973,3.0701,3.0224,2.9542,2.8782,2.8098,2.7422,2.6994,2.6619,2.6606,2.6574,2.6492,2.6362,2.5587,2.4834,2.3992,2.2862,2.2171,2.164,2.1309,2.1309,2.1096,2.0897,2.042,1.9285,1.811,1.7462,1.7115,1.678,1.618,1.5695,1.4916,1.4388,1.4047,1.3612,1.3301,1.2842,1.267,1.2588,1.2535,1.2503,1.249,1.2539,1.2568,1.2572,1.2519,1.2539,1.2184,1.1705,1.1288,1.0804,1.0527,1.0271,1.0044,0.9676,0.9294,0.9038,0.9118,0.9002,0.8879,0.8699,0.8579,0.8597,4.156,3.9012,3.7508,3.6877,3.6667,3.5391,3.488,3.4879,3.3821,3.3446,3.3701,3.3748,3.3736,3.3694,3.3751,3.3825,3.3972,3.4266,3.4119,3.4045,3.4109,3.4073,3.388,3.3562,3.3834,3.4331,3.5051,3.5482,3.6035,3.6597,3.6877,3.6877,3.6877,3.6877,3.6877,3.6877,3.6877,3.6667,3.6386,3.5743,3.5519,3.5265,3.4673,3.3933,3.3169,3.2451,3.2129,3.1758,3.1166,3.111,3.111,3.111,3.0905,3.0497,2.9738,2.9123,2.8372,2.7627,2.6942,2.6805,2.6659,2.672,2.6667,2.6603,2.6457,2.5921,2.5162,2.4209,2.3073,2.2352,2.1814,2.1382,2.1382,2.1249,2.105,2.0718,1.9389,1.8051,1.7512,1.7107,1.6577,1.5969,1.5131,1.4349,1.3932,1.359,1.3257,1.2863,1.262,1.2731,1.2719,1.2694,1.2682,1.2674,1.2662,1.2654,1.2662,1.269,1.2637,1.2271,1.1974,1.1739,1.1528,1.1158,1.0906,1.0779,1.0599,1.035,1.0093,0.9777,0.9673,0.9628,0.9424,0.9297,0.9078,4.1548,3.8965,3.7508,3.6877,3.6737,3.5884,3.5657,3.5743,3.5122,3.4973,3.5047,3.5217,3.518,3.4559,3.4559,3.4706,3.5053,3.5199,3.5346,3.5492,3.5126,3.5034,3.4839,3.4506,3.5011,3.5305,3.5634,3.6045,3.6316,3.6737,3.6877,3.6877,3.6877,3.6877,3.6877,3.6877,3.6807,3.6526,3.5964,3.5391,3.4687,3.4315,3.3734,3.3125,3.2589,3.2052,3.1644,3.1462,3.1261,3.1166,3.1128,3.107,3.0788,3.0311,2.9551,2.8817,2.8064,2.7413,2.6873,2.6736,2.6667,2.6667,2.6599,2.6316,2.6068,2.5647,2.485,2.384,2.2989,2.2603,2.2086,2.1589,2.1429,2.0964,2.0697,2.0092,1.9092,1.7958,1.7089,1.6605,1.6112,1.5405,1.4525,1.396,1.3623,1.3349,1.3079,1.2813,1.2805,1.2825,1.2833,1.2825,1.2821,1.2801,1.276,1.2748,1.2756,1.2788,1.2792,1.2549,1.2435,1.2445,1.2178,1.183,1.1629,1.149,1.1314,1.1288,1.0852,1.0603,1.0574,1.046,1.0243,1.009,0.9805]},{"header":{"parameterUnit":"m.s-1","parameterCategory":1,"la1":31.0,"la2":29.5877,"lo1":-88.7671,"lo2":-86.6584,"dy":0.0162,"dx":0.0185,"nx":115,"ny":88,"refTime":"2023-04-11T12:00:00:Z","depth":0,"parameterNumber":3,"parameterNumberName":"V-component_of_WINDS"},"data":[0.0,0.0,0.0,0.0,0.0,0.0,0.0,0.0,0.0,0.0,0.0,0.0,0.0,0.0,0.0,0.0,0.0,0.0,0.0,0.0,0.0,0.0,0.0,0.0,0.0,0.0,0.0,0.0,0.0,0.0,0.0,0.0,0.0,0.0,0.0,0.0,0.0,0.0,0.0,0.0,0.0,0.0,0.0,0.0,0.0,0.0,0.0,0.0,0.0,0.0,0.0,0.0,0.0,0.0,0.0,0.0,0.0,0.0,0.0,0.0,0.0,0.0,0.0,0.0,0.0,0.0,0.0,0.0,0.0,0.0,0.0,0.0,0.0,0.0,0.0,0.0,0.0,0.0,0.0,0.0,0.0,0.0,0.0,0.0,0.0,0.0,0.0,0.0,0.0,0.0,0.0,0.0,0.0,0.0,0.0,0.0,0.0,0.0,0.0,0.0,0.0,0.0,0.0,0.0,0.0,0.0,0.0,0.0,0.0,0.0,0.0,0.0,0.0,0.0,0.0,0.0,0.0,0.0,0.0,0.0,0.0,0.0,0.0,0.0,0.0,0.0,0.0,0.0,0.0,0.0,0.0,0.0,0.0,0.0,0.0,0.0,0.0,0.0,0.0,0.0,0.0,0.0,0.0,0.0,0.0,0.0,0.0,0.0,0.0,0.0,0.0,0.0,0.0,0.0,0.0,0.0,0.0,0.0,0.0,0.0,0.0,0.0,0.0,0.0,0.0,0.0,0.0,0.0,0.0,0.0,0.0,0.0,0.0,0.0,0.0,0.0,0.0,0.0,0.0,0.0,0.0,0.0,0.0,0.0,0.0,0.0,0.0,0.0,0.0,0.0,0.0,0.0,0.0,0.0,0.0,0.0,0.0,0.0,0.0,0.0,0.0,0.0,0.0,0.0,0.0,0.0,0.0,0.0,0.0,0.0,0.0,0.0,0.0,0.0,0.0,0.0,0.0,0.0,0.0,0.0,0.0,0.0,0.0,0.0,0.0,0.0,0.0,0.0,0.0,0.0,0.0,0.0,0.0,0.0,0.0,0.0,0.0,0.0,0.0,0.0,0.0,0.0,0.0,0.0,0.0,0.0,0.0,0.0,0.0,0.0,0.0,0.0,0.0,0.0,0.0,0.0,0.0,0.0,0.0,0.0,0.0,0.0,0.0,0.0,0.0,0.0,0.0,0.0,0.0,0.0,0.0,0.0,0.0,0.0,0.0,0.0,0.0,0.0,0.0,0.0,0.0,0.0,0.0,0.0,0.0,0.0,0.0,0.0,0.0,0.0,0.0,0.0,0.0,0.0,0.0,0.0,0.0,0.0,0.0,0.0,0.0,0.0,0.0,0.0,0.0,0.0,0.0,0.0,0.0,0.0,0.0,0.0,0.0,0.0,0.0,0.0,0.0,0.0,0.0,0.0,0.0,0.0,0.0,0.0,0.0,0.0,0.0,0.0,0.0,0.0,0.0,0.0,0.0,0.0,0.0,0.0,0.0,0.0,0.0,0.0,0.0,0.0,0.0,0.0,0.0,0.0,0.0,0.0,0.0,0.0,0.0,0.0,0.0,0.0,0.0,0.0,0.0,0.0,0.0,0.0,0.0,0.0,0.0,0.0,0.0,0.0,0.0,0.0,0.0,0.0,0.0,0.0,0.0,0.0,0.0,0.0,0.0,0.0,0.0,0.0,0.0,0.0,0.0,0.0,0.0,0.0,0.0,0.0,0.0,0.0,0.0,0.0,0.0,0.0,0.0,0.0,0.0,0.0,0.0,0.0,0.0,0.0,0.0,0.0,0.0,0.0,0.0,0.0,0.0,0.0,0.0,0.0,0.0,0.0,0.0,0.0,0.0,0.0,0.0,0.0,0.0,0.0,0.0,0.0,0.0,0.0,0.0,0.0,0.0,0.0,0.0,0.0,0.0,0.0,0.0,0.0,0.0,0.0,0.0,0.0,0.0,0.0,0.0,0.0,0.0,0.0,0.0,0.0,0.0,0.0,0.0,0.0,0.0,0.0,0.0,0.0,0.0,0.0,0.0,0.0,0.0,0.0,0.0,0.0,0.0,0.0,0.0,0.0,0.0,0.0,0.0,0.0,0.0,0.0,0.0,0.0,0.0,0.0,0.0,0.0,0.0,0.0,0.0,0.0,0.0,0.0,0.0,0.0,0.0,0.0,0.0,0.0,0.0,0.0,0.0,0.0,0.0,0.0,0.0,0.0,0.0,0.0,0.0,0.0,0.0,0.0,0.0,0.0,0.0,0.0,0.0,0.0,0.0,0.0,0.0,0.0,0.0,0.0,0.0,0.0,0.0,0.0,0.0,0.0,0.0,0.0,0.0,0.0,0.0,0.0,0.0,0.0,0.0,0.0,0.0,0.0,0.0,0.0,0.0,0.0,0.0,0.0,0.0,0.0,0.0,0.0,0.0,0.0,0.0,0.0,0.0,0.0,0.0,0.0,0.0,0.0,0.0,0.0,0.0,0.0,0.0,0.0,0.0,0.0,0.0,0.0,0.0,0.0,0.0,0.0,0.0,0.0,0.0,0.0,0.0,0.0,0.0,0.0,0.0,0.0,0.0,0.0,0.0,0.0,0.0,0.0,0.0,0.0,0.0,0.0,0.0,0.0,0.0,0.0,0.0,0.0,0.0,0.0,0.0,0.0,0.0,0.0,0.0,0.0,0.0,0.0,0.0,0.0,0.0,0.0,0.0,0.0,0.0,0.0,0.0,0.0,0.0,0.0,0.0,0.0,0.0,0.0,0.0,0.0,0.0,0.0,0.0,0.0,0.0,0.0,0.0,0.0,0.0,0.0,0.0,0.0,0.0,0.0,0.0,0.0,0.0,0.0,0.0,0.0,0.0,0.0,0.0,0.0,0.0,0.0,0.0,0.0,0.0,0.0,0.0,0.0,0.0,0.0,0.0,0.0,0.0,0.0,0.0,0.0,0.0,0.0,0.0,0.0,0.0,0.0,0.0,0.0,0.0,0.0,0.0,0.0,0.0,0.0,0.0,0.0,0.0,0.0,0.0,0.0,0.0,0.0,0.0,0.0,0.0,0.0,0.0,0.0,0.0,0.0,0.0,0.0,0.0,0.0,0.0,0.0,0.0,0.0,0.0,0.0,0.0,0.0,0.0,0.0,0.0,0.0,0.0,0.0,0.0,0.0,0.0,0.0,0.0,0.0,0.0,0.0,0.0,0.0,0.0,0.0,0.0,0.0,0.0,0.0,0.0,0.0,0.0,0.0,0.0,0.0,0.0,0.0,0.0,0.0,0.0,0.0,0.0,0.0,0.0,0.0,0.0,0.0,0.0,0.0,0.0,0.0,0.0,0.0,0.0,0.0,0.0,0.0,0.0,0.0,0.0,0.0,0.0,0.0,0.0,0.0,0.0,0.0,0.0,0.0,0.0,0.0,0.0,0.0,0.0,0.0,0.0,0.0,0.0,0.0,0.0,0.0,0.0,0.0,0.0,0.0,0.0,0.0,0.0,0.0,0.0,0.0,0.0,0.0,0.0,0.0,0.0,0.0,0.0,0.0,0.0,0.0,0.0,0.0,0.0,0.0,0.0,0.0,0.0,0.0,0.0,0.0,0.0,0.0,0.0,0.0,0.0,0.0,0.0,0.0,0.0,0.0,0.0,0.0,0.0,0.0,0.0,0.0,0.0,0.0,0.0,0.0,0.0,0.0,0.0,0.0,0.0,0.0,0.0,0.0,0.0,0.0,0.0,0.0,0.0,0.0,0.0,0.0,0.0,0.0,0.0,0.0,0.0,0.0,0.0,0.0,0.0,0.0,0.0,0.0,0.0,0.0,0.0,0.0,0.0,0.0,0.0,0.0,0.0,0.0,0.0,0.0,0.0,0.0,0.0,0.0,0.0,0.0,0.0,0.0,0.0,0.0,0.0,0.0,0.0,0.0,0.0,0.0,0.0,0.0,0.0,0.0,0.0,0.0,0.0,0.0,0.0,0.0,0.0,0.0,0.0,0.0,0.0,0.0,0.0,0.0,0.0,0.0,0.0,0.0,0.0,0.0,0.0,0.0,0.0,0.0,0.0,0.0,0.0,0.0,0.0,0.0,0.0,0.0,0.0,0.0,0.0,0.0,0.0,0.0,0.0,0.0,0.0,0.0,0.0,0.0,0.0,0.0,0.0,0.0,0.0,0.0,0.0,0.0,0.0,0.0,0.0,0.0,0.0,0.0,0.0,0.0,0.0,0.0,0.0,0.0,0.0,0.0,0.0,0.0,0.0,0.0,0.0,0.0,0.0,0.0,0.0,0.0,4.6861,0.0,0.0,0.0,0.0,0.0,0.0,0.0,0.0,0.0,0.0,0.0,0.0,0.0,0.0,0.0,0.0,0.0,0.0,0.0,0.0,0.0,0.0,0.0,0.0,0.0,0.0,0.0,0.0,0.0,0.0,0.0,0.0,0.0,0.0,0.0,0.0,0.0,0.0,0.0,0.0,0.0,0.0,0.0,0.0,0.0,0.0,0.0,0.0,0.0,0.0,0.0,0.0,0.0,0.0,0.0,0.0,0.0,0.0,0.0,0.0,0.0,0.0,0.0,0.0,0.0,0.0,0.0,0.0,0.0,0.0,0.0,0.0,0.0,0.0,0.0,0.0,0.0,0.0,0.0,0.0,0.0,0.0,0.0,0.0,0.0,0.0,0.0,0.0,0.0,0.0,0.0,0.0,0.0,0.0,0.0,0.0,0.0,0.0,0.0,0.0,0.0,0.0,0.0,0.0,0.0,0.0,0.0,0.0,0.0,0.0,4.9663,4.9589,4.9205,4.8566,4.7657,0.0,0.0,0.0,0.0,0.0,0.0,0.0,0.0,0.0,0.0,0.0,0.0,0.0,0.0,0.0,0.0,0.0,0.0,0.0,0.0,0.0,0.0,0.0,0.0,0.0,0.0,0.0,0.0,0.0,0.0,0.0,0.0,0.0,0.0,0.0,0.0,0.0,0.0,0.0,0.0,0.0,0.0,0.0,0.0,0.0,0.0,0.0,0.0,0.0,0.0,0.0,0.0,0.0,0.0,0.0,0.0,0.0,0.0,0.0,0.0,0.0,0.0,0.0,0.0,0.0,0.0,0.0,0.0,0.0,0.0,0.0,0.0,0.0,0.0,0.0,0.0,0.0,0.0,0.0,0.0,0.0,0.0,0.0,0.0,0.0,0.0,0.0,0.0,0.0,0.0,0.0,0.0,0.0,0.0,0.0,0.0,0.0,0.0,0.0,0.0,0.0,0.0,0.0,0.0,0.0,0.0,0.0,0.0,0.0,0.0,0.0,0.0,4.9567,4.9168,4.8235,0.0,0.0,0.0,0.0,0.0,0.0,0.0,0.0,0.0,0.0,0.0,0.0,0.0,0.0,0.0,0.0,0.0,0.0,0.0,0.0,0.0,0.0,0.0,0.0,0.0,0.0,0.0,0.0,0.0,0.0,0.0,0.0,0.0,0.0,0.0,0.0,0.0,0.0,0.0,0.0,0.0,0.0,0.0,0.0,0.0,0.0,0.0,0.0,0.0,0.0,0.0,0.0,0.0,0.0,0.0,0.0,0.0,0.0,0.0,0.0,0.0,0.0,0.0,0.0,0.0,0.0,0.0,0.0,0.0,0.0,0.0,0.0,0.0,0.0,0.0,0.0,0.0,0.0,0.0,0.0,0.0,0.0,0.0,0.0,0.0,0.0,0.0,0.0,0.0,0.0,0.0,0.0,0.0,0.0,0.0,0.0,0.0,0.0,0.0,0.0,0.0,0.0,0.0,0.0,0.0,0.0,0.0,0.0,0.0,0.0,4.9597,4.9589,4.9551,0.0,4.8374,0.0,0.0,0.0,0.0,0.0,0.0,0.0,0.0,0.0,0.0,0.0,0.0,0.0,0.0,0.0,0.0,0.0,0.0,0.0,0.0,0.0,0.0,0.0,0.0,0.0,0.0,0.0,0.0,0.0,0.0,0.0,0.0,0.0,0.0,0.0,0.0,0.0,0.0,0.0,0.0,0.0,0.0,0.0,0.0,0.0,0.0,0.0,0.0,0.0,0.0,0.0,0.0,0.0,0.0,0.0,0.0,0.0,0.0,0.0,0.0,0.0,0.0,0.0,0.0,0.0,0.0,0.0,0.0,0.0,0.0,0.0,0.0,0.0,0.0,0.0,0.0,0.0,0.0,0.0,0.0,0.0,0.0,0.0,0.0,0.0,0.0,0.0,0.0,0.0,0.0,0.0,0.0,0.0,0.0,0.0,0.0,0.0,0.0,0.0,0.0,0.0,0.0,0.0,0.0,0.0,0.0,0.0,0.0,0.0,0.0,4.9656,4.9656,4.9619,4.9271,0.0,0.0,0.0,0.0,0.0,0.0,0.0,0.0,0.0,0.0,0.0,0.0,0.0,0.0,0.0,0.0,0.0,0.0,0.0,0.0,0.0,0.0,0.0,0.0,0.0,0.0,0.0,0.0,0.0,0.0,0.0,0.0,0.0,0.0,0.0,0.0,0.0,0.0,0.0,0.0,0.0,0.0,0.0,0.0,0.0,0.0,0.0,0.0,0.0,0.0,0.0,0.0,0.0,0.0,0.0,0.0,0.0,0.0,0.0,0.0,0.0,0.0,0.0,0.0,0.0,0.0,0.0,0.0,0.0,0.0,0.0,0.0,0.0,0.0,0.0,0.0,0.0,0.0,0.0,0.0,0.0,0.0,0.0,0.0,0.0,0.0,0.0,0.0,0.0,0.0,0.0,0.0,0.0,0.0,0.0,0.0,0.0,0.0,0.0,0.0,0.0,0.0,0.0,0.0,0.0,0.0,0.0,0.0,0.0,0.0,4.975,4.9714,4.9699,4.9764,4.9414,4.8627,0.0,0.0,0.0,0.0,0.0,0.0,0.0,0.0,0.0,0.0,0.0,0.0,0.0,0.0,0.0,0.0,0.0,0.0,0.0,0.0,0.0,0.0,0.0,0.0,0.0,0.0,0.0,0.0,0.0,0.0,0.0,0.0,0.0,0.0,0.0,0.0,0.0,0.0,0.0,0.0,0.0,0.0,0.0,0.0,0.0,0.0,0.0,0.0,0.0,0.0,0.0,0.0,0.0,0.0,0.0,0.0,0.0,0.0,0.0,0.0,0.0,0.0,0.0,0.0,0.0,0.0,0.0,0.0,0.0,0.0,0.0,0.0,0.0,0.0,0.0,0.0,0.0,0.0,0.0,0.0,0.0,0.0,0.0,0.0,0.0,0.0,0.0,0.0,0.0,0.0,0.0,0.0,0.0,0.0,0.0,0.0,0.0,0.0,0.0,0.0,0.0,0.0,0.0,0.0,0.0,0.0,0.0,0.0,4.9814,4.98,4.9764,4.9707,4.9903,4.9527,0.0,0.0,0.0,0.0,0.0,0.0,0.0,0.0,0.0,0.0,0.0,0.0,0.0,0.0,0.0,0.0,0.0,0.0,0.0,0.0,0.0,0.0,0.0,0.0,0.0,0.0,0.0,0.0,0.0,0.0,0.0,0.0,0.0,0.0,0.0,0.0,0.0,0.0,0.0,0.0,0.0,0.0,0.0,0.0,0.0,0.0,0.0,0.0,0.0,0.0,0.0,0.0,0.0,0.0,0.0,0.0,0.0,0.0,0.0,0.0,0.0,0.0,0.0,0.0,0.0,0.0,0.0,0.0,0.0,0.0,0.0,0.0,0.0,0.0,0.0,0.0,0.0,0.0,0.0,0.0,0.0,0.0,0.0,0.0,0.0,0.0,0.0,0.0,0.0,0.0,0.0,0.0,0.0,0.0,0.0,0.0,0.0,0.0,0.0,0.0,0.0,0.0,0.0,0.0,0.0,0.0,0.0,0.0,0.0,4.9852,4.9883,4.9869,4.9817,4.9393,4.8989,0.0,0.0,0.0,0.0,0.0,0.0,0.0,0.0,0.0,0.0,0.0,0.0,0.0,0.0,0.0,0.0,0.0,0.0,0.0,0.0,0.0,0.0,0.0,0.0,0.0,0.0,0.0,0.0,0.0,0.0,0.0,0.0,0.0,0.0,0.0,0.0,0.0,0.0,0.0,0.0,0.0,0.0,0.0,0.0,0.0,0.0,0.0,0.0,0.0,0.0,0.0,0.0,0.0,0.0,0.0,0.0,0.0,0.0,0.0,0.0,0.0,0.0,0.0,0.0,0.0,0.0,0.0,0.0,0.0,0.0,0.0,0.0,0.0,0.0,0.0,0.0,0.0,0.0,0.0,0.0,0.0,0.0,0.0,0.0,0.0,0.0,0.0,0.0,0.0,0.0,0.0,0.0,0.0,0.0,0.0,0.0,0.0,0.0,0.0,0.0,0.0,0.0,0.0,0.0,0.0,0.0,0.0,0.0,0.0,4.9859,0.0,4.9852,4.9852,4.9349,4.8825,0.0,0.0,0.0,0.0,0.0,0.0,0.0,0.0,0.0,0.0,0.0,0.0,0.0,0.0,0.0,0.0,0.0,0.0,0.0,0.0,0.0,0.0,0.0,0.0,0.0,0.0,0.0,0.0,0.0,0.0,0.0,0.0,0.0,0.0,0.0,0.0,0.0,0.0,0.0,0.0,0.0,0.0,0.0,0.0,0.0,0.0,0.0,0.0,0.0,0.0,0.0,0.0,0.0,0.0,0.0,0.0,0.0,0.0,0.0,0.0,0.0,0.0,0.0,0.0,0.0,0.0,0.0,0.0,0.0,0.0,0.0,0.0,0.0,0.0,0.0,0.0,0.0,0.0,0.0,0.0,0.0,0.0,0.0,0.0,0.0,0.0,0.0,0.0,0.0,0.0,0.0,0.0,0.0,0.0,0.0,0.0,0.0,0.0,0.0,0.0,0.0,0.0,0.0,0.0,0.0,0.0,0.0,0.0,4.9951,4.9807,4.9807,4.9807,4.9807,4.98,4.909,0.0,0.0,0.0,0.0,0.0,0.0,0.0,0.0,0.0,0.0,0.0,0.0,0.0,0.0,0.0,0.0,0.0,0.0,0.0,0.0,0.0,0.0,0.0,0.0,0.0,0.0,0.0,0.0,0.0,0.0,0.0,0.0,0.0,0.0,0.0,0.0,0.0,0.0,0.0,0.0,0.0,0.0,0.0,0.0,0.0,0.0,0.0,0.0,0.0,0.0,0.0,0.0,0.0,0.0,0.0,0.0,0.0,0.0,0.0,0.0,0.0,0.0,0.0,0.0,0.0,0.0,0.0,0.0,0.0,0.0,0.0,0.0,0.0,0.0,0.0,0.0,0.0,0.0,0.0,0.0,0.0,0.0,0.0,0.0,0.0,0.0,0.0,0.0,0.0,0.0,0.0,0.0,0.0,0.0,0.0,0.0,0.0,0.0,0.0,0.0,0.0,0.0,0.0,0.0,0.0,0.0,0.0,0.0,0.0,4.9837,4.9757,4.9736,4.9728,4.9232,4.8782,0.0,0.0,0.0,0.0,0.0,0.0,0.0,0.0,0.0,0.0,0.0,0.0,0.0,0.0,0.0,0.0,0.0,0.0,0.0,0.0,0.0,0.0,0.0,0.0,0.0,0.0,0.0,0.0,0.0,0.0,0.0,0.0,0.0,0.0,0.0,0.0,0.0,0.0,0.0,0.0,0.0,0.0,0.0,0.0,0.0,0.0,0.0,0.0,0.0,0.0,0.0,0.0,0.0,0.0,0.0,0.0,0.0,0.0,0.0,0.0,0.0,0.0,0.0,0.0,0.0,0.0,0.0,0.0,0.0,0.0,0.0,0.0,0.0,0.0,0.0,0.0,0.0,0.0,0.0,0.0,0.0,0.0,0.0,0.0,0.0,0.0,0.0,0.0,0.0,0.0,0.0,0.0,0.0,0.0,0.0,0.0,0.0,0.0,0.0,0.0,0.0,0.0,0.0,0.0,0.0,0.0,0.0,0.0,0.0,5.0576,5.0259,5.0101,5.0101,4.9381,4.8871,4.859,0.0,0.0,0.0,0.0,0.0,0.0,0.0,0.0,0.0,0.0,0.0,0.0,0.0,0.0,0.0,0.0,0.0,0.0,0.0,0.0,0.0,0.0,0.0,0.0,0.0,0.0,0.0,0.0,0.0,0.0,0.0,0.0,0.0,0.0,0.0,0.0,0.0,0.0,0.0,0.0,0.0,0.0,0.0,0.0,0.0,0.0,0.0,0.0,0.0,0.0,0.0,0.0,0.0,0.0,0.0,0.0,0.0,0.0,0.0,0.0,0.0,0.0,0.0,0.0,0.0,0.0,0.0,0.0,0.0,0.0,0.0,0.0,0.0,0.0,0.0,0.0,0.0,0.0,0.0,0.0,0.0,0.0,0.0,0.0,0.0,0.0,0.0,0.0,0.0,0.0,0.0,0.0,0.0,0.0,0.0,0.0,0.0,0.0,0.0,0.0,0.0,0.0,0.0,0.0,0.0,0.0,0.0,0.0,5.196,5.1289,5.0914,5.0839,5.0138,4.9464,0.0,0.0,0.0,0.0,0.0,0.0,0.0,0.0,0.0,0.0,0.0,0.0,0.0,0.0,0.0,0.0,0.0,0.0,0.0,0.0,0.0,0.0,0.0,0.0,0.0,0.0,0.0,0.0,0.0,0.0,0.0,0.0,0.0,0.0,0.0,0.0,0.0,0.0,0.0,0.0,0.0,0.0,0.0,0.0,0.0,0.0,0.0,0.0,0.0,0.0,0.0,0.0,0.0,0.0,0.0,0.0,0.0,0.0,0.0,0.0,0.0,0.0,0.0,0.0,0.0,0.0,0.0,0.0,0.0,0.0,0.0,0.0,0.0,0.0,0.0,0.0,0.0,0.0,0.0,0.0,0.0,0.0,0.0,0.0,0.0,0.0,0.0,0.0,0.0,0.0,0.0,0.0,0.0,0.0,0.0,0.0,0.0,0.0,0.0,0.0,0.0,0.0,0.0,0.0,0.0,0.0,0.0,0.0,0.0,5.2786,5.2557,5.2128,5.1557,5.0929,5.0522,0.0,0.0,0.0,0.0,0.0,0.0,0.0,0.0,0.0,0.0,0.0,0.0,0.0,0.0,0.0,0.0,0.0,0.0,0.0,0.0,0.0,0.0,0.0,0.0,0.0,0.0,0.0,0.0,0.0,0.0,0.0,0.0,0.0,0.0,0.0,0.0,0.0,0.0,0.0,0.0,0.0,0.0,0.0,0.0,0.0,0.0,0.0,0.0,0.0,0.0,0.0,0.0,0.0,0.0,0.0,0.0,0.0,0.0,0.0,0.0,0.0,0.0,0.0,0.0,0.0,0.0,0.0,0.0,0.0,0.0,0.0,0.0,0.0,0.0,0.0,0.0,0.0,0.0,0.0,0.0,0.0,0.0,0.0,0.0,0.0,0.0,0.0,0.0,0.0,0.0,0.0,0.0,0.0,0.0,0.0,0.0,0.0,0.0,0.0,0.0,0.0,0.0,0.0,0.0,0.0,0.0,0.0,0.0,5.3445,5.4078,5.4072,5.3838,5.3432,5.2134,5.1284,0.0,0.0,0.0,0.0,0.0,0.0,0.0,0.0,0.0,0.0,0.0,0.0,0.0,0.0,0.0,0.0,0.0,0.0,0.0,0.0,0.0,0.0,0.0,0.0,0.0,0.0,0.0,0.0,0.0,0.0,0.0,0.0,0.0,0.0,0.0,0.0,0.0,0.0,0.0,0.0,0.0,0.0,0.0,0.0,0.0,0.0,0.0,0.0,0.0,0.0,0.0,0.0,0.0,0.0,0.0,0.0,0.0,0.0,0.0,0.0,0.0,0.0,0.0,0.0,0.0,0.0,0.0,0.0,0.0,0.0,0.0,0.0,0.0,0.0,0.0,0.0,0.0,0.0,0.0,0.0,0.0,0.0,0.0,0.0,0.0,0.0,0.0,0.0,0.0,0.0,0.0,0.0,0.0,0.0,0.0,0.0,0.0,0.0,0.0,0.0,0.0,0.0,0.0,0.0,0.0,0.0,0.0,0.0,5.4049,5.5441,5.5581,5.5664,5.5657,5.3596,5.2062,0.0,0.0,0.0,0.0,0.0,0.0,0.0,0.0,0.0,0.0,0.0,0.0,0.0,0.0,0.0,0.0,0.0,0.0,0.0,0.0,0.0,0.0,0.0,0.0,0.0,0.0,0.0,0.0,0.0,0.0,0.0,0.0,0.0,0.0,0.0,0.0,0.0,0.0,0.0,0.0,0.0,0.0,0.0,0.0,0.0,0.0,0.0,0.0,0.0,0.0,0.0,0.0,0.0,0.0,0.0,0.0,0.0,0.0,0.0,0.0,0.0,0.0,0.0,0.0,0.0,0.0,0.0,0.0,0.0,0.0,0.0,0.0,0.0,0.0,0.0,0.0,0.0,0.0,0.0,0.0,0.0,0.0,0.0,0.0,0.0,0.0,0.0,0.0,0.0,0.0,0.0,0.0,0.0,0.0,0.0,0.0,0.0,0.0,0.0,0.0,0.0,0.0,0.0,0.0,0.0,0.0,0.0,0.0,5.5041,5.5478,5.607,5.6453,5.6587,5.4982,5.3715,0.0,0.0,0.0,0.0,0.0,0.0,0.0,0.0,0.0,0.0,0.0,0.0,0.0,0.0,0.0,0.0,0.0,0.0,0.0,0.0,0.0,0.0,0.0,0.0,0.0,0.0,0.0,0.0,0.0,0.0,0.0,0.0,0.0,0.0,0.0,0.0,0.0,0.0,0.0,0.0,0.0,0.0,0.0,0.0,0.0,0.0,0.0,0.0,4.5073,0.0,0.0,0.0,0.0,0.0,0.0,0.0,0.0,0.0,0.0,0.0,0.0,0.0,0.0,0.0,0.0,0.0,0.0,0.0,0.0,0.0,0.0,0.0,0.0,0.0,0.0,0.0,0.0,0.0,0.0,0.0,0.0,0.0,0.0,0.0,0.0,0.0,0.0,0.0,0.0,0.0,0.0,0.0,0.0,0.0,0.0,0.0,0.0,0.0,0.0,0.0,0.0,0.0,0.0,0.0,0.0,0.0,0.0,0.0,5.5442,5.6694,5.7107,5.7396,5.7574,5.6467,5.5334,0.0,0.0,0.0,0.0,0.0,0.0,0.0,0.0,0.0,0.0,0.0,0.0,0.0,0.0,0.0,0.0,0.0,0.0,0.0,0.0,0.0,0.0,0.0,0.0,0.0,0.0,0.0,0.0,0.0,0.0,0.0,0.0,0.0,0.0,0.0,0.0,0.0,0.0,0.0,0.0,0.0,0.0,0.0,0.0,0.0,0.0,0.0,0.0,0.0,0.0,0.0,0.0,0.0,0.0,0.0,0.0,0.0,0.0,0.0,0.0,0.0,0.0,0.0,0.0,0.0,0.0,0.0,0.0,0.0,0.0,0.0,0.0,0.0,0.0,0.0,0.0,0.0,0.0,0.0,0.0,0.0,0.0,0.0,0.0,0.0,0.0,0.0,0.0,0.0,0.0,0.0,0.0,0.0,0.0,0.0,0.0,0.0,0.0,0.0,0.0,0.0,0.0,0.0,0.0,0.0,0.0,0.0,5.4776,5.5955,5.8192,5.8548,5.8714,5.8768,5.8077,5.6948,5.5314,0.0,0.0,0.0,0.0,0.0,0.0,0.0,0.0,0.0,0.0,0.0,0.0,0.0,0.0,0.0,0.0,0.0,0.0,0.0,0.0,0.0,0.0,0.0,0.0,0.0,0.0,0.0,0.0,0.0,0.0,0.0,0.0,0.0,0.0,0.0,0.0,0.0,0.0,4.7283,4.7251,0.0,0.0,0.0,0.0,0.0,0.0,0.0,0.0,4.602,0.0,0.0,0.0,0.0,0.0,0.0,0.0,0.0,0.0,0.0,0.0,0.0,0.0,0.0,0.0,0.0,0.0,0.0,0.0,0.0,0.0,0.0,0.0,0.0,0.0,0.0,0.0,0.0,0.0,0.0,0.0,0.0,0.0,0.0,0.0,0.0,0.0,0.0,0.0,0.0,0.0,0.0,0.0,0.0,0.0,0.0,0.0,0.0,0.0,0.0,0.0,0.0,0.0,0.0,0.0,0.0,5.4573,5.6381,5.7913,5.9102,6.0454,6.0962,6.0475,5.9777,5.8626,5.694,0.0,0.0,0.0,0.0,0.0,0.0,0.0,0.0,0.0,0.0,0.0,0.0,0.0,0.0,0.0,0.0,0.0,0.0,0.0,0.0,0.0,0.0,0.0,0.0,0.0,0.0,0.0,0.0,0.0,0.0,0.0,0.0,0.0,0.0,0.0,0.0,0.0,0.0,0.0,4.8514,4.8043,0.0,0.0,0.0,0.0,0.0,0.0,0.0,0.0,4.5588,0.0,0.0,0.0,0.0,0.0,0.0,0.0,0.0,0.0,0.0,0.0,0.0,0.0,0.0,0.0,0.0,0.0,0.0,0.0,0.0,0.0,0.0,0.0,0.0,0.0,0.0,0.0,0.0,0.0,0.0,0.0,0.0,0.0,0.0,0.0,0.0,0.0,0.0,0.0,0.0,0.0,0.0,0.0,0.0,0.0,0.0,0.0,0.0,0.0,0.0,0.0,0.0,0.0,0.0,0.0,5.5911,5.7694,5.9047,5.9966,6.1225,6.1554,6.0818,6.0077,5.8921,0.0,0.0,0.0,0.0,0.0,0.0,0.0,0.0,0.0,0.0,0.0,0.0,0.0,0.0,0.0,0.0,0.0,0.0,0.0,0.0,0.0,0.0,0.0,0.0,0.0,0.0,0.0,0.0,0.0,0.0,0.0,0.0,0.0,0.0,0.0,0.0,0.0,0.0,0.0,0.0,4.9293,4.9015,4.8936,0.0,0.0,0.0,0.0,0.0,0.0,4.6751,4.6744,0.0,0.0,0.0,0.0,0.0,0.0,0.0,0.0,0.0,0.0,0.0,0.0,0.0,0.0,0.0,0.0,0.0,0.0,0.0,0.0,0.0,0.0,0.0,0.0,0.0,0.0,0.0,0.0,0.0,0.0,0.0,0.0,0.0,0.0,0.0,0.0,0.0,0.0,0.0,0.0,0.0,0.0,0.0,0.0,0.0,0.0,0.0,0.0,0.0,0.0,0.0,0.0,0.0,0.0,0.0,5.7517,5.8848,6.0079,6.1093,6.2015,6.2062,6.1225,6.0496,5.9238,0.0,0.0,0.0,0.0,0.0,0.0,0.0,0.0,0.0,0.0,0.0,0.0,0.0,0.0,0.0,0.0,0.0,0.0,0.0,0.0,0.0,0.0,0.0,0.0,0.0,0.0,0.0,0.0,0.0,0.0,0.0,0.0,0.0,0.0,0.0,0.0,0.0,0.0,0.0,0.0,0.0,4.9889,4.9667,4.9019,0.0,0.0,0.0,0.0,4.8284,4.8074,0.0,0.0,0.0,0.0,0.0,0.0,0.0,0.0,0.0,0.0,0.0,0.0,0.0,0.0,0.0,0.0,0.0,0.0,0.0,0.0,0.0,0.0,0.0,0.0,0.0,0.0,0.0,0.0,0.0,0.0,0.0,0.0,0.0,0.0,0.0,0.0,0.0,0.0,0.0,0.0,0.0,0.0,0.0,0.0,0.0,0.0,0.0,0.0,0.0,0.0,0.0,0.0,0.0,0.0,0.0,0.0,5.9135,6.0013,6.1196,6.2745,6.3669,6.3755,6.2918,6.2202,6.071,0.0,0.0,0.0,0.0,0.0,0.0,0.0,0.0,0.0,0.0,0.0,0.0,0.0,0.0,0.0,0.0,0.0,0.0,0.0,0.0,0.0,0.0,0.0,0.0,0.0,0.0,0.0,0.0,0.0,0.0,0.0,0.0,0.0,0.0,0.0,0.0,0.0,0.0,0.0,0.0,0.0,5.0664,4.9889,4.9625,4.9287,0.0,0.0,4.8472,4.9209,4.8628,0.0,0.0,0.0,0.0,0.0,0.0,0.0,0.0,0.0,0.0,0.0,0.0,0.0,0.0,0.0,0.0,0.0,0.0,0.0,0.0,0.0,0.0,0.0,0.0,0.0,0.0,0.0,0.0,0.0,0.0,0.0,0.0,0.0,0.0,0.0,0.0,0.0,0.0,0.0,0.0,0.0,0.0,0.0,0.0,0.0,0.0,0.0,0.0,0.0,0.0,0.0,0.0,0.0,0.0,0.0,5.7939,5.9392,6.1572,6.3045,6.3759,6.4587,6.4645,6.3865,6.2598,6.1026,0.0,0.0,0.0,0.0,0.0,0.0,0.0,0.0,0.0,0.0,0.0,0.0,0.0,0.0,0.0,0.0,0.0,0.0,0.0,0.0,0.0,0.0,0.0,0.0,0.0,0.0,0.0,0.0,0.0,0.0,0.0,0.0,0.0,0.0,0.0,0.0,0.0,0.0,0.0,0.0,0.0,0.0,5.2033,5.2048,0.0,0.0,0.0,5.1393,5.1714,0.0,0.0,0.0,0.0,0.0,0.0,0.0,0.0,0.0,0.0,0.0,0.0,0.0,0.0,0.0,0.0,0.0,0.0,0.0,0.0,0.0,0.0,0.0,0.0,0.0,0.0,0.0,0.0,0.0,0.0,0.0,0.0,0.0,0.0,0.0,0.0,0.0,0.0,0.0,0.0,0.0,0.0,0.0,0.0,0.0,0.0,0.0,0.0,0.0,0.0,0.0,0.0,0.0,0.0,0.0,0.0,0.0,6.0304,6.2885,6.4499,6.4933,6.5465,6.5417,6.4595,6.3187,0.0,0.0,0.0,0.0,0.0,0.0,0.0,0.0,0.0,0.0,0.0,0.0,0.0,0.0,0.0,0.0,0.0,0.0,0.0,0.0,0.0,0.0,0.0,0.0,0.0,0.0,0.0,5.1259,0.0,0.0,0.0,0.0,0.0,0.0,0.0,0.0,0.0,0.0,0.0,0.0,0.0,0.0,5.3078,5.3701,5.3805,5.378,0.0,0.0,5.3607,5.3564,5.2825,5.2237,0.0,0.0,0.0,0.0,0.0,0.0,0.0,0.0,0.0,0.0,0.0,0.0,0.0,0.0,0.0,0.0,0.0,0.0,0.0,0.0,0.0,0.0,0.0,0.0,0.0,0.0,0.0,0.0,0.0,0.0,0.0,0.0,0.0,0.0,0.0,0.0,0.0,0.0,0.0,0.0,0.0,0.0,0.0,0.0,0.0,0.0,0.0,0.0,0.0,0.0,0.0,0.0,0.0,0.0,6.0638,6.2871,6.3698,6.4933,6.6548,6.6555,6.617,6.5438,6.4637,6.3107,0.0,0.0,0.0,0.0,0.0,0.0,0.0,0.0,0.0,0.0,0.0,0.0,0.0,0.0,0.0,0.0,0.0,0.0,0.0,0.0,0.0,0.0,0.0,0.0,0.0,0.0,0.0,0.0,0.0,0.0,0.0,0.0,0.0,0.0,0.0,0.0,0.0,0.0,0.0,0.0,0.0,5.374,5.3779,5.3818,5.3805,0.0,5.3746,5.3715,5.3715,5.2905,5.2323,5.2388,0.0,0.0,0.0,0.0,0.0,0.0,0.0,0.0,0.0,0.0,0.0,0.0,0.0,0.0,0.0,0.0,0.0,0.0,0.0,0.0,0.0,0.0,0.0,0.0,0.0,0.0,0.0,0.0,0.0,0.0,0.0,0.0,0.0,0.0,0.0,0.0,0.0,0.0,0.0,0.0,0.0,0.0,0.0,0.0,0.0,0.0,0.0,0.0,0.0,0.0,0.0,0.0,0.0,6.146,6.3836,6.5055,6.6202,6.7332,6.7364,6.7278,6.7167,6.5354,6.3823,0.0,0.0,0.0,0.0,0.0,0.0,0.0,0.0,0.0,0.0,0.0,0.0,0.0,0.0,0.0,0.0,0.0,0.0,0.0,0.0,0.0,0.0,0.0,0.0,0.0,0.0,0.0,0.0,5.34,5.3707,5.4308,0.0,0.0,0.0,0.0,0.0,0.0,0.0,0.0,0.0,0.0,5.4879,5.5387,5.5465,0.0,0.0,5.5377,5.5361,5.5372,5.4615,5.4035,5.4058,5.3319,0.0,0.0,0.0,0.0,0.0,0.0,0.0,0.0,0.0,0.0,0.0,0.0,0.0,0.0,0.0,0.0,0.0,0.0,0.0,0.0,0.0,0.0,0.0,0.0,0.0,0.0,5.7886,5.7886,0.0,0.0,0.0,0.0,0.0,0.0,0.0,0.0,0.0,0.0,0.0,0.0,0.0,0.0,0.0,0.0,0.0,0.0,0.0,0.0,0.0,0.0,0.0,0.0,6.2795,6.469,6.64,6.7684,6.854,6.8496,6.8505,6.8498,6.6648,6.5096,0.0,0.0,0.0,0.0,0.0,0.0,0.0,0.0,0.0,0.0,0.0,0.0,0.0,0.0,0.0,0.0,0.0,0.0,0.0,0.0,0.0,0.0,0.0,0.0,0.0,0.0,0.0,0.0,5.5035,5.5343,5.598,0.0,0.0,0.0,0.0,0.0,0.0,0.0,0.0,0.0,0.0,5.6541,5.7167,5.7245,5.7236,5.7174,5.6936,5.677,5.6783,5.5805,5.511,5.5125,0.0,0.0,0.0,0.0,0.0,0.0,0.0,0.0,0.0,0.0,0.0,0.0,0.0,0.0,0.0,0.0,0.0,0.0,0.0,0.0,0.0,0.0,0.0,0.0,0.0,0.0,5.8835,5.7925,0.0,0.0,5.8071,0.0,0.0,0.0,0.0,0.0,0.0,0.0,0.0,0.0,0.0,0.0,0.0,0.0,0.0,0.0,0.0,0.0,0.0,0.0,0.0,0.0,0.0,6.4859,6.5607,6.7695,6.9277,7.0177,7.0137,6.984,6.9411,6.8721,6.7288,6.4926,0.0,0.0,0.0,0.0,0.0,0.0,0.0,0.0,0.0,0.0,0.0,0.0,0.0,0.0,0.0,0.0,0.0,0.0,0.0,0.0,0.0,0.0,0.0,0.0,0.0,0.0,5.8437,5.8634,5.8616,0.0,0.0,0.0,0.0,0.0,0.0,0.0,0.0,0.0,5.763,5.8375,5.8921,5.8921,5.8921,5.8873,5.8888,5.8221,5.7668,5.7603,5.6236,5.512,0.0,0.0,0.0,0.0,0.0,0.0,0.0,0.0,0.0,0.0,0.0,0.0,0.0,0.0,0.0,0.0,0.0,0.0,0.0,0.0,0.0,0.0,0.0,0.0,0.0,0.0,0.0,6.2013,6.1249,0.0,0.0,0.0,0.0,0.0,0.0,0.0,0.0,0.0,0.0,0.0,6.6295,6.652,0.0,0.0,0.0,0.0,0.0,0.0,0.0,0.0,0.0,0.0,0.0,0.0,6.5667,6.7777,6.8563,6.9568,7.0922,7.0924,7.096,7.1099,6.9922,6.8006,6.531,0.0,0.0,0.0,0.0,0.0,0.0,0.0,0.0,0.0,0.0,0.0,0.0,0.0,0.0,0.0,0.0,0.0,0.0,0.0,0.0,0.0,0.0,0.0,0.0,0.0,5.8682,0.0,0.0,0.0,0.0,0.0,0.0,0.0,0.0,0.0,0.0,5.8361,5.8569,5.854,5.8815,5.8978,5.8996,5.8999,5.8996,0.0,0.0,0.0,0.0,0.0,0.0,0.0,0.0,0.0,0.0,0.0,0.0,0.0,5.906,5.8356,5.6045,5.566,5.5663,5.5625,0.0,0.0,0.0,0.0,0.0,0.0,0.0,0.0,0.0,0.0,0.0,0.0,0.0,0.0,6.5452,6.4649,6.4336,6.4222,0.0,0.0,0.0,0.0,0.0,0.0,0.0,6.9134,6.9508,6.9672,6.9944,6.9755,6.9209,6.8516,6.7184,0.0,0.0,0.0,0.0,0.0,0.0,0.0,0.0,6.729,6.9353,7.02,7.0976,7.1723,7.2105,7.2372,7.2449,7.0848,6.8932,6.6827,6.4977,6.3359,0.0,0.0,0.0,0.0,0.0,0.0,0.0,0.0,0.0,0.0,0.0,0.0,0.0,0.0,0.0,0.0,0.0,0.0,0.0,0.0,0.0,0.0,0.0,6.0526,0.0,0.0,0.0,0.0,0.0,0.0,0.0,0.0,0.0,5.9566,5.996,6.0321,6.037,6.0607,6.0767,6.0787,0.0,0.0,0.0,0.0,0.0,0.0,0.0,5.9946,6.0004,6.0021,6.0078,6.0409,6.0932,6.1406,6.1719,0.0,0.0,5.8828,5.8358,5.8354,5.8311,5.8349,5.8346,5.834,5.8809,5.9318,0.0,0.0,0.0,0.0,7.0991,0.0,0.0,0.0,6.9425,6.8898,0.0,6.7286,0.0,0.0,0.0,0.0,7.0476,7.1251,0.0,0.0,7.3328,7.3995,7.438,7.3791,7.3414,7.3277,7.2675,7.192,7.0899,6.7174,6.5154,0.0,0.0,0.0,0.0,0.0,6.9686,7.039,7.2593,7.3478,7.283,7.3731,7.3992,7.3443,7.162,7.0222,6.936,6.7075,6.536,6.4485,6.217,0.0,0.0,0.0,0.0,0.0,0.0,0.0,0.0,0.0,0.0,0.0,0.0,0.0,0.0,0.0,0.0,0.0,0.0,0.0,0.0,6.3937,0.0,0.0,0.0,0.0,0.0,0.0,0.0,0.0,0.0,6.3217,6.0972,6.1889,6.2858,6.2888,0.0,0.0,0.0,0.0,6.4062,6.4023,6.3423,6.2931,6.2972,6.2251,6.1765,6.1897,0.0,0.0,6.2965,6.3163,6.3476,6.4256,6.4487,6.3937,6.23,6.1863,6.1813,6.185,6.1844,6.1876,6.1875,6.188,6.2156,8.0112,0.0,0.0,0.0,0.0,7.6122,7.5182,7.3713,7.3675,7.2873,7.1527,7.1298,0.0,0.0,0.0,0.0,0.0,0.0,7.5476,7.6786,7.6764,7.7122,7.7831,7.7546,7.7483,7.7504,7.6825,7.6106,7.5323,7.3735,7.1408,6.8527,0.0,0.0,0.0,0.0,7.1689,7.2897,7.4063,7.491,7.5454,7.5751,7.5476,7.4576,7.4279,7.3188,7.1245,6.9997,6.8421,6.6429,6.5147,0.0,0.0,0.0,0.0,0.0,0.0,0.0,0.0,0.0,0.0,0.0,0.0,0.0,0.0,0.0,0.0,0.0,0.0,0.0,6.5579,6.5665,6.5685,0.0,0.0,0.0,0.0,0.0,0.0,0.0,0.0,0.0,6.578,6.4537,6.3726,0.0,0.0,6.4081,6.4096,6.4101,6.4101,6.4101,6.3927,0.0,6.4669,6.4533,6.459,6.5227,6.5318,6.5449,6.5738,6.6249,6.6758,6.7029,6.7533,6.7764,6.7256,6.5682,6.4769,6.5188,6.5353,6.5323,6.5355,6.5365,6.5454,8.6392,8.3426,8.1385,8.0421,8.0302,8.0294,7.9586,7.849,7.8452,7.7917,7.6914,7.6274,7.5941,7.5888,7.5852,0.0,0.0,0.0,7.9523,8.0321,8.0462,8.0742,8.1182,8.1107,8.1144,8.1194,8.0828,8.008,7.9112,7.8695,7.6927,7.3909,0.0,7.217,7.2784,7.3107,7.4018,7.5444,7.6231,7.6792,7.7101,7.7009,7.6663,7.6122,7.6094,7.525,7.3461,7.2092,7.0525,6.8667,6.6929,6.5507,0.0,0.0,0.0,0.0,0.0,0.0,0.0,0.0,0.0,0.0,0.0,6.0497,6.1376,0.0,0.0,0.0,6.5995,6.7397,6.7889,6.8251,0.0,0.0,0.0,0.0,0.0,0.0,0.0,6.8592,6.9002,6.9317,6.9353,6.8076,6.6851,6.6196,6.6137,6.6151,6.6164,0.0,6.6166,6.6166,6.6188,6.6408,6.6937,6.7035,6.7248,6.7738,6.7823,6.7833,6.7883,6.8317,6.8631,6.8711,6.9062,6.953,6.9842,6.8626,6.7598,6.778,6.7826,6.7833,6.7828,6.7875,6.7881,9.1673,9.1095,8.6448,8.4302,8.3898,8.3898,8.3751,8.3496,8.3496,8.3458,8.3267,8.1757,8.0965,8.0772,8.0624,0.0,8.1657,8.3165,8.3696,8.3502,8.4305,8.4604,8.4499,8.4411,8.4373,8.4411,8.4479,8.3728,8.2344,8.2411,8.1745,8.0228,7.7196,7.5841,7.6089,7.6018,7.6634,7.7929,7.8816,7.8965,7.8262,7.7944,7.7862,7.7989,7.7409,7.6697,7.5783,7.3607,7.1968,7.0962,6.7988,6.6284,6.615,0.0,0.0,0.0,0.0,0.0,0.0,0.0,0.0,0.0,0.0,0.0,0.0,0.0,0.0,6.6734,6.9072,0.0,7.0611,7.1378,0.0,0.0,0.0,7.2017,7.2012,7.2021,7.1982,7.1904,0.0,0.0,7.1882,7.189,7.1336,6.9802,6.9532,6.9518,6.9481,6.9442,6.9481,6.9403,6.9463,6.9523,6.9584,6.9759,6.9899,6.9966,6.9817,6.9898,6.9946,6.9909,6.987,6.9989,6.9837,7.0114,7.0895,7.1015,7.0742,7.0034,6.9719,6.9602,6.9602,6.9603,6.9604,9.5267,9.3989,9.2796,9.1064,8.9113,8.9104,8.8615,8.7804,8.7804,8.746,8.6849,8.6337,8.57,8.4915,8.4073,8.448,8.5851,8.5927,8.6616,8.7692,8.7848,8.7869,8.779,8.7189,8.6926,8.6851,8.6384,8.5635,8.4695,8.4894,8.4498,8.3512,8.2835,8.126,7.8882,7.9128,7.9561,8.0061,8.0693,8.1105,8.1207,8.072,8.0225,7.9705,7.9129,7.8126,7.6658,7.5579,7.4013,7.1922,7.0509,6.9194,6.7935,6.7,0.0,0.0,0.0,0.0,0.0,0.0,0.0,0.0,0.0,6.4803,6.5717,0.0,6.8398,0.0,7.1166,7.256,7.3212,7.4006,0.0,0.0,7.5037,7.5401,7.5401,7.5474,7.523,7.4575,7.4528,7.4326,7.3673,7.362,7.3449,7.3044,7.1972,7.1204,7.119,7.1196,7.1196,7.1196,7.1256,7.1507,7.214,7.286,7.3197,7.3296,7.3262,7.3309,7.3333,7.3375,7.3378,7.3385,7.3349,7.3467,7.3545,7.3664,7.3587,7.3317,7.2342,7.1367,7.1367,7.1366,7.1403,9.7865,9.6682,9.6682,9.5781,9.4196,9.2699,9.163,9.0975,9.1013,9.0746,9.0277,8.9773,8.8933,8.8026,8.7642,8.7989,8.881,8.8879,8.9396,9.0192,9.016,9.0132,9.0095,8.963,8.9442,8.9442,8.9037,8.8428,8.7705,8.7537,8.7071,8.6301,8.614,8.511,8.3222,8.2638,8.2556,8.2983,8.2997,8.3238,8.3617,8.2614,8.1725,8.0994,8.0639,7.968,7.8079,7.695,7.558,7.3852,7.2353,7.1126,7.026,6.9449,6.9001,0.0,0.0,0.0,0.0,0.0,0.0,0.0,0.0,0.0,0.0,0.0,7.1683,7.3,7.4324,7.5255,7.5764,7.6551,7.704,7.704,7.7436,7.7726,7.7687,7.7752,7.7588,7.7152,7.7108,7.6975,7.6531,7.6475,7.6496,7.6513,7.5774,7.4615,7.3226,7.2963,7.2969,7.2947,7.2999,7.3171,7.3685,7.414,7.4511,7.4482,7.4484,7.4492,7.4552,7.4555,7.4558,7.4567,7.4573,7.4577,7.4578,7.4544,7.4547,7.4431,7.3809,7.319,7.3157,7.3155,7.3152,10.0067,9.9288,9.9173,9.8961,9.8507,9.5404,9.3938,9.3748,9.3726,9.3704,9.3622,9.2619,9.1646,9.0796,9.1181,9.1366,9.1372,9.1939,9.2138,9.2123,9.2146,9.2123,9.2123,9.2047,9.1935,9.1822,9.1695,9.1278,9.0539,8.9972,8.9438,8.8848,8.8372,8.8121,8.8071,8.6519,8.5796,8.5901,8.5437,8.5381,8.5713,8.4083,8.295,8.2311,8.1977,8.1088,7.9592,7.8109,7.6859,7.5856,7.3827,7.2591,7.2408,7.1813,7.1492,0.0,7.1679,0.0,0.0,0.0,0.0,0.0,0.0,0.0,0.0,7.3971,7.5309,7.71,7.7886,7.8313,7.8313,7.9077,7.9576,7.9576,7.9687,7.9759,7.9759,7.9725,7.9675,7.9538,7.9509,7.9495,7.9184,7.9271,7.929,7.9131,7.9023,7.7968,7.5747,7.5142,7.5158,7.5033,7.4964,7.5012,7.5034,7.4945,7.4925,7.4891,7.4932,7.4817,7.4899,7.4901,7.486,7.4901,7.5071,7.512,7.5001,7.5132,7.5259,7.5417,7.5379,7.5117,7.459,7.4437,7.4595,10.2674,10.1827,10.1125,10.0384,9.9506,9.8137,9.7438,9.7298,9.7199,9.7051,9.6774,9.5926,9.5324,9.4895,9.4209,9.4214,9.4668,9.4703,9.4959,9.5473,9.5473,9.5473,9.5435,9.4812,9.4173,9.3512,9.2822,9.2085,9.1301,9.1377,9.1361,9.125,9.1432,9.1539,9.1539,0.0,0.0,0.0,8.719,8.7264,8.7419,8.5863,8.4996,8.4911,8.2969,0.0,8.0314,7.943,7.7922,7.5803,7.5263,0.0,0.0,0.0,0.0,0.0,0.0,0.0,0.0,0.0,0.0,0.0,7.7196,7.6368,7.4928,7.6797,7.8839,8.0556,8.0871,8.0943,8.0982,8.1713,8.2187,8.2226,8.2726,8.3166,8.3166,8.3131,8.2664,8.1319,8.1204,8.0694,7.9507,7.912,7.9218,7.9432,7.9243,7.9052,7.8547,7.8357,7.8419,7.843,7.7718,7.7462,7.7472,7.6915,7.6518,7.6536,7.6544,7.6512,7.6529,7.6535,7.6535,7.6535,7.7086,7.7517,7.7556,7.8144,7.8423,7.8575,7.8628,7.7866,7.5154,7.4533,7.4494,10.4405,10.3212,10.2789,10.2298,0.0,10.1228,10.0929,10.0787,9.9346,9.8821,9.8883,9.8084,9.7553,9.7281,9.6277,9.599,9.6239,9.6096,9.6162,9.6411,9.6411,9.6411,9.6411,9.5961,9.56,9.515,9.4737,9.4368,9.4042,9.3854,9.3577,9.3242,9.3226,9.3003,9.2635,9.2867,9.1904,8.9631,8.9256,8.9013,8.8757,8.7532,8.669,8.6317,8.4624,0.0,0.0,0.0,0.0,0.0,0.0,0.0,0.0,7.6522,0.0,7.7053,7.7923,7.8446,7.8462,7.8529,7.9134,8.041,8.1414,8.1137,7.9102,8.057,8.1943,8.2756,8.2872,8.2872,8.2911,8.3268,8.3488,8.352,8.3844,8.4095,8.4102,8.4127,8.3771,8.3027,8.2863,8.2538,8.1758,8.1602,8.1619,8.1646,8.1307,8.1056,8.1034,8.0146,7.9392,7.9415,7.9084,7.8787,7.8748,7.849,7.8205,7.8234,7.8246,7.8219,7.8247,7.8252,7.8252,7.8252,7.8613,7.8935,7.8974,7.9293,7.9576,7.9615,7.9626,7.9207,7.7307,7.705,7.6945,10.602,10.4751,10.4482,10.4318,10.4287,10.3705,10.3624,10.3721,10.1155,0.0,0.0,9.9974,9.9517,9.9217,9.8399,9.7945,9.7828,9.7684,9.7523,9.732,9.729,9.7275,9.7275,9.7275,9.714,9.687,9.687,9.6809,9.6708,9.6149,9.5609,9.509,9.478,9.4339,9.3713,9.3841,9.3451,9.2508,9.1525,9.0786,9.0254,8.9228,8.8366,8.7657,8.6421,8.5378,8.4518,8.2406,8.1105,8.0808,7.9616,7.8854,7.8739,7.9467,7.9965,8.0157,8.0941,8.1521,8.1751,8.1826,8.2269,8.3226,8.4812,8.5147,8.374,8.4288,8.4791,8.4907,8.4945,8.4945,8.4945,8.4945,8.4945,8.4945,8.4829,8.4752,8.4752,8.4565,8.4501,8.4321,8.425,8.4197,8.4008,8.3942,8.4159,8.4055,8.3407,8.3192,8.2943,8.1296,7.9986,7.9947,7.9808,7.959,7.9602,7.9419,7.9431,7.9346,7.9392,7.9481,7.9504,7.9517,7.952,7.9367,7.9625,7.9798,7.9804,8.0014,8.0032,8.0032,8.0034,8.0039,8.0042,8.0072,7.9745,10.8406,10.8098,10.6636,10.5959,10.5749,10.4161,10.4212,10.5237,10.3455,10.2633,10.26,10.2284,10.2066,10.1944,10.1695,10.1504,10.1348,10.124,10.1039,10.0872,10.077,10.0691,10.0707,10.0691,10.0018,9.8802,9.8689,9.8063,9.6993,9.6907,9.6907,9.6954,9.711,9.7203,9.7288,9.6706,9.6009,9.5215,9.3739,9.2956,9.2823,9.1318,9.0426,9.0107,8.7906,8.6288,8.5358,8.4337,8.3123,8.1709,8.1413,8.0964,8.0276,8.104,8.1805,8.2464,8.338,8.4231,8.4968,8.5089,8.5569,8.6632,8.7693,8.7896,8.7024,8.7031,8.7417,8.8112,8.8081,8.8228,8.8228,8.8119,8.8003,8.8042,8.7533,8.7108,8.7,8.646,8.5849,8.5207,8.4961,8.4698,8.4232,8.408,8.414,8.4069,8.4075,8.3942,8.3679,8.2522,8.1517,8.1335,8.0873,8.0487,8.0474,7.9824,7.9645,7.9427,7.9582,7.9742,7.9873,7.9895,7.9912,7.9643,8.0374,8.0743,8.0746,8.1256,8.1658,8.1738,8.1753,8.1766,8.1769,8.1794,8.1304,10.9297,10.8733,10.7954,10.7554,10.7395,10.6503,10.6505,10.6985,10.6259,10.5841,10.56,10.4582,10.4018,10.377,10.2746,10.2214,10.2109,10.2037,10.1875,10.1595,10.1555,10.1509,10.1509,10.1509,10.1188,10.0639,10.0616,10.0313,9.9778,9.9774,9.97,9.9437,9.8858,9.8392,9.8097,9.7806,9.7478,9.7112,9.5048,9.3798,9.3398,9.2581,9.21,9.2049,9.0008,8.8685,8.8252,8.6581,8.532,8.4546,8.4,8.3579,8.3197,8.3971,8.4543,8.4973,8.5875,8.6594,8.7035,8.7581,8.8259,8.9234,9.0086,9.066,9.0743,8.9244,8.8467,8.8853,8.8892,8.8892,8.8892,8.8892,8.8892,8.8892,8.8545,8.8305,8.8274,8.8043,8.7611,8.7194,8.6731,8.6299,8.5921,8.5526,8.5285,8.5281,8.5014,8.452,8.4114,8.3437,8.2944,8.302,8.2409,8.1964,8.1839,8.1223,8.0953,8.1329,8.1433,8.1652,8.2022,8.2162,8.2178,8.2277,8.2606,8.2818,8.2877,8.3195,8.3471,8.351,8.3519,8.3529,8.3496,8.3192,8.2234,11.0238,10.9485,10.9112,10.8776,10.8458,10.8366,10.8486,10.8742,10.8742,10.8806,10.8614,10.6766,10.5781,10.5482,10.405,10.3364,10.3302,10.322,10.2998,10.2584,10.2485,10.2394,10.2244,10.2206,10.2222,10.2236,10.2213,10.2173,10.2152,10.2157,10.2022,10.1596,10.0607,9.9708,9.8949,9.886,9.8714,9.8408,9.6407,9.493,9.4229,9.3928,9.3684,9.3385,9.1973,9.1079,9.0774,8.8957,8.7791,8.76,8.6885,8.6479,8.6479,8.7051,8.7491,8.7752,8.8447,8.9037,8.933,8.9965,9.0714,9.1375,9.2046,9.2669,9.3121,9.129,8.9929,8.9883,8.9836,8.9682,8.972,8.9498,8.9352,8.9352,8.9159,8.9027,8.9043,8.8928,8.8782,8.8721,8.8228,8.7804,8.775,8.731,8.6863,8.6577,8.5921,8.5133,8.4604,8.4456,8.4539,8.4462,8.3882,8.3269,8.3236,8.2776,8.2673,8.3306,8.3344,8.3536,8.4043,8.4375,8.4474,8.4307,8.4412,8.4394,8.4581,8.4634,8.4559,8.4523,8.4484,8.4562,8.4487,8.4098,8.325,11.2017,11.1737,11.0356,10.9212,10.8557,10.8397,10.9175,11.0398,11.0462,11.092,11.1212,10.8787,10.7599,10.7507,10.6975,10.6627,10.6651,10.6669,10.6141,10.5362,10.5279,10.4825,10.4108,10.407,10.3746,10.329,10.3267,10.3075,10.2611,10.2598,10.2623,10.2817,10.2812,10.2349,10.1547,10.0768,10.0054,9.9328,9.8284,9.7423,9.6691,9.5925,9.5145,9.431,9.3382,9.2504,9.1805,9.1364,9.0803,9.0155,8.9854,8.9748,8.9748,8.9825,9.0212,9.101,9.1173,9.1659,9.2504,9.2762,9.2873,9.2988,9.3223,9.3388,9.3503,9.3159,9.2958,9.2814,9.2239,9.173,9.174,9.1145,9.0732,9.0597,9.0051,8.9553,8.9504,8.8901,8.8468,8.8519,8.8555,8.8448,8.8543,8.8463,8.8181,8.7542,8.6894,8.6361,8.6191,8.6044,8.6052,8.5885,8.4997,8.4162,8.4061,8.405,8.389,8.4099,8.4197,8.4388,8.4587,8.4703,8.4578,8.5266,8.4883,8.5003,8.5021,8.4649,8.491,8.5225,8.5104,8.4793,8.4718,8.4679,8.4179,11.3018,11.288,11.2229,11.1658,11.1264,11.1162,11.1531,11.2143,11.2181,11.2372,11.2537,11.1397,11.0017,10.8461,10.7659,10.7286,10.7286,10.7227,10.6987,10.6572,10.6496,10.6292,10.5974,10.5937,10.5838,10.5669,10.5683,10.5523,10.5358,10.5493,10.5253,10.457,10.4593,10.4004,10.2743,10.2323,10.1991,10.1647,10.0795,9.9928,9.9056,9.7844,9.698,9.6504,9.5215,9.4341,9.3872,9.2893,9.2101,9.1785,9.1643,9.1573,9.1573,9.1573,9.1784,9.2242,9.2389,9.287,9.3754,9.4305,9.4823,9.5359,9.544,9.5462,9.5423,9.5013,9.4707,9.4564,9.3596,9.2871,9.2861,9.2554,9.2171,9.1682,9.1299,9.0877,9.0379,9.0101,8.9899,8.9889,8.9438,8.9215,8.9238,8.8979,8.8623,8.8279,8.7932,8.7725,8.7757,8.7387,8.7102,8.6955,8.6156,8.5344,8.4921,8.4383,8.4469,8.482,8.5031,8.5163,8.5766,8.5928,8.6127,8.6582,8.6644,8.6927,8.7733,8.761,8.7637,8.7131,8.639,8.6157,8.6196,8.5806,8.5338,11.3788,11.3674,11.3432,11.3304,11.3213,11.348,11.3709,11.3939,11.4116,11.4244,11.418,11.3827,11.2431,11.0402,10.9234,10.8596,10.84,10.8309,10.8023,10.7593,10.7502,10.735,10.7161,10.7161,10.7221,10.7272,10.7248,10.7292,10.7469,10.7666,10.7274,10.6376,10.6324,10.5533,10.4081,10.3852,10.366,10.3138,10.2552,10.1941,10.1215,10.0072,9.8979,9.8051,9.6787,9.6081,9.6007,9.4746,9.404,9.4028,9.3907,9.3832,9.3794,9.3794,9.3869,9.4076,9.4285,9.4687,9.532,9.5942,9.6554,9.7165,9.7241,9.7241,9.7127,9.663,9.6324,9.6183,9.51,9.4303,9.3701,9.3461,9.3049,9.2436,9.236,9.2053,9.1277,9.1134,9.1019,9.0819,9.0215,8.9966,9.0011,8.9516,8.9038,8.9026,8.8833,8.8735,8.8708,8.8186,8.7863,8.7888,8.7411,8.6708,8.5791,8.5577,8.5456,8.5911,8.6409,8.696,8.7464,8.7601,8.7681,8.806,8.8549,8.8758,8.8834,8.9302,8.9614,8.892,8.818,8.7517,8.7443,8.6897,8.6429,11.4462,11.4372,11.3557,11.3442,11.3314,11.4168,11.4932,11.5658,11.6422,11.6804,11.6559,11.5674,11.4693,11.3675,11.2664,11.1772,11.0954,11.0788,11.0015,10.8749,10.8636,10.812,10.7324,10.7286,10.74,10.7741,10.7779,10.781,10.8001,10.789,10.7899,10.8068,10.8054,10.7214,10.5838,10.5609,10.4807,10.3596,10.3317,10.3126,10.2999,10.2737,10.0985,9.8468,9.7858,9.771,9.7513,9.7351,9.7174,9.7212,9.6931,9.6916,9.6991,9.6929,9.7021,9.7286,9.7482,9.765,9.7792,9.788,9.7994,9.8071,9.8071,9.8071,9.8032,9.7841,9.7727,9.788,9.7035,9.6014,9.4714,9.3933,9.3349,9.312,9.3071,9.2688,9.1886,9.183,9.142,9.0967,9.0653,9.0627,9.0837,9.023,8.9862,8.9722,8.9248,8.8872,8.8957,8.8765,8.8658,8.8636,8.8502,8.8166,8.6889,8.6844,8.7402,8.7668,8.8003,8.8821,8.9132,8.9316,8.931,8.939,8.9523,8.9613,8.9657,8.9738,8.9851,8.948,8.8941,8.8516,8.8438,8.7709,8.74,11.6932,11.6894,11.6575,11.646,11.6499,11.6804,11.7124,11.7377,11.7683,11.7781,11.7607,11.7189,11.674,11.6205,11.5879,11.4277,11.2001,11.1849,11.1546,11.0977,11.0977,11.0826,11.056,11.0522,11.0522,11.0485,11.0522,11.0686,11.0882,11.0454,11.0033,10.9697,10.9239,10.8398,10.7481,10.729,10.6717,10.5597,10.5001,10.4417,10.3832,10.3135,10.2106,10.0925,9.9771,9.896,9.8415,9.7742,9.736,9.736,9.7308,9.7281,9.7295,9.7374,9.7503,9.7679,9.7825,9.8184,9.8823,9.8923,9.9152,9.9599,9.919,9.8961,9.8846,9.8453,9.8071,9.8032,9.788,9.7307,9.6745,9.5522,9.449,9.4032,9.3917,9.3612,9.2886,9.2618,9.2334,9.1573,9.1051,9.0769,9.0896,9.0713,9.0642,9.0684,9.0479,9.0287,9.0171,8.9863,8.9479,8.9363,8.9051,8.8587,8.8251,8.8294,8.859,8.8744,8.901,8.9145,8.9374,8.9598,8.9599,9.0201,9.0363,9.0631,9.0755,9.0634,9.0633,9.0388,8.9851,8.9379,8.9266,8.8693,8.8669,11.8308,11.8308,11.8308,11.8308,11.8346,11.8614,11.869,11.8715,11.8902,11.8933,11.8781,11.8427,11.8135,11.7877,11.7587,11.6257,11.3987,11.3403,11.2835,11.2342,11.2304,11.2304,11.2304,11.2304,11.2304,11.2266,11.2304,11.247,11.2709,11.2205,11.1786,11.148,11.0653,10.985,10.9086,10.8742,10.8157,10.7291,10.663,10.5968,10.5294,10.4617,10.394,10.3252,10.2134,10.1007,9.9982,9.9268,9.8924,9.8911,9.8911,9.8911,9.8924,9.9005,9.9111,9.9277,9.9452,9.9777,10.0466,10.0604,10.0871,10.133,10.068,10.0222,10.0145,9.9408,9.8988,9.8873,9.8617,9.8529,9.8262,9.7241,9.6095,9.532,9.4987,9.4452,9.3688,9.3497,9.3115,9.2323,9.1573,9.1217,9.1193,9.1078,9.1028,9.1192,9.1201,9.1201,9.1095,9.0748,9.0316,9.0287,8.9975,8.9789,8.9725,8.9894,8.9697,8.9782,9.0004,8.9985,8.997,9.0035,9.0331,9.0973,9.1397,9.1661,9.1734,9.1611,9.1486,9.136,9.0781,9.0154,9.001,8.9831,8.9652,11.8385,11.8461,11.8346,11.8576,11.8753,11.9427,11.958,11.9781,12.0264,12.0497,12.0347,11.9421,11.907,11.8704,11.8123,11.7361,11.6792,11.5563,11.4123,11.2797,11.2645,11.2569,11.2531,11.2683,11.2797,11.2835,11.2531,11.266,11.3089,11.299,11.2978,11.2994,11.227,11.1429,11.0691,10.9939,10.8997,10.8244,10.7925,10.7745,10.7662,10.7182,10.6339,10.5148,10.4732,10.3956,10.2425,10.216,10.1843,10.1957,10.1995,10.2222,10.1881,10.1895,10.2208,10.2219,10.2474,10.2715,10.2975,10.2946,10.2782,10.282,10.2323,10.1788,10.1635,10.11,10.0604,10.0401,9.9916,9.9458,9.9305,9.8541,9.7612,9.6936,9.6057,9.5293,9.4643,9.4365,9.4059,9.3191,9.2372,9.1921,9.1882,9.1654,9.1385,9.1503,9.1518,9.1556,9.1595,9.1373,9.1219,9.1313,9.1219,9.1126,9.1314,9.147,9.1088,9.0858,9.1165,9.1302,9.1294,9.1354,9.1578,9.2094,9.2465,9.2729,9.2808,9.2681,9.2462,9.2212,9.1546,9.108,9.0864,9.0686,9.033,12.0014,12.009,12.0625,12.0854,12.0917,12.1619,12.1905,12.189,12.2047,12.204,12.1817,12.1518,12.0988,12.0345,11.9938,11.924,11.8217,11.7572,11.6511,11.5109,11.4897,11.454,11.4199,11.4616,11.5184,11.5655,11.5715,11.5521,11.5096,11.4594,11.4207,11.3813,11.3104,11.2557,11.2227,11.1412,11.0506,10.9571,10.8852,10.825,10.7624,10.7445,10.7108,10.6676,10.6557,10.624,10.5709,10.3549,10.2374,10.2374,10.2298,10.2298,10.2336,10.2298,10.2397,10.265,10.2689,10.2855,10.3166,10.324,10.329,10.3164,10.2946,10.282,10.2782,10.2514,10.2056,10.1624,10.1253,10.0948,10.026,9.9496,9.8464,9.705,9.6668,9.6172,9.5369,9.4758,9.4327,9.3983,9.3229,9.2828,9.2916,9.2631,9.2575,9.2751,9.2787,9.2826,9.2796,9.2378,9.2499,9.2892,9.2707,9.2464,9.2651,9.2805,9.2608,9.2215,9.2276,9.2413,9.2437,9.2613,9.2832,9.3059,9.3425,9.3646,9.3726,9.3663,9.3401,9.3206,9.2769,9.2351,9.1942,9.1702,9.1512,12.1733,12.1757,12.2173,12.2373,12.2397,12.277,12.2938,12.2908,12.2755,12.2591,12.2512,12.2431,12.2106,12.1569,12.1476,12.0756,11.9581,11.9505,11.8596,11.7155,11.6641,11.6224,11.5829,11.6261,11.6792,11.7209,11.7323,11.7137,11.676,11.619,11.5627,11.5007,11.4236,11.3664,11.3321,11.2559,11.1728,11.1016,11.0512,10.9856,10.9419,10.9202,10.8855,10.8362,10.8248,10.7907,10.7248,10.5178,10.4155,10.4155,10.4155,10.4155,10.4155,10.4231,10.4129,10.4108,10.4111,10.4176,10.4159,10.4234,10.4119,10.4119,10.3852,10.366,10.3584,10.3431,10.2896,10.2514,10.2018,10.1662,10.11,10.0336,9.9266,9.8006,9.7547,9.7012,9.6172,9.5369,9.4911,9.4692,9.4113,9.3799,9.3808,9.3572,9.3563,9.3674,9.3672,9.3737,9.3687,9.3354,9.362,9.3756,9.3483,9.3547,9.3918,9.4063,9.409,9.3727,9.3362,9.3381,9.3359,9.3619,9.3875,9.3886,9.4174,9.4174,9.4289,9.4395,9.4239,9.4073,9.389,9.3638,9.3318,9.3288,9.3216,12.3233,12.3257,12.3111,12.3037,12.306,12.306,12.3097,12.2967,12.2825,12.2821,12.2697,12.2734,12.2516,12.2386,12.2348,12.1817,12.1173,12.0983,12.0171,11.8861,11.8065,11.7588,11.7307,11.7361,11.7512,11.7648,11.7664,11.7554,11.7549,11.7435,11.7216,11.6438,11.573,11.5007,11.4245,11.337,11.2827,11.2468,11.2339,11.2113,11.1978,11.2039,11.1432,10.9992,10.9916,10.9333,10.8196,10.7627,10.7324,10.7248,10.6869,10.6794,10.7135,10.7286,10.6748,10.6354,10.6533,10.6222,10.5917,10.5647,10.5647,10.5571,10.4921,10.4463,10.4425,10.4004,10.3558,10.3278,10.2667,10.212,10.1903,10.1215,10.0298,9.9496,9.8502,9.77,9.705,9.6248,9.5915,9.5632,9.5096,9.4676,9.4788,9.4273,9.4061,9.4029,9.4104,9.4273,9.4249,9.4262,9.4111,9.4186,9.4428,9.4613,9.4982,9.5209,9.5271,9.5209,9.4744,9.4511,9.4288,9.4463,9.4973,9.4984,9.4912,9.4912,9.5034,9.5262,9.5145,9.484,9.4773,9.475,9.4596,9.4338,9.4349,12.2946,12.2984,12.351,12.3746,12.3806,12.4182,12.4384,12.4405,12.4242,12.4062,12.4159,12.4163,12.3712,12.322,12.3182,12.2727,12.2121,12.1969,12.1438,12.0491,12.0188,11.9278,11.8444,11.8292,11.8596,11.9013,11.905,11.8877,11.8356,11.8334,11.792,11.7277,11.7011,11.6479,11.5681,11.4807,11.4048,11.3305,11.2668,11.2478,11.2433,11.2418,11.2114,11.1773,11.1622,11.1394,11.0902,11.0409,10.912,10.7438,10.7286,10.7286,10.74,10.74,10.7469,10.7441,10.7447,10.7491,10.7368,10.6908,10.6603,10.6526,10.5838,10.5368,10.538,10.5189,10.473,10.4272,10.3813,10.3469,10.2858,10.2056,10.1215,10.0298,9.9217,9.8223,9.7841,9.7612,9.7264,9.6741,9.644,9.6173,9.5846,9.5627,9.5502,9.5586,9.5621,9.5606,9.5551,9.5203,9.5036,9.5532,9.5771,9.5838,9.6011,9.6235,9.6411,9.654,9.6216,9.5795,9.5443,9.5173,9.5822,9.6383,9.6155,9.6078,9.635,9.666,9.6228,9.565,9.5644,9.5597,9.5049,9.4707,9.4872,12.3851,12.3874,12.4267,12.4426,12.447,12.478,12.4887,12.4908,12.4824,12.4774,12.4774,12.4774,12.4508,12.4091,12.4054,12.3599,12.2879,12.2803,12.2348,12.1666,12.1514,12.0756,11.996,11.9922,12.0225,12.0263,12.0301,11.9846,11.924,11.9088,11.8682,11.8116,11.798,11.7525,11.6706,11.6273,11.5711,11.5216,11.4616,11.4275,11.3934,11.3896,11.3403,11.3062,11.2835,11.2721,11.2304,11.1811,11.0712,10.9219,10.8575,10.8347,10.8347,10.8347,10.8313,10.8288,10.8281,10.8265,10.8067,10.7673,10.7481,10.729,10.6679,10.6297,10.6106,10.5953,10.538,10.5036,10.4654,10.4195,10.3699,10.2935,10.2285,10.175,10.0795,9.9801,9.8846,9.8357,9.8019,9.7675,9.758,9.7549,9.7163,9.7174,9.725,9.7296,9.7013,9.6977,9.69,9.6381,9.6112,9.6529,9.6781,9.6807,9.7062,9.7355,9.7703,9.7798,9.7751,9.7285,9.6681,9.62,9.6566,9.7121,9.7199,9.7276,9.7393,9.7399,9.6949,9.6576,9.653,9.6454,9.6069,9.5902,9.5949,12.525,12.5196,12.5051,12.497,12.4915,12.4841,12.4791,12.4791,12.4791,12.4774,12.4774,12.4774,12.4736,12.4774,12.4622,12.4319,12.3637,12.3637,12.3106,12.2613,12.2348,12.1969,12.1438,12.1628,12.159,12.1211,12.1173,12.0794,12.0301,12.0074,11.9581,11.9067,11.8839,11.8255,11.7604,11.7399,11.7399,11.7058,11.6792,11.6397,11.598,11.5882,11.5352,11.448,11.4009,11.3706,11.31,11.2607,11.2001,11.1356,11.0522,11.0143,11.0068,11.0068,10.9763,10.9287,10.9277,10.9073,10.8472,10.8424,10.8309,10.8195,10.752,10.6946,10.6755,10.6259,10.5838,10.5571,10.496,10.4577,10.4234,10.3699,10.324,10.2946,10.2908,10.1965,10.0344,9.9151,9.8643,9.8457,9.8636,9.8689,9.8672,9.874,9.8768,9.8159,9.8039,9.7988,9.7918,9.7619,9.7394,9.7429,9.7602,9.765,9.8066,9.8472,9.8852,9.9155,9.9107,9.8769,9.8031,9.762,9.7543,9.7743,9.8131,9.817,9.7976,9.7793,9.7626,9.774,9.7932,9.7825,9.7675,9.7697,9.7734,12.4892,12.4892,12.4858,12.4841,12.4824,12.4829,12.4774,12.4774,12.4774,12.4774,12.4774,12.4774,12.4774,12.4774,12.4774,12.466,12.4433,12.4395,12.4054,12.3333,12.3258,12.3182,12.2841,12.2689,12.2234,12.2007,12.2007,12.1893,12.1628,12.1021,12.068,12.0453,11.9846,11.9164,11.8482,11.8406,11.7951,11.7475,11.7361,11.7307,11.7133,11.7058,11.683,11.6261,11.5769,11.5465,11.5048,11.4025,11.3251,11.291,11.2342,11.1849,11.1622,11.1622,11.1318,11.0829,11.0712,11.0512,10.9957,10.9402,10.9047,10.9061,10.8386,10.7634,10.6946,10.6794,10.6335,10.5915,10.552,10.5151,10.4577,10.431,10.394,10.3582,10.3411,10.3202,10.2448,10.1694,10.076,10.0017,9.9678,9.9431,9.8942,9.9028,9.9073,9.8925,9.8936,9.8921,9.8817,9.8748,9.8559,9.8366,9.8498,9.8667,9.9138,9.9569,9.9976,10.0266,10.0289,10.0268,9.953,9.9141,9.9102,9.9141,9.9297,9.9147,9.8725,9.8952,9.8907,9.9098,9.9216,9.9068,9.8995,9.9175,9.9152,12.4774,12.4774,12.4774,12.4774,12.4774,12.4774,12.4774,12.4774,12.4774,12.4774,12.4774,12.4774,12.4774,12.4774,12.4774,12.4774,12.4774,12.4774,12.4584,12.4167,12.4129,12.4129,12.4091,12.3675,12.3333,12.2954,12.2879,12.2727,12.2234,12.1893,12.159,12.159,12.1173,12.0604,11.9846,11.9695,11.9316,11.8709,11.8444,11.833,11.7989,11.7913,11.7626,11.7361,11.6868,11.6678,11.6489,11.5867,11.52,11.473,11.4313,11.3441,11.2493,11.2304,11.2084,11.1894,11.1808,11.1501,11.0896,11.0591,11.0241,10.99,10.9201,10.8653,10.8054,10.7787,10.7367,10.6908,10.6488,10.5915,10.5151,10.4998,10.4742,10.4635,10.4503,10.4392,10.4023,10.3328,10.2632,10.181,10.1449,10.1144,10.0731,10.0353,10.0212,10.0496,9.9969,9.9914,9.973,9.9573,9.9373,9.9248,9.9429,9.9712,10.0215,10.0666,10.106,10.126,10.1344,10.135,10.1039,10.0812,10.0695,10.0423,10.0035,9.9752,9.9458,9.9801,9.9959,9.978,9.9782,9.9973,10.0032,9.9893,9.9787,12.4774,12.4774,12.4774,12.4774,12.4774,12.4774,12.4774,12.4774,12.4774,12.4774,12.4774,12.4774,12.4774,12.4774,12.4774,12.4774,12.4774,12.4774,12.4698,12.466,12.4622,12.466,12.4622,12.4508,12.4281,12.375,12.3712,12.3333,12.2954,12.2537,12.2462,12.2462,12.2272,12.1704,12.1249,12.1173,12.0832,12.0263,12.015,11.9809,11.9202,11.905,11.8671,11.8027,11.761,11.7496,11.7421,11.7133,11.6868,11.6337,11.6299,11.5033,11.3555,11.2683,11.2569,11.2584,11.2615,11.2249,11.1667,11.1443,11.1163,11.0645,11.0002,10.9506,10.9188,10.8704,10.8284,10.7902,10.7443,10.6882,10.6207,10.6231,10.6292,10.6234,10.6231,10.5886,10.5339,10.4607,10.4111,10.3468,10.2895,10.2511,10.2433,10.2246,10.2143,10.195,10.1382,10.0991,10.0882,10.0937,10.1006,10.1169,10.1614,10.1768,10.2187,10.2231,10.2599,10.2443,10.2521,10.236,10.2282,10.1855,10.1433,10.0889,10.0468,10.0379,10.0451,10.0755,10.0733,10.0414,10.0565,10.0971,10.0871,10.0536,10.0613,12.4774,12.4774,12.4774,12.4774,12.4812,12.4812,12.4849,12.4774,12.4925,12.4812,12.4812,12.4812,12.4849,12.4849,12.4812,12.4812,12.5001,12.5077,12.5001,12.5001,12.5001,12.5001,12.5077,12.5115,12.4849,12.466,12.4622,12.4546,12.4091,12.3712,12.3333,12.3182,12.2765,12.2272,12.2196,12.2083,12.1969,12.159,12.1552,12.1211,12.068,12.0339,12.0036,11.924,11.8709,11.8406,11.8217,11.7724,11.7209,11.7133,11.7095,11.6489,11.5465,11.4654,11.4009,11.3532,11.3411,11.3093,11.2415,11.1752,11.1543,11.1277,11.0775,11.004,10.9608,10.9303,10.8972,10.8437,10.8182,10.7913,10.7947,10.7691,10.7942,10.7933,10.7526,10.7143,10.6923,10.6423,10.5572,10.486,10.4311,10.38,10.373,10.3571,10.334,10.324,10.3042,10.2911,10.2962,10.3248,10.3555,10.3833,10.4182,10.4245,10.4386,10.4191,10.4191,10.3881,10.3725,10.3337,10.3143,10.2554,10.2094,10.195,10.1767,10.1668,10.1745,10.1831,10.2046,10.2071,10.2136,10.216,10.2203,10.2211,10.2211,12.4774,12.4774,12.4774,12.5039,12.538,12.5418,12.5683,12.6062,12.61,12.5852,12.5532,12.5418,12.5418,12.5418,12.5418,12.5645,12.5987,12.61,12.61,12.61,12.6062,12.61,12.6024,12.6062,12.61,12.61,12.6062,12.5532,12.4849,12.4395,12.4205,12.4091,12.3712,12.3409,12.303,12.2916,12.2689,12.2462,12.231,12.2158,12.1628,12.1325,12.0756,12.0339,11.9695,11.9278,11.9164,11.8899,11.8368,11.8065,11.7951,11.7496,11.6776,11.5996,11.5109,11.4442,11.4215,11.3851,11.3222,11.2675,11.2541,11.2062,11.1478,11.1029,11.0612,11.0283,10.9736,10.9099,10.8906,10.8752,10.8366,10.8552,10.8569,10.8557,10.8328,10.8223,10.8213,10.7979,10.7259,10.6341,10.5599,10.5078,10.4755,10.4593,10.4391,10.4395,10.4521,10.4635,10.4816,10.497,10.5159,10.5113,10.5138,10.5189,10.5285,10.5285,10.5324,10.5124,10.4774,10.4425,10.412,10.3654,10.3677,10.3739,10.3472,10.2834,10.2954,10.301,10.3407,10.372,10.3745,10.3727,10.3883,10.3922,10.377,12.4774,12.4812,12.4963,12.5418,12.5949,12.6214,12.6631,12.7199,12.7237,12.6876,12.6328,12.6252,12.6252,12.6252,12.6328,12.6631,12.7275,12.7199,12.7162,12.7141,12.7141,12.7237,12.7275,12.7275,12.7124,12.6972,12.7048,12.661,12.5759,12.5418,12.5229,12.5039,12.5039,12.4622,12.394,12.3788,12.3295,12.303,12.2803,12.2765,12.2386,12.1779,12.1249,12.1173,12.0491,12.0036,12.002,11.9695,11.9354,11.8975,11.8747,11.8482,11.761,11.6982,11.6208,11.5412,11.5033,11.4426,11.404,11.3609,11.3259,11.2816,11.2233,11.1977,11.1767,11.1287,11.0691,11.0092,10.9811,10.9718,10.9306,10.9144,10.9259,10.9283,10.9271,10.9066,10.9163,10.909,10.8916,10.8006,10.7012,10.6507,10.6328,10.5744,10.5531,10.5581,10.5697,10.5708,10.581,10.5754,10.5851,10.5727,10.57,10.57,10.5784,10.5901,10.5978,10.5978,10.5629,10.5202,10.5052,10.487,10.486,10.4705,10.417,10.3651,10.388,10.4099,10.4291,10.4551,10.5005,10.5052,10.474,10.4666,10.4631,12.4774,12.4849,12.557,12.5911,12.6138,12.6858,12.7199,12.7351,12.7427,12.7237,12.7141,12.7124,12.7141,12.7179,12.7199,12.7293,12.7406,12.7503,12.7578,12.7616,12.7578,12.7578,12.7389,12.7275,12.7578,12.7654,12.7541,12.7255,12.6934,12.6896,12.6479,12.5987,12.5797,12.5494,12.4887,12.4849,12.4584,12.4508,12.4433,12.4091,12.3371,12.2575,12.2196,12.1931,12.14,12.0794,12.0626,12.0263,11.9771,11.9641,11.9565,11.9224,11.8596,11.8406,11.7838,11.6852,11.5807,11.473,11.4631,11.4283,11.3905,11.3593,11.3061,11.2822,11.2554,11.2217,11.1761,11.1735,11.12,11.08,11.0716,11.0832,11.1034,11.0748,11.0371,11.0192,11.0139,11.0102,10.9973,10.9719,10.8732,10.835,10.8084,10.7335,10.6749,10.6797,10.6834,10.6875,10.6989,10.7042,10.7074,10.7132,10.7144,10.7144,10.695,10.6989,10.6833,10.6911,10.6445,10.6056,10.5964,10.5793,10.54,10.5127,10.4756,10.4761,10.5095,10.5269,10.517,10.5382,10.5831,10.564,10.5173,10.5255,10.5574,12.5077,12.5532,12.5873,12.6555,12.7427,12.7844,12.8261,12.864,12.8715,12.8412,12.8051,12.7995,12.7957,12.8033,12.845,12.8715,12.8715,12.864,12.8678,12.864,12.864,12.864,12.8753,12.8715,12.8715,12.8602,12.8715,12.8829,12.8488,12.773,12.7027,12.682,12.6707,12.6648,12.6045,12.6176,12.5911,12.5494,12.5039,12.4622,12.4129,12.3485,12.2992,12.2916,12.2158,12.159,12.1059,12.0756,12.0225,11.9944,11.9792,11.9678,11.924,11.8899,11.8368,11.8065,11.6928,11.6072,11.5579,11.5184,11.4861,11.439,11.3883,11.3407,11.3129,11.2906,11.2717,11.2756,11.2601,11.2276,11.1984,11.2032,11.1797,11.1596,11.1437,11.1307,11.1144,11.1065,11.0964,11.0747,11.052,10.9995,10.9548,10.8968,10.836,10.8245,10.8351,10.8454,10.864,10.8861,10.888,10.8886,10.8886,10.8886,10.862,10.8465,10.7999,10.7882,10.7299,10.7001,10.6887,10.6644,10.6521,10.6492,10.6547,10.6545,10.6577,10.6278,10.6052,10.6333,10.6692,10.6459,10.6264,10.6584,10.6872,12.5432,12.6169,12.6293,12.7162,12.8506,12.8715,12.917,12.9721,12.9721,12.9398,12.8981,12.8829,12.8829,12.8943,12.9398,12.9607,12.9721,12.9797,12.9797,12.9797,12.9797,12.9683,12.9587,12.9701,12.9701,12.9797,12.9532,12.9587,12.9284,12.8678,12.7995,12.7616,12.7509,12.7319,12.7206,12.7054,12.6713,12.6328,12.557,12.5191,12.4925,12.4281,12.3902,12.3599,12.303,12.231,12.1704,12.1043,12.0604,12.0301,11.9868,11.9754,11.9603,11.9278,11.9013,11.8785,11.8179,11.761,11.6966,11.6451,11.6036,11.5393,11.4802,11.4292,11.3987,11.3723,11.3597,11.3699,11.349,11.3227,11.2997,11.2967,11.2894,11.267,11.2443,11.233,11.2232,11.2132,11.182,11.1469,11.131,11.1194,11.0777,11.0468,11.0087,10.9794,10.9829,10.9918,10.998,11.0123,10.9935,10.9786,10.9702,10.9702,10.9591,10.9397,10.9125,10.8853,10.8271,10.8107,10.8148,10.8233,10.8276,10.8288,10.8181,10.8364,10.8351,10.7619,10.6969,10.7121,10.7277,10.7511,10.7593,10.7874,10.7862,12.5833,12.6681,12.706,12.773,12.8602,12.9398,12.9721,12.9797,12.9797,12.9721,12.9587,12.9645,12.957,12.9645,12.9701,12.9797,12.9797,12.9797,12.9797,12.9797,12.9797,12.9797,12.9797,12.9797,12.9797,12.9797,12.9797,12.9797,12.9759,12.9532,12.8943,12.8508,12.8291,12.771,12.739,12.735,12.7307,12.692,12.6235,12.5797,12.557,12.5077,12.4622,12.4433,12.3902,12.3371,12.322,12.2007,12.1043,12.0832,12.0301,11.9846,11.9771,11.9619,11.9489,11.9413,11.9354,11.8823,11.8292,11.755,11.6925,11.6297,11.575,11.5405,11.5326,11.4834,11.4631,11.4566,11.4406,11.405,11.3884,11.3879,11.3882,11.3648,11.343,11.3362,11.3262,11.3161,11.2849,11.2277,11.2131,11.2209,11.1977,11.1637,11.1102,11.0732,11.0648,11.0736,11.0582,11.0595,11.0407,11.0291,11.0168,11.0129,11.009,10.998,10.9941,10.9786,10.9397,10.944,10.961,10.9694,10.9426,10.953,10.942,10.9793,10.9888,10.8875,10.8138,10.7865,10.79,10.8329,10.8466,10.8521,10.8434,12.6212,12.7438,12.7623,12.8204,12.9144,12.9485,12.9708,12.9797,12.9797,12.9797,12.9797,12.9797,12.9797,12.9797,12.9797,12.9797,12.9797,12.9797,12.9797,12.9797,12.9797,12.9797,12.9797,12.9797,12.9797,12.9797,12.9797,12.9797,12.9797,12.9797,12.9594,12.9182,12.8922,12.8811,12.8397,12.7904,12.7824,12.7496,12.6731,12.6024,12.5835,12.5229,12.4774,12.4736,12.4622,12.3978,12.3485,12.2954,12.2045,12.1249,12.0756,12.0301,11.9922,11.9846,11.9792,11.9792,11.9792,11.9603,11.9278,11.8536,11.7851,11.7307,11.6755,11.6444,11.6474,11.5867,11.5562,11.5433,11.5387,11.5068,11.4846,11.4844,11.4774,11.4548,11.4462,11.4412,11.4274,11.4134,11.3881,11.3339,11.3378,11.3494,11.3146,11.2797,11.2179,11.1631,11.154,11.1468,11.1353,11.1301,11.1184,11.1145,11.1106,11.1223,11.1223,11.1068,11.0835,11.064,11.0446,11.0502,11.0522,11.0133,10.9986,11.025,11.0451,11.0464,11.0277,10.9771,10.9342,10.903,10.9147,10.9459,10.9445,10.9238,10.9114,12.6628,12.7721,12.8022,12.8626,12.9398,12.9471,12.9562,12.9726,12.9779,12.9797,12.9797,12.9797,12.9797,12.9797,12.9797,12.9797,12.9797,12.9797,12.9797,12.9797,12.9797,12.9797,12.9797,12.9797,12.9797,12.9797,12.9797,12.9797,12.9797,12.9762,12.9542,12.9397,12.9342,12.9136,12.8966,12.8758,12.8509,12.826,12.7512,12.6555,12.6403,12.5645,12.4963,12.4887,12.4736,12.4508,12.3978,12.3485,12.2879,12.2007,12.1325,12.0756,12.0301,11.996,11.983,11.9792,11.9792,11.9792,11.9619,11.9141,11.8568,11.8127,11.7694,11.7427,11.7267,11.6799,11.6455,11.6502,11.6442,11.6208,11.5801,11.5776,11.5781,11.564,11.5687,11.5636,11.5199,11.4964,11.4693,11.4345,11.4383,11.4229,11.4091,11.3644,11.2962,11.2336,11.1999,11.2005,11.2097,11.2117,11.2194,11.2194,11.2233,11.235,11.2505,11.2117,11.1767,11.165,11.1475,11.1264,11.1155,11.0883,11.0946,11.1407,11.1477,11.1135,11.1096,11.1135,11.0745,11.0238,11.0277,11.0199,11.0021,10.9811,11.0004,12.7274,12.7424,12.8213,12.8789,12.9192,12.9398,12.9489,12.9544,12.9726,12.9797,12.9797,12.9797,12.9797,12.9797,12.9911,12.9986,13.0024,13.0024,13.01,13.0176,13.0307,13.0024,12.9911,12.9949,12.9949,12.9797,12.9797,12.9797,12.9797,12.9616,12.9434,12.9211,12.9078,12.8944,12.8924,12.9097,12.9248,12.932,12.8592,12.7847,12.7048,12.6252,12.5532,12.4925,12.4774,12.466,12.447,12.4016,12.3485,12.2954,12.1931,12.1362,12.1021,12.0301,12.0036,11.996,11.9846,11.9809,11.9749,11.9276,11.9071,11.8971,11.8547,11.8335,11.8253,11.786,11.7398,11.747,11.7189,11.6836,11.6697,11.6715,11.6749,11.6625,11.6641,11.6523,11.6077,11.5853,11.5621,11.5505,11.5041,11.4663,11.465,11.4414,11.3684,11.308,11.2581,11.2535,11.2874,11.3088,11.3243,11.3282,11.336,11.3321,11.336,11.2971,11.266,11.2589,11.2608,11.2586,11.2522,11.2406,11.2557,11.271,11.2382,11.1992,11.2382,11.2771,11.2226,11.1641,11.0901,11.0671,11.0485,11.0579,11.0925,12.7547,12.8193,12.8493,12.8686,12.8845,12.9021,12.9249,12.9489,12.9708,12.9797,12.9797,12.9797,12.9797,12.9911,13.0421,13.0611,13.0686,13.1369,13.1482,13.1407,13.1331,13.1065,13.08,13.0497,13.0307,12.9911,12.9797,12.9797,12.9797,12.9562,12.9379,12.9173,12.8866,12.8726,12.8728,12.8885,12.9097,12.9135,12.8601,12.7931,12.7296,12.6479,12.5645,12.4887,12.4812,12.4774,12.4757,12.434,12.4054,12.3675,12.2651,12.231,12.1817,12.1097,12.0642,12.0453,12.0263,11.9857,11.9948,11.9832,11.9916,11.9678,11.941,11.9165,11.9198,11.8677,11.8458,11.8413,11.8185,11.792,11.7784,11.7671,11.7541,11.7116,11.6996,11.7005,11.6782,11.6782,11.6666,11.6627,11.6356,11.5815,11.56,11.5364,11.4705,11.4499,11.4118,11.3971,11.4162,11.4331,11.4486,11.4486,11.4486,11.437,11.4214,11.3865,11.3787,11.3826,11.4085,11.4317,11.4177,11.3773,11.3691,11.3645,11.3269,11.2888,11.3239,11.3512,11.3512,11.3044,11.2421,11.2031,11.2113,11.2121,11.222,12.7837,12.8447,12.8566,12.8606,12.8646,12.8807,12.9135,12.9471,12.9726,12.9797,12.9835,13.0062,13.0214,13.0479,13.1028,13.1444,13.152,13.1975,13.2278,13.2316,13.2278,13.1899,13.152,13.1141,13.0707,13.0214,12.9911,12.9797,12.9779,12.9546,12.923,12.8944,12.8746,12.8646,12.8686,12.8807,12.8963,12.9041,12.8738,12.8409,12.7683,12.6882,12.6066,12.5329,12.495,12.4757,12.4723,12.4664,12.4546,12.4016,12.3637,12.3295,12.2613,12.2007,12.1514,12.1249,12.0756,12.0421,12.0505,12.0243,12.0235,12.0264,12.0078,12.0058,12.0042,11.9508,11.9352,11.9294,11.9246,11.8921,11.8572,11.8509,11.8352,11.7927,11.7683,11.7683,11.7546,11.7546,11.7169,11.7246,11.713,11.6704,11.6434,11.6198,11.5777,11.5785,11.5778,11.5594,11.5321,11.5334,11.5341,11.5302,11.5224,11.4991,11.4875,11.4758,11.4797,11.503,11.5212,11.5393,11.5083,11.4562,11.4596,11.4576,11.4317,11.4096,11.4057,11.4174,11.4369,11.4408,11.4096,11.3862,11.3823,11.3594,11.3412,12.8184,12.8263,12.8467,12.8586,12.8646,12.8827,12.9135,12.9527,12.9688,12.9835,12.9928,13.0669,13.0952,13.1217,13.1937,13.2316,13.243,13.2506,13.2657,13.2619,13.2847,13.2544,13.2127,13.1596,13.1141,13.0707,13.0252,12.9779,12.9762,12.9361,12.8982,12.8746,12.8646,12.8606,12.8666,12.8728,12.8866,12.8945,12.9004,12.8623,12.7959,12.7383,12.6439,12.5665,12.5036,12.475,12.4637,12.4633,12.4719,12.4433,12.4054,12.3712,12.3295,12.2765,12.25,12.2045,12.14,12.1304,12.1274,12.0951,12.0722,12.0854,12.0832,12.0968,12.0771,12.0338,12.0158,12.0074,12.0,11.9591,11.9268,11.9326,11.9353,11.8971,11.8642,11.8515,11.8302,11.801,11.7555,11.7362,11.7246,11.7053,11.6975,11.6761,11.6504,11.6668,11.6585,11.6388,11.6109,11.5878,11.5885,11.5846,11.5691,11.5496,11.5458,11.5691,11.5807,11.6079,11.5814,11.5885,11.5583,11.5507,11.5448,11.5453,11.5447,11.5265,11.4914,11.5031,11.546,11.5421,11.5421,11.5109,11.4875,11.4486,11.4222,12.7948,12.8204,12.8266,12.8427,12.8646,12.8963,12.9192,12.9323,12.9654,13.0062,13.0686,13.0914,13.1369,13.1975,13.2771,13.3074,13.3377,13.3719,13.4022,13.4022,13.3794,13.3567,13.3036,13.2278,13.1672,13.0952,13.0328,12.9744,12.9508,12.9192,12.8866,12.8646,12.8606,12.8606,12.8626,12.8666,12.8785,12.8885,12.904,12.8702,12.8059,12.7339,12.6471,12.5696,12.4951,12.4628,12.455,12.4671,12.4757,12.466,12.4546,12.4395,12.4357,12.3637,12.303,12.2365,12.2122,12.217,12.2289,12.2253,12.1984,12.1619,12.1629,12.132,12.1177,12.0964,12.0824,12.0742,12.0719,12.0465,12.0186,12.012,12.0052,11.9749,11.9464,11.9261,11.9019,11.8593,11.8138,11.7981,11.7865,11.7439,11.7401,11.7148,11.6938,11.7258,11.7322,11.7086,11.6911,11.6642,11.6506,11.6468,11.6506,11.639,11.6701,11.6973,11.7011,11.7011,11.6707,11.6585,11.6717,11.6636,11.6416,11.6266,11.6187,11.5889,11.5421,11.5772,11.6395,11.6668,11.6668,11.6274,11.5884,11.546,11.5148,12.769,12.8058,12.8163,12.8365,12.8646,12.9021,12.9192,12.9267,12.9654,13.0252,13.0972,13.1369,13.1975,13.2809,13.3605,13.4022,13.406,13.4363,13.4628,13.4628,13.478,13.4439,13.3794,13.2847,13.2089,13.1293,13.0461,12.9708,12.9416,12.9097,12.8787,12.8626,12.8606,12.8606,12.8606,12.8626,12.8666,12.8748,12.879,12.8624,12.806,12.7287,12.6401,12.576,12.5018,12.4596,12.4445,12.4637,12.4757,12.4774,12.4774,12.4774,12.4736,12.4205,12.4007,12.3433,12.3152,12.3231,12.3304,12.303,12.2797,12.2607,12.2497,12.2095,12.1594,12.1282,12.1246,12.1217,12.1376,12.1404,12.1154,12.0952,12.0698,12.0444,12.0241,12.0023,11.9647,11.9242,11.9009,11.8823,11.8445,11.7942,11.7642,11.7436,11.7265,11.7352,11.7454,11.7411,11.7384,11.7348,11.7245,11.7245,11.7361,11.7439,11.775,11.7827,11.7711,11.7555,11.74,11.7375,11.774,11.7603,11.7224,11.7002,11.6936,11.6663,11.6503,11.6819,11.7287,11.756,11.7759,11.7369,11.6897,11.6391,11.6122,12.7434,12.7927,12.8159,12.8386,12.8646,12.9021,12.9192,12.9249,12.975,13.0383,13.1217,13.2013,13.2847,13.3643,13.4325,13.459,13.459,13.4742,13.478,13.478,13.478,13.459,13.3984,13.3112,13.2165,13.1596,13.0767,12.96,12.9361,12.904,12.8746,12.8606,12.8606,12.8606,12.8606,12.8606,12.8626,12.8666,12.8748,12.8696,12.8415,12.7627,12.6628,12.6195,12.5362,12.4558,12.4429,12.4532,12.4774,12.4774,12.4774,12.4774,12.4736,12.4715,12.4723,12.4687,12.4183,12.4185,12.4143,12.392,12.359,12.3448,12.3376,12.2894,12.238,12.1713,12.1642,12.1373,12.1419,12.1527,12.1327,12.1335,12.1199,12.1062,12.0896,12.0809,12.067,12.0159,11.9675,11.9442,11.8987,11.857,11.8499,11.8371,11.8332,11.7973,11.7973,11.8086,11.8097,11.817,11.7944,11.7905,11.775,11.7827,11.8099,11.8177,11.8138,11.8022,11.8022,11.7984,11.8176,11.8086,11.7908,11.7639,11.7401,11.7775,11.7858,11.8057,11.8222,11.8534,11.8577,11.8383,11.7954,11.7603,11.7175,12.7279,12.7948,12.8324,12.8566,12.8646,12.9021,12.9192,12.9305,13.028,13.1217,13.2051,13.2847,13.3643,13.4401,13.4628,13.478,13.478,13.478,13.478,13.478,13.478,13.4439,13.3832,13.2847,13.2033,13.1125,13.0222,12.9379,12.9116,12.8827,12.8666,12.8606,12.8606,12.8606,12.8606,12.8606,12.8606,12.8606,12.8686,12.8766,12.856,12.7943,12.7117,12.6534,12.5682,12.5029,12.4782,12.4657,12.4795,12.4774,12.4774,12.4774,12.4774,12.4774,12.4875,12.4948,12.4904,12.498,12.5019,12.4887,12.4655,12.4303,12.4102,12.3644,12.3089,12.2387,12.187,12.1553,12.1372,12.1494,12.1589,12.1624,12.167,12.16,12.1568,12.1562,12.1563,12.1028,12.041,12.0013,11.9606,11.9457,11.9424,11.9339,11.9375,11.94,11.9494,11.9561,11.9463,11.9381,11.8643,11.8449,11.7905,11.7944,11.8371,11.8721,11.8798,11.8915,11.8954,11.8845,11.8735,11.8596,11.8459,11.8059,11.7896,11.8384,11.8803,11.891,11.9109,11.9382,11.9542,11.9343,11.9547,11.9357,11.8655,12.681,12.7889,12.8386,12.8606,12.8686,12.9021,12.9381,12.9909,13.1055,13.2051,13.2809,13.334,13.3984,13.4704,13.478,13.4761,13.4761,13.478,13.478,13.478,13.4667,13.4211,13.3491,13.2621,13.1771,13.0828,12.9814,12.9078,12.8866,12.8726,12.8606,12.8606,12.8606,12.8606,12.8606,12.8606,12.8606,12.8606,12.8686,12.8746,12.8671,12.8037,12.7569,12.693,12.6228,12.5576,12.5155,12.4936,12.4795,12.4774,12.4774,12.4774,12.4808,12.4875,12.4991,12.5154,12.5291,12.5446,12.5636,12.5648,12.5569,12.5172,12.5019,12.4637,12.4026,12.335,12.2747,12.2357,12.15,12.147,12.1565,12.1624,12.1624,12.1581,12.1616,12.1618,12.1763,12.1628,12.1367,12.1298,12.0832,12.0362,12.023,11.9856,11.9882,11.9804,12.0051,12.0243,12.0293,12.0547,11.977,11.9265,11.8954,11.8837,11.9304,11.9575,11.9614,11.9738,11.9932,11.9694,11.9506,11.9271,11.9002,11.8831,11.8893,11.9304,11.9609,11.9757,11.9855,12.0045,12.0249,12.0376,12.0624,12.0789,12.0122,12.6266,12.7852,12.8423,12.8606,12.8666,12.8982,12.9607,13.0456,13.1663,13.2604,13.3306,13.3495,13.4062,13.4516,13.4743,13.4725,13.4688,13.4613,13.4651,13.4669,13.4613,13.3856,13.3099,13.2454,13.1417,13.04,12.9399,12.9038,12.8845,12.8686,12.8606,12.8606,12.8606,12.8606,12.8606,12.8606,12.8606,12.8666,12.8746,12.8885,12.8623,12.8247,12.8004,12.7475,12.6828,12.6046,12.5644,12.5336,12.5001,12.4774,12.4774,12.4774,12.4824,12.4925,12.5068,12.5212,12.5385,12.5591,12.5739,12.5769,12.576,12.5707,12.5798,12.5492,12.4804,12.4278,12.3677,12.3111,12.2256,12.1714,12.1772,12.1651,12.1651,12.1674,12.1708,12.1765,12.1984,12.215,12.2189,12.2207,12.1807,12.1297,12.105,12.0673,12.0525,12.0446,12.0444,12.0487,12.0709,12.1129,12.1013,12.078,12.0663,12.0585,12.0469,12.0391,12.0469,12.0741,12.0864,12.0549,12.0225,11.9856,11.9719,11.999,12.0131,12.0181,12.0393,12.0572,12.0672,12.0855,12.1216,12.1494,12.1431,12.152,12.1262,12.6228,12.7948,12.8423,12.8606,12.8646,12.8846,12.9395,13.0263,13.1362,13.225,13.312,13.3762,13.4216,13.4538,13.4538,13.45,13.433,13.4291,13.4253,13.4214,13.4311,13.3365,13.2326,13.1646,13.0664,12.9775,12.9037,12.8882,12.8766,12.8646,12.8606,12.8606,12.8606,12.8606,12.8606,12.8606,12.8626,12.8706,12.8864,12.8982,12.9173,12.8909,12.8699,12.8373,12.8026,12.7075,12.6331,12.5894,12.538,12.5001,12.4849,12.4904,12.4934,12.5051,12.5192,12.5443,12.5614,12.5598,12.5754,12.5783,12.5798,12.5798,12.5812,12.5832,12.5325,12.5013,12.4577,12.4456,12.3662,12.2701,12.2517,12.205,12.192,12.2001,12.2046,12.2108,12.2268,12.244,12.2564,12.2512,12.2381,12.2157,12.2147,12.1938,12.1936,12.1888,12.1878,12.1906,12.1829,12.2023,12.2101,12.2023,12.1984,12.179,12.1401,12.1285,12.1362,12.1673,12.1712,12.1305,12.0846,12.0295,12.0283,12.0789,12.0769,12.0704,12.0956,12.139,12.1744,12.1962,12.2395,12.264,12.2463,12.224,12.2028]}]]